GEFSCGP_prec_meanprecacc_108.txt.gz
Total_Precipitation_Accumulation
0.00 0.00 0.00 0.00 0.00 0.00 0.00 0.00 0.00 0.00 0.00 0.00 0.00 0.00 0.00 0.00 0.00 0.00 0.00 0.00 0.00 0.00 0.00 0.00 0.00 0.00 0.00 0.00 0.00 0.00 0.00 0.00 0.00 0.01 0.01 0.01 0.01 0.00 0.00 0.00 0.00 0.01 0.01 0.01
0.00 0.00 0.00 0.00 0.00 0.00 0.00 0.00 0.00 0.00 0.00 0.00 0.00 0.00 0.00 0.00 0.00 0.00 0.00 0.00 0.00 0.00 0.00 0.00 0.00 0.00 0.00 0.00 0.00 0.00 0.00 0.00 0.00 0.00 0.00 0.00 0.00 0.00 0.00 0.00 0.00 0.00 0.00 0.00
0.00 0.00 0.00 0.00 0.00 0.00 0.00 0.00 0.00 0.00 0.00 0.00 0.00 0.00 0.00 0.00 0.00 0.00 0.00 0.00 0.00 0.00 0.00 0.00 0.00 0.00 0.00 0.00 0.00 0.00 0.00 0.00 0.00 0.00 0.00 0.00 0.00 0.00 0.00 0.00 0.00 0.00 0.00 0.00
0.00 0.00 0.00 0.00 0.00 0.00 0.00 0.00 0.00 0.00 0.00 0.00 0.00 0.00 0.00 0.00 0.00 0.00 0.00 0.00 0.00 0.00 0.00 0.00 0.00 0.00 0.00 0.00 0.00 0.00 0.00 0.00 0.00 0.00 0.00 0.00 0.00 0.00 0.00 0.00 0.00 0.00 0.00 0.00
0.00 0.00 0.00 0.00 0.00 0.00 0.00 0.00 0.00 0.00 0.00 0.00 0.00 0.00 0.00 0.00 0.00 0.00 0.00 0.00 0.00 0.00 0.00 0.00 0.00 0.00 0.00 0.00 0.00 0.00 0.00 0.00 0.00 0.00 0.00 0.00 0.00 0.00 0.00 0.00 0.00 0.00 0.00 0.00
0.00 0.00 0.00 0.00 0.00 0.00 0.00 0.00 0.00 0.00 0.00 0.00 0.00 0.00 0.00 0.00 0.00 0.00 0.00 0.00 0.00 0.00 0.00 0.00 0.00 0.00 0.00 0.00 0.00 0.00 0.00 0.00 0.00 0.00 0.00 0.00 0.00 0.00 0.00 0.00 0.00 0.00 0.00 0.00
0.00 0.00 0.00 0.00 0.00 0.00 0.00 0.00 0.00 0.00 0.00 0.00 0.00 0.00 0.00 0.00 0.00 0.00 0.00 0.00 0.00 0.00 0.00 0.00 0.00 0.00 0.00 0.00 0.00 0.00 0.00 0.00 0.00 0.00 0.00 0.00 0.00 0.00 0.00 0.00 0.00 0.00 0.01 0.00
0.00 0.00 0.00 0.00 0.00 0.00 0.00 0.00 0.00 0.00 0.00 0.00 0.00 0.00 0.00 0.00 0.00 0.00 0.00 0.00 0.00 0.00 0.00 0.00 0.00 0.00 0.00 0.00 0.00 0.00 0.00 0.00 0.00 0.00 0.00 0.00 0.00 0.00 0.00 0.00 0.00 0.01 0.01 0.01
0.00 0.00 0.00 0.00 0.00 0.00 0.00 0.00 0.00 0.00 0.00 0.00 0.00 0.00 0.00 0.00 0.00 0.00 0.00 0.00 0.00 0.00 0.00 0.00 0.00 0.00 0.00 0.00 0.00 0.00 0.00 0.00 0.00 0.00 0.00 0.00 0.00 0.00 0.00 0.00 0.00 0.01 0.01 0.01
0.00 0.00 0.00 0.00 0.00 0.00 0.00 0.00 0.00 0.00 0.00 0.00 0.00 0.00 0.00 0.00 0.00 0.00 0.00 0.00 0.00 0.00 0.00 0.00 0.00 0.00 0.00 0.00 0.00 0.00 0.00 0.00 0.00 0.00 0.00 0.00 0.00 0.00 0.00 0.00 0.01 0.01 0.01 0.01
0.00 0.00 0.00 0.00 0.00 0.00 0.00 0.00 0.00 0.00 0.00 0.00 0.00 0.00 0.00 0.00 0.00 0.00 0.00 0.00 0.00 0.00 0.00 0.00 0.00 0.00 0.00 0.00 0.00 0.00 0.00 0.00 0.00 0.00 0.00 0.00 0.00 0.00 0.00 0.01 0.01 0.01 0.01 0.01
0.00 0.00 0.00 0.00 0.00 0.00 0.00 0.00 0.00 0.00 0.00 0.00 0.00 0.00 0.00 0.00 0.00 0.00 0.00 0.00 0.00 0.00 0.00 0.00 0.00 0.00 0.00 0.00 0.00 0.00 0.00 0.00 0.00 0.00 0.00 0.00 0.00 0.00 0.00 0.01 0.01 0.01 0.01 0.01
0.00 0.01 0.01 0.01 0.00 0.00 0.00 0.00 0.00 0.00 0.00 0.00 0.00 0.00 0.00 0.00 0.00 0.00 0.00 0.00 0.00 0.00 0.00 0.00 0.00 0.00 0.00 0.00 0.00 0.00 0.00 0.00 0.00 0.00 0.00 0.00 0.00 0.00 0.00 0.00 0.00 0.00 0.01 0.01
0.00 0.00 0.00 0.00 0.00 0.00 0.00 0.00 0.00 0.00 0.00 0.00 0.00 0.00 0.00 0.00 0.00 0.00 0.00 0.00 0.00 0.00 0.00 0.00 0.00 0.00 0.00 0.00 0.00 0.00 0.00 0.00 0.00 0.00 0.00 0.00 0.00 0.00 0.00 0.00 0.00 0.00 0.01 0.02
0.00 0.00 0.00 0.00 0.00 0.00 0.00 0.00 0.00 0.00 0.00 0.00 0.00 0.00 0.00 0.00 0.00 0.00 0.00 0.00 0.00 0.00 0.00 0.00 0.00 0.00 0.00 0.00 0.00 0.00 0.00 0.00 0.00 0.00 0.00 0.00 0.00 0.00 0.00 0.00 0.00 0.00 0.01 0.02
0.00 0.00 0.00 0.00 0.00 0.00 0.00 0.00 0.00 0.00 0.00 0.00 0.00 0.00 0.00 0.00 0.00 0.00 0.00 0.00 0.00 0.00 0.00 0.00 0.00 0.00 0.00 0.00 0.00 0.00 0.00 0.00 0.00 0.00 0.00 0.00 0.00 0.00 0.00 0.00 0.00 0.00 0.01 0.02
0.00 0.00 0.00 0.00 0.00 0.00 0.00 0.00 0.00 0.00 0.00 0.00 0.00 0.00 0.00 0.00 0.00 0.00 0.00 0.00 0.01 0.00 0.00 0.00 0.00 0.00 0.00 0.00 0.00 0.00 0.00 0.00 0.00 0.00 0.00 0.00 0.00 0.00 0.00 0.00 0.00 0.00 0.01 0.02
0.01 0.00 0.00 0.00 0.01 0.01 0.00 0.00 0.00 0.00 0.00 0.00 0.00 0.00 0.00 0.00 0.00 0.00 0.00 0.01 0.01 0.00 0.00 0.00 0.00 0.00 0.00 0.00 0.00 0.00 0.00 0.00 0.00 0.00 0.00 0.00 0.00 0.00 0.00 0.00 0.00 0.01 0.01 0.02
0.00 0.00 0.01 0.01 0.01 0.00 0.00 0.00 0.00 0.00 0.00 0.00 0.00 0.00 0.00 0.00 0.00 0.00 0.01 0.01 0.00 0.00 0.00 0.00 0.00 0.00 0.00 0.00 0.00 0.00 0.00 0.00 0.00 0.00 0.00 0.00 0.00 0.00 0.00 0.01 0.01 0.01 0.01 0.02
0.00 0.00 0.01 0.01 0.00 0.00 0.00 0.00 0.00 0.00 0.00 0.00 0.00 0.00 0.00 0.00 0.01 0.02 0.03 0.01 0.00 0.00 0.00 0.00 0.00 0.00 0.00 0.00 0.00 0.00 0.00 0.00 0.00 0.00 0.00 0.00 0.00 0.00 0.01 0.01 0.01 0.01 0.02 0.02
0.01 0.01 0.01 0.01 0.00 0.00 0.00 0.00 0.00 0.00 0.00 0.00 0.00 0.00 0.00 0.00 0.02 0.02 0.01 0.00 0.00 0.00 0.00 0.00 0.00 0.00 0.00 0.00 0.00 0.00 0.00 0.00 0.00 0.00 0.00 0.00 0.00 0.00 0.01 0.01 0.01 0.01 0.01 0.02
0.00 0.00 0.00 0.00 0.00 0.00 0.00 0.00 0.00 0.00 0.00 0.00 0.00 0.00 0.00 0.00 0.01 0.00 0.00 0.00 0.00 0.00 0.00 0.00 0.00 0.00 0.00 0.00 0.00 0.00 0.00 0.00 0.00 0.00 0.00 0.00 0.00 0.01 0.01 0.01 0.02 0.02 0.02 0.02
0.00 0.00 0.00 0.00 0.00 0.00 0.00 0.00 0.00 0.00 0.00 0.00 0.00 0.00 0.00 0.00 0.00 0.00 0.00 0.00 0.00 0.00 0.00 0.00 0.00 0.00 0.00 0.00 0.00 0.00 0.00 0.00 0.00 0.00 0.00 0.00 0.00 0.00 0.01 0.02 0.02 0.02 0.02 0.04
0.00 0.00 0.00 0.00 0.00 0.00 0.00 0.00 0.00 0.00 0.00 0.00 0.00 0.00 0.00 0.00 0.00 0.00 0.00 0.00 0.00 0.00 0.00 0.00 0.00 0.00 0.00 0.00 0.00 0.00 0.00 0.00 0.00 0.00 0.00 0.00 0.01 0.01 0.02 0.02 0.02 0.03 0.05 0.14
0.00 0.00 0.00 0.00 0.00 0.00 0.00 0.00 0.00 0.00 0.00 0.00 0.00 0.00 0.00 0.00 0.00 0.00 0.00 0.00 0.00 0.00 0.00 0.00 0.00 0.00 0.00 0.00 0.00 0.00 0.00 0.00 0.00 0.00 0.00 0.00 0.01 0.02 0.02 0.02 0.03 0.05 0.07 0.20
0.00 0.00 0.00 0.00 0.00 0.00 0.00 0.00 0.00 0.00 0.00 0.00 0.00 0.00 0.00 0.00 0.00 0.00 0.00 0.00 0.00 0.00 0.00 0.00 0.00 0.00 0.00 0.00 0.00 0.00 0.00 0.00 0.00 0.00 0.00 0.01 0.02 0.02 0.03 0.03 0.03 0.04 0.06 0.12

GEFSCGP_prec_meanprecacc_114.txt.gz
Total_Precipitation_Accumulation
0.00 0.00 0.00 0.00 0.00 0.00 0.00 0.00 0.00 0.00 0.00 0.00 0.00 0.00 0.00 0.00 0.00 0.00 0.00 0.00 0.00 0.00 0.00 0.00 0.00 0.00 0.00 0.00 0.00 0.00 0.00 0.00 0.01 0.01 0.02 0.02 0.01 0.01 0.01 0.01 0.01 0.01 0.01 0.01
0.00 0.00 0.00 0.00 0.00 0.00 0.00 0.00 0.00 0.00 0.00 0.00 0.00 0.00 0.00 0.00 0.00 0.00 0.00 0.00 0.00 0.00 0.00 0.00 0.00 0.00 0.00 0.00 0.00 0.00 0.00 0.00 0.00 0.01 0.01 0.01 0.01 0.00 0.00 0.00 0.00 0.00 0.00 0.00
0.00 0.00 0.00 0.00 0.00 0.00 0.00 0.00 0.00 0.00 0.00 0.00 0.00 0.00 0.00 0.00 0.00 0.00 0.00 0.00 0.00 0.00 0.00 0.00 0.00 0.00 0.00 0.00 0.00 0.00 0.00 0.00 0.00 0.00 0.00 0.00 0.00 0.00 0.00 0.00 0.00 0.00 0.00 0.00
0.00 0.00 0.00 0.00 0.00 0.00 0.00 0.00 0.00 0.00 0.00 0.00 0.00 0.00 0.00 0.00 0.00 0.00 0.00 0.00 0.00 0.00 0.00 0.00 0.00 0.00 0.00 0.00 0.00 0.00 0.00 0.00 0.00 0.00 0.00 0.00 0.00 0.00 0.00 0.00 0.00 0.00 0.00 0.00
0.00 0.00 0.00 0.00 0.00 0.00 0.00 0.00 0.00 0.00 0.00 0.00 0.00 0.00 0.00 0.00 0.00 0.00 0.00 0.00 0.00 0.00 0.00 0.00 0.00 0.00 0.00 0.00 0.00 0.00 0.00 0.00 0.00 0.00 0.00 0.00 0.00 0.00 0.00 0.00 0.00 0.00 0.00 0.00
0.00 0.00 0.00 0.00 0.00 0.00 0.00 0.00 0.00 0.00 0.00 0.00 0.00 0.00 0.00 0.00 0.00 0.00 0.00 0.00 0.00 0.00 0.00 0.00 0.00 0.00 0.00 0.00 0.00 0.00 0.00 0.00 0.00 0.00 0.00 0.00 0.00 0.00 0.00 0.00 0.00 0.00 0.00 0.00
0.00 0.00 0.00 0.00 0.00 0.00 0.00 0.00 0.01 0.01 0.00 0.00 0.00 0.00 0.00 0.00 0.00 0.00 0.00 0.00 0.00 0.00 0.00 0.00 0.00 0.00 0.00 0.00 0.00 0.00 0.00 0.00 0.00 0.00 0.00 0.00 0.00 0.00 0.00 0.00 0.00 0.00 0.01 0.00
0.00 0.00 0.00 0.00 0.00 0.00 0.00 0.00 0.01 0.01 0.00 0.00 0.00 0.00 0.00 0.00 0.00 0.00 0.00 0.00 0.00 0.00 0.00 0.00 0.00 0.00 0.00 0.00 0.00 0.00 0.00 0.00 0.00 0.00 0.00 0.00 0.00 0.00 0.00 0.00 0.00 0.01 0.01 0.01
0.00 0.00 0.00 0.00 0.00 0.00 0.00 0.00 0.00 0.00 0.00 0.00 0.00 0.00 0.00 0.00 0.00 0.00 0.00 0.00 0.00 0.00 0.00 0.00 0.00 0.00 0.00 0.00 0.00 0.00 0.00 0.00 0.00 0.00 0.00 0.00 0.00 0.00 0.00 0.00 0.00 0.01 0.01 0.01
0.00 0.00 0.00 0.00 0.00 0.00 0.00 0.00 0.00 0.01 0.01 0.00 0.00 0.00 0.00 0.00 0.00 0.00 0.00 0.00 0.00 0.00 0.00 0.00 0.00 0.00 0.00 0.00 0.00 0.00 0.00 0.00 0.00 0.00 0.00 0.00 0.00 0.00 0.00 0.00 0.01 0.01 0.01 0.01
0.00 0.01 0.01 0.00 0.00 0.00 0.00 0.00 0.01 0.01 0.01 0.00 0.00 0.00 0.00 0.00 0.00 0.00 0.00 0.00 0.00 0.00 0.00 0.00 0.00 0.00 0.00 0.00 0.00 0.00 0.00 0.00 0.00 0.00 0.00 0.00 0.00 0.00 0.00 0.01 0.01 0.01 0.01 0.01
0.01 0.02 0.02 0.01 0.00 0.00 0.00 0.00 0.00 0.00 0.00 0.00 0.00 0.00 0.00 0.00 0.00 0.00 0.00 0.00 0.00 0.00 0.00 0.00 0.00 0.00 0.00 0.00 0.00 0.00 0.00 0.00 0.00 0.00 0.00 0.00 0.00 0.00 0.00 0.01 0.01 0.01 0.01 0.01
0.02 0.05 0.07 0.05 0.02 0.01 0.01 0.00 0.00 0.00 0.00 0.00 0.00 0.00 0.00 0.00 0.00 0.00 0.00 0.00 0.00 0.00 0.00 0.00 0.00 0.00 0.00 0.00 0.00 0.00 0.00 0.00 0.00 0.00 0.00 0.00 0.00 0.00 0.00 0.00 0.00 0.00 0.01 0.01
0.03 0.05 0.05 0.04 0.01 0.00 0.00 0.00 0.00 0.00 0.01 0.00 0.00 0.00 0.00 0.00 0.00 0.00 0.00 0.00 0.00 0.00 0.00 0.00 0.00 0.00 0.00 0.00 0.00 0.00 0.00 0.00 0.00 0.00 0.00 0.00 0.00 0.00 0.00 0.00 0.00 0.00 0.01 0.02
0.04 0.06 0.02 0.00 0.00 0.00 0.00 0.00 0.00 0.00 0.00 0.00 0.00 0.00 0.00 0.00 0.00 0.00 0.00 0.00 0.00 0.00 0.00 0.00 0.00 0.00 0.00 0.00 0.00 0.00 0.00 0.00 0.00 0.00 0.00 0.00 0.00 0.00 0.00 0.00 0.00 0.00 0.01 0.02
0.06 0.06 0.02 0.01 0.00 0.00 0.01 0.00 0.00 0.00 0.00 0.00 0.00 0.00 0.00 0.00 0.00 0.00 0.00 0.00 0.00 0.00 0.00 0.00 0.00 0.00 0.00 0.00 0.00 0.00 0.00 0.00 0.00 0.00 0.00 0.00 0.00 0.00 0.00 0.00 0.00 0.00 0.01 0.02
0.07 0.05 0.04 0.02 0.01 0.02 0.02 0.00 0.00 0.00 0.00 0.00 0.00 0.00 0.00 0.00 0.00 0.00 0.00 0.00 0.01 0.00 0.00 0.00 0.00 0.00 0.00 0.00 0.00 0.00 0.00 0.00 0.00 0.00 0.00 0.00 0.00 0.00 0.00 0.00 0.00 0.00 0.01 0.02
0.06 0.06 0.05 0.03 0.04 0.08 0.03 0.00 0.00 0.00 0.00 0.00 0.00 0.00 0.00 0.00 0.00 0.00 0.00 0.01 0.01 0.00 0.00 0.00 0.00 0.00 0.00 0.00 0.00 0.00 0.00 0.00 0.00 0.00 0.00 0.00 0.00 0.00 0.00 0.00 0.00 0.01 0.01 0.02
0.02 0.05 0.10 0.07 0.06 0.04 0.00 0.00 0.00 0.00 0.00 0.00 0.00 0.00 0.00 0.00 0.00 0.00 0.01 0.01 0.00 0.00 0.00 0.00 0.00 0.00 0.00 0.00 0.00 0.00 0.00 0.00 0.00 0.00 0.00 0.00 0.00 0.00 0.00 0.01 0.01 0.01 0.01 0.02
0.02 0.04 0.11 0.08 0.04 0.01 0.00 0.00 0.00 0.00 0.00 0.00 0.00 0.00 0.00 0.00 0.01 0.02 0.03 0.01 0.00 0.00 0.00 0.00 0.00 0.00 0.00 0.00 0.00 0.00 0.00 0.00 0.00 0.00 0.00 0.00 0.00 0.00 0.01 0.01 0.01 0.01 0.02 0.02
0.05 0.08 0.11 0.07 0.03 0.01 0.00 0.00 0.00 0.00 0.00 0.00 0.00 0.00 0.00 0.00 0.02 0.02 0.01 0.00 0.00 0.00 0.00 0.00 0.00 0.00 0.00 0.00 0.00 0.00 0.00 0.00 0.00 0.00 0.00 0.00 0.00 0.00 0.01 0.01 0.01 0.01 0.01 0.02
0.05 0.06 0.06 0.04 0.02 0.01 0.01 0.00 0.00 0.00 0.00 0.00 0.00 0.00 0.00 0.00 0.01 0.00 0.00 0.00 0.00 0.00 0.00 0.00 0.00 0.00 0.00 0.00 0.00 0.00 0.00 0.00 0.00 0.00 0.00 0.00 0.00 0.01 0.01 0.01 0.02 0.02 0.02 0.02
0.03 0.03 0.02 0.01 0.01 0.00 0.01 0.01 0.00 0.00 0.00 0.00 0.00 0.00 0.00 0.00 0.00 0.00 0.00 0.00 0.00 0.00 0.00 0.00 0.00 0.00 0.00 0.00 0.00 0.00 0.00 0.00 0.00 0.00 0.00 0.00 0.00 0.00 0.01 0.02 0.02 0.02 0.02 0.04
0.02 0.02 0.02 0.01 0.00 0.00 0.00 0.00 0.00 0.00 0.00 0.00 0.00 0.00 0.00 0.00 0.00 0.00 0.00 0.00 0.00 0.00 0.00 0.00 0.00 0.00 0.00 0.00 0.00 0.00 0.00 0.00 0.00 0.00 0.00 0.00 0.01 0.01 0.02 0.02 0.02 0.03 0.05 0.14
0.02 0.02 0.02 0.01 0.01 0.00 0.00 0.00 0.00 0.00 0.00 0.00 0.00 0.00 0.00 0.00 0.00 0.00 0.00 0.00 0.00 0.00 0.00 0.00 0.00 0.00 0.00 0.00 0.00 0.00 0.00 0.00 0.00 0.00 0.00 0.00 0.01 0.02 0.02 0.02 0.03 0.05 0.07 0.20
0.01 0.01 0.01 0.01 0.01 0.01 0.00 0.00 0.00 0.00 0.00 0.00 0.00 0.00 0.00 0.00 0.00 0.00 0.00 0.00 0.00 0.00 0.00 0.00 0.00 0.00 0.00 0.00 0.00 0.00 0.00 0.00 0.00 0.00 0.00 0.01 0.02 0.02 0.03 0.03 0.03 0.04 0.06 0.12

GEFSCGP_prec_meanprecacc_120.txt.gz
Total_Precipitation_Accumulation
0.01 0.01 0.01 0.00 0.00 0.00 0.00 0.00 0.00 0.00 0.00 0.00 0.00 0.00 0.00 0.00 0.00 0.00 0.00 0.00 0.00 0.00 0.00 0.00 0.00 0.00 0.00 0.00 0.00 0.00 0.00 0.00 0.01 0.01 0.02 0.02 0.01 0.01 0.01 0.01 0.01 0.01 0.01 0.01
0.02 0.01 0.00 0.00 0.00 0.00 0.00 0.00 0.00 0.00 0.00 0.00 0.00 0.00 0.00 0.00 0.00 0.00 0.00 0.00 0.00 0.00 0.00 0.00 0.00 0.00 0.00 0.00 0.00 0.00 0.00 0.00 0.00 0.01 0.01 0.01 0.01 0.01 0.00 0.00 0.01 0.01 0.00 0.00
0.01 0.00 0.00 0.00 0.00 0.00 0.00 0.00 0.00 0.00 0.00 0.00 0.00 0.00 0.00 0.00 0.00 0.00 0.00 0.00 0.00 0.00 0.00 0.00 0.00 0.00 0.00 0.00 0.00 0.00 0.00 0.00 0.00 0.00 0.01 0.01 0.01 0.01 0.01 0.00 0.00 0.00 0.00 0.00
0.01 0.00 0.00 0.00 0.00 0.00 0.00 0.00 0.00 0.00 0.00 0.00 0.00 0.00 0.00 0.00 0.00 0.00 0.00 0.00 0.00 0.00 0.00 0.00 0.00 0.00 0.00 0.00 0.00 0.00 0.00 0.00 0.00 0.00 0.00 0.00 0.00 0.00 0.00 0.00 0.00 0.00 0.00 0.00
0.02 0.00 0.00 0.00 0.00 0.00 0.00 0.00 0.00 0.00 0.00 0.00 0.00 0.00 0.00 0.00 0.00 0.00 0.00 0.00 0.00 0.00 0.00 0.00 0.00 0.00 0.00 0.00 0.00 0.00 0.00 0.00 0.00 0.00 0.00 0.00 0.00 0.00 0.00 0.00 0.00 0.00 0.00 0.00
0.02 0.00 0.00 0.00 0.00 0.00 0.00 0.01 0.01 0.00 0.01 0.01 0.00 0.00 0.00 0.00 0.00 0.00 0.00 0.00 0.00 0.00 0.00 0.00 0.00 0.00 0.00 0.00 0.00 0.00 0.00 0.00 0.00 0.00 0.00 0.00 0.00 0.00 0.00 0.00 0.00 0.00 0.00 0.00
0.05 0.02 0.00 0.00 0.01 0.01 0.01 0.02 0.05 0.05 0.04 0.02 0.00 0.00 0.00 0.00 0.00 0.00 0.00 0.00 0.00 0.00 0.00 0.00 0.00 0.00 0.00 0.00 0.00 0.00 0.00 0.00 0.00 0.00 0.01 0.01 0.00 0.00 0.00 0.00 0.00 0.01 0.01 0.01
0.05 0.02 0.01 0.00 0.00 0.01 0.01 0.01 0.03 0.03 0.01 0.00 0.00 0.00 0.00 0.00 0.00 0.00 0.00 0.00 0.00 0.00 0.00 0.00 0.00 0.00 0.00 0.00 0.00 0.00 0.00 0.00 0.00 0.00 0.00 0.00 0.00 0.00 0.00 0.00 0.01 0.01 0.01 0.01
0.06 0.02 0.00 0.00 0.00 0.00 0.01 0.01 0.01 0.01 0.01 0.00 0.00 0.00 0.00 0.00 0.00 0.00 0.00 0.00 0.00 0.00 0.00 0.00 0.00 0.00 0.00 0.00 0.00 0.00 0.00 0.00 0.00 0.00 0.00 0.00 0.00 0.00 0.00 0.00 0.01 0.01 0.01 0.01
0.08 0.05 0.01 0.00 0.01 0.01 0.01 0.01 0.01 0.04 0.04 0.01 0.00 0.00 0.00 0.00 0.00 0.00 0.00 0.00 0.00 0.00 0.00 0.00 0.00 0.00 0.00 0.00 0.00 0.00 0.00 0.00 0.00 0.00 0.00 0.00 0.00 0.00 0.00 0.00 0.01 0.01 0.01 0.01
0.09 0.08 0.03 0.01 0.01 0.01 0.01 0.02 0.03 0.05 0.03 0.01 0.00 0.00 0.00 0.00 0.00 0.00 0.00 0.00 0.00 0.00 0.00 0.00 0.00 0.00 0.00 0.00 0.00 0.00 0.00 0.00 0.00 0.00 0.00 0.00 0.00 0.00 0.00 0.01 0.01 0.01 0.01 0.01
0.08 0.12 0.08 0.02 0.01 0.01 0.01 0.01 0.02 0.04 0.04 0.01 0.00 0.00 0.00 0.00 0.00 0.00 0.00 0.00 0.00 0.00 0.00 0.00 0.00 0.00 0.00 0.00 0.00 0.00 0.00 0.00 0.00 0.00 0.00 0.00 0.00 0.00 0.00 0.01 0.01 0.01 0.01 0.01
0.14 0.21 0.18 0.11 0.05 0.02 0.03 0.02 0.02 0.02 0.01 0.01 0.00 0.00 0.00 0.00 0.00 0.00 0.00 0.00 0.00 0.00 0.00 0.00 0.00 0.00 0.00 0.00 0.00 0.00 0.00 0.00 0.00 0.00 0.00 0.00 0.00 0.00 0.00 0.01 0.00 0.01 0.01 0.01
0.17 0.21 0.14 0.10 0.04 0.02 0.03 0.02 0.02 0.03 0.03 0.02 0.00 0.00 0.00 0.00 0.00 0.00 0.00 0.00 0.00 0.00 0.00 0.00 0.00 0.00 0.00 0.00 0.00 0.00 0.00 0.00 0.00 0.00 0.00 0.00 0.00 0.00 0.00 0.00 0.00 0.00 0.01 0.02
0.20 0.20 0.07 0.02 0.01 0.01 0.01 0.01 0.01 0.02 0.03 0.02 0.00 0.00 0.00 0.00 0.00 0.00 0.00 0.00 0.00 0.00 0.00 0.00 0.00 0.00 0.00 0.00 0.00 0.00 0.00 0.00 0.00 0.00 0.00 0.00 0.00 0.00 0.00 0.00 0.00 0.00 0.01 0.02
0.23 0.21 0.09 0.03 0.01 0.02 0.02 0.01 0.01 0.01 0.01 0.01 0.00 0.00 0.00 0.00 0.00 0.00 0.00 0.00 0.00 0.00 0.00 0.00 0.00 0.00 0.00 0.00 0.00 0.00 0.00 0.00 0.00 0.00 0.00 0.00 0.00 0.00 0.00 0.00 0.00 0.00 0.01 0.02
0.21 0.19 0.13 0.07 0.03 0.06 0.06 0.01 0.00 0.00 0.00 0.00 0.00 0.00 0.00 0.00 0.00 0.00 0.00 0.00 0.01 0.00 0.00 0.00 0.00 0.00 0.00 0.00 0.00 0.00 0.00 0.00 0.00 0.00 0.00 0.00 0.00 0.00 0.00 0.00 0.00 0.01 0.01 0.02
0.15 0.17 0.17 0.09 0.10 0.20 0.07 0.00 0.00 0.00 0.00 0.00 0.00 0.00 0.00 0.00 0.00 0.00 0.00 0.01 0.01 0.00 0.00 0.00 0.00 0.00 0.00 0.00 0.00 0.00 0.00 0.00 0.00 0.00 0.00 0.00 0.00 0.00 0.00 0.00 0.00 0.01 0.01 0.02
0.08 0.13 0.23 0.17 0.14 0.10 0.02 0.00 0.00 0.00 0.00 0.00 0.00 0.00 0.00 0.00 0.00 0.00 0.01 0.01 0.00 0.00 0.00 0.00 0.00 0.00 0.00 0.00 0.00 0.00 0.00 0.00 0.00 0.00 0.00 0.00 0.00 0.00 0.00 0.01 0.01 0.01 0.01 0.02
0.08 0.11 0.24 0.20 0.12 0.05 0.00 0.00 0.00 0.00 0.00 0.00 0.00 0.00 0.00 0.00 0.01 0.02 0.03 0.01 0.00 0.00 0.00 0.00 0.00 0.00 0.00 0.00 0.00 0.00 0.00 0.00 0.00 0.00 0.00 0.00 0.00 0.00 0.01 0.01 0.01 0.01 0.02 0.02
0.15 0.20 0.24 0.17 0.08 0.02 0.00 0.00 0.00 0.01 0.00 0.00 0.00 0.00 0.00 0.00 0.02 0.02 0.01 0.00 0.00 0.00 0.00 0.00 0.00 0.00 0.00 0.00 0.00 0.00 0.00 0.00 0.00 0.00 0.00 0.00 0.00 0.00 0.01 0.01 0.01 0.01 0.01 0.02
0.15 0.19 0.17 0.11 0.07 0.02 0.01 0.01 0.01 0.01 0.00 0.00 0.00 0.00 0.00 0.00 0.01 0.00 0.00 0.00 0.00 0.00 0.00 0.00 0.00 0.00 0.00 0.00 0.00 0.00 0.00 0.00 0.00 0.00 0.00 0.00 0.00 0.01 0.01 0.01 0.02 0.02 0.02 0.02
0.11 0.13 0.11 0.07 0.03 0.01 0.01 0.02 0.02 0.01 0.01 0.00 0.00 0.00 0.00 0.00 0.00 0.00 0.00 0.00 0.00 0.00 0.00 0.00 0.00 0.00 0.00 0.00 0.00 0.00 0.00 0.00 0.00 0.00 0.00 0.00 0.00 0.00 0.01 0.02 0.02 0.02 0.02 0.04
0.06 0.07 0.07 0.05 0.02 0.01 0.01 0.01 0.02 0.02 0.01 0.01 0.01 0.00 0.00 0.00 0.00 0.00 0.00 0.00 0.00 0.00 0.00 0.00 0.00 0.00 0.00 0.00 0.00 0.00 0.00 0.00 0.00 0.00 0.00 0.00 0.01 0.01 0.02 0.02 0.02 0.03 0.05 0.14
0.05 0.05 0.05 0.04 0.02 0.02 0.01 0.01 0.01 0.01 0.01 0.01 0.01 0.01 0.01 0.00 0.00 0.00 0.00 0.00 0.00 0.00 0.00 0.00 0.00 0.00 0.00 0.00 0.00 0.00 0.00 0.00 0.00 0.00 0.00 0.00 0.01 0.02 0.02 0.02 0.03 0.05 0.07 0.20
0.03 0.03 0.04 0.03 0.02 0.02 0.01 0.01 0.01 0.01 0.01 0.01 0.01 0.01 0.01 0.00 0.00 0.00 0.00 0.00 0.00 0.00 0.00 0.00 0.00 0.00 0.00 0.00 0.00 0.00 0.00 0.00 0.00 0.00 0.00 0.01 0.02 0.02 0.03 0.03 0.03 0.04 0.06 0.12

GEFSCGP_prec_meanprecacc_126.txt.gz
Total_Precipitation_Accumulation
0.08 0.08 0.05 0.02 0.01 0.00 0.00 0.00 0.00 0.00 0.00 0.00 0.00 0.00 0.00 0.00 0.00 0.00 0.00 0.00 0.00 0.00 0.00 0.00 0.00 0.00 0.00 0.00 0.00 0.00 0.00 0.00 0.01 0.01 0.02 0.02 0.02 0.01 0.01 0.01 0.01 0.01 0.01 0.01
0.12 0.08 0.03 0.01 0.00 0.00 0.00 0.00 0.00 0.00 0.00 0.00 0.00 0.00 0.00 0.00 0.00 0.00 0.00 0.00 0.00 0.00 0.00 0.00 0.00 0.00 0.00 0.00 0.00 0.00 0.00 0.00 0.00 0.01 0.01 0.01 0.01 0.01 0.00 0.01 0.01 0.01 0.01 0.01
0.09 0.05 0.01 0.01 0.01 0.01 0.01 0.00 0.00 0.00 0.00 0.00 0.00 0.00 0.00 0.00 0.00 0.00 0.00 0.00 0.00 0.00 0.00 0.00 0.00 0.00 0.00 0.00 0.00 0.00 0.00 0.00 0.00 0.00 0.01 0.01 0.01 0.01 0.01 0.01 0.01 0.01 0.01 0.00
0.07 0.03 0.02 0.03 0.02 0.01 0.01 0.00 0.00 0.00 0.00 0.01 0.00 0.00 0.00 0.00 0.00 0.00 0.00 0.00 0.00 0.00 0.00 0.00 0.00 0.00 0.00 0.00 0.00 0.00 0.00 0.00 0.00 0.00 0.01 0.01 0.01 0.01 0.00 0.00 0.00 0.01 0.00 0.00
0.10 0.03 0.03 0.04 0.02 0.01 0.00 0.00 0.00 0.01 0.01 0.01 0.01 0.01 0.00 0.00 0.00 0.00 0.00 0.00 0.00 0.00 0.00 0.00 0.00 0.00 0.00 0.00 0.00 0.00 0.00 0.00 0.00 0.00 0.00 0.00 0.00 0.00 0.00 0.00 0.01 0.01 0.01 0.00
0.09 0.04 0.05 0.05 0.03 0.02 0.01 0.02 0.02 0.03 0.05 0.08 0.02 0.00 0.00 0.00 0.00 0.00 0.00 0.00 0.00 0.00 0.00 0.00 0.00 0.00 0.00 0.00 0.00 0.00 0.00 0.00 0.00 0.00 0.01 0.01 0.00 0.00 0.00 0.00 0.01 0.01 0.01 0.01
0.16 0.06 0.03 0.04 0.06 0.06 0.07 0.10 0.18 0.19 0.18 0.10 0.01 0.00 0.00 0.00 0.00 0.00 0.00 0.00 0.00 0.00 0.00 0.00 0.00 0.00 0.00 0.00 0.00 0.00 0.00 0.00 0.00 0.00 0.01 0.01 0.01 0.01 0.00 0.01 0.01 0.01 0.01 0.01
0.20 0.09 0.03 0.02 0.05 0.07 0.09 0.12 0.16 0.13 0.06 0.01 0.00 0.00 0.00 0.00 0.00 0.00 0.00 0.00 0.00 0.00 0.00 0.00 0.00 0.00 0.00 0.00 0.00 0.00 0.00 0.00 0.00 0.00 0.00 0.01 0.01 0.01 0.01 0.01 0.01 0.02 0.02 0.02
0.20 0.11 0.02 0.01 0.01 0.02 0.04 0.07 0.07 0.06 0.04 0.01 0.00 0.00 0.00 0.00 0.00 0.00 0.00 0.00 0.00 0.00 0.00 0.00 0.00 0.00 0.00 0.00 0.00 0.00 0.00 0.00 0.00 0.00 0.00 0.00 0.01 0.00 0.01 0.01 0.01 0.02 0.02 0.02
0.20 0.14 0.05 0.02 0.02 0.03 0.03 0.04 0.08 0.16 0.14 0.05 0.01 0.00 0.00 0.00 0.00 0.00 0.00 0.00 0.00 0.00 0.00 0.00 0.00 0.00 0.00 0.00 0.00 0.00 0.00 0.00 0.00 0.00 0.00 0.00 0.00 0.00 0.00 0.01 0.02 0.02 0.02 0.02
0.20 0.20 0.09 0.06 0.05 0.04 0.05 0.07 0.12 0.17 0.12 0.04 0.01 0.00 0.00 0.00 0.00 0.00 0.00 0.00 0.00 0.00 0.00 0.00 0.00 0.00 0.00 0.00 0.00 0.00 0.00 0.00 0.00 0.00 0.00 0.00 0.00 0.00 0.00 0.01 0.01 0.01 0.02 0.01
0.17 0.23 0.16 0.07 0.04 0.03 0.04 0.04 0.08 0.13 0.12 0.04 0.02 0.00 0.00 0.00 0.00 0.00 0.00 0.00 0.00 0.00 0.00 0.00 0.00 0.00 0.00 0.00 0.00 0.00 0.00 0.00 0.00 0.00 0.00 0.00 0.00 0.00 0.00 0.01 0.01 0.01 0.01 0.01
0.27 0.36 0.29 0.20 0.11 0.08 0.11 0.09 0.07 0.07 0.06 0.03 0.02 0.01 0.00 0.00 0.00 0.00 0.00 0.00 0.00 0.00 0.00 0.00 0.00 0.00 0.00 0.00 0.00 0.00 0.00 0.00 0.00 0.00 0.00 0.00 0.00 0.00 0.00 0.01 0.01 0.01 0.01 0.02
0.30 0.37 0.26 0.20 0.12 0.09 0.11 0.10 0.09 0.11 0.10 0.05 0.01 0.00 0.00 0.00 0.00 0.00 0.00 0.00 0.00 0.00 0.00 0.00 0.00 0.00 0.00 0.00 0.00 0.00 0.00 0.00 0.00 0.00 0.00 0.00 0.00 0.00 0.00 0.00 0.00 0.01 0.01 0.03
0.32 0.32 0.13 0.06 0.04 0.04 0.04 0.04 0.05 0.07 0.08 0.04 0.01 0.00 0.00 0.00 0.00 0.00 0.00 0.00 0.00 0.00 0.00 0.00 0.00 0.00 0.00 0.00 0.00 0.00 0.00 0.00 0.00 0.00 0.00 0.00 0.00 0.00 0.00 0.00 0.00 0.00 0.01 0.03
0.40 0.34 0.14 0.06 0.04 0.04 0.04 0.02 0.01 0.02 0.02 0.02 0.00 0.00 0.00 0.00 0.00 0.00 0.00 0.00 0.00 0.00 0.00 0.00 0.00 0.00 0.00 0.00 0.00 0.00 0.00 0.00 0.00 0.00 0.00 0.00 0.00 0.00 0.00 0.00 0.00 0.00 0.01 0.02
0.38 0.35 0.21 0.11 0.05 0.11 0.11 0.02 0.01 0.01 0.00 0.00 0.00 0.00 0.00 0.00 0.00 0.00 0.00 0.00 0.01 0.00 0.00 0.00 0.00 0.00 0.00 0.00 0.00 0.00 0.00 0.00 0.00 0.00 0.00 0.00 0.00 0.00 0.00 0.00 0.00 0.01 0.01 0.02
0.25 0.29 0.30 0.16 0.17 0.30 0.10 0.01 0.00 0.00 0.00 0.00 0.00 0.00 0.00 0.00 0.00 0.00 0.00 0.01 0.01 0.00 0.00 0.00 0.00 0.00 0.00 0.00 0.00 0.00 0.00 0.00 0.00 0.00 0.00 0.00 0.00 0.00 0.00 0.00 0.01 0.01 0.01 0.02
0.13 0.22 0.37 0.29 0.23 0.16 0.03 0.00 0.01 0.01 0.00 0.00 0.00 0.00 0.00 0.00 0.00 0.00 0.01 0.01 0.00 0.00 0.00 0.00 0.00 0.00 0.00 0.00 0.00 0.00 0.00 0.00 0.00 0.00 0.00 0.00 0.00 0.00 0.01 0.01 0.01 0.01 0.01 0.02
0.12 0.18 0.36 0.33 0.22 0.09 0.01 0.00 0.00 0.01 0.01 0.01 0.01 0.00 0.00 0.00 0.01 0.02 0.03 0.01 0.00 0.00 0.00 0.00 0.00 0.00 0.00 0.00 0.00 0.00 0.00 0.00 0.00 0.00 0.00 0.00 0.00 0.00 0.01 0.01 0.01 0.01 0.02 0.02
0.24 0.32 0.37 0.27 0.15 0.04 0.01 0.01 0.01 0.03 0.02 0.01 0.01 0.01 0.00 0.01 0.02 0.02 0.01 0.00 0.00 0.00 0.00 0.00 0.00 0.00 0.00 0.00 0.00 0.00 0.00 0.00 0.00 0.00 0.00 0.00 0.00 0.00 0.01 0.01 0.01 0.01 0.01 0.02
0.25 0.32 0.27 0.20 0.13 0.04 0.02 0.03 0.04 0.04 0.01 0.01 0.01 0.01 0.01 0.01 0.01 0.00 0.00 0.00 0.00 0.00 0.00 0.00 0.00 0.00 0.00 0.00 0.00 0.00 0.00 0.00 0.00 0.00 0.00 0.00 0.00 0.01 0.01 0.01 0.02 0.02 0.02 0.02
0.17 0.21 0.19 0.13 0.06 0.02 0.03 0.04 0.04 0.03 0.02 0.01 0.01 0.01 0.01 0.00 0.00 0.00 0.00 0.00 0.00 0.00 0.00 0.00 0.00 0.00 0.00 0.00 0.00 0.00 0.00 0.00 0.00 0.00 0.00 0.00 0.00 0.00 0.01 0.02 0.02 0.02 0.02 0.04
0.11 0.11 0.12 0.08 0.03 0.02 0.02 0.03 0.03 0.02 0.02 0.02 0.02 0.02 0.01 0.01 0.00 0.00 0.00 0.00 0.00 0.00 0.00 0.00 0.00 0.00 0.00 0.00 0.00 0.00 0.00 0.00 0.00 0.00 0.00 0.00 0.01 0.01 0.02 0.02 0.02 0.03 0.05 0.14
0.09 0.09 0.08 0.06 0.03 0.03 0.02 0.02 0.02 0.02 0.02 0.02 0.02 0.02 0.02 0.01 0.00 0.00 0.00 0.00 0.00 0.00 0.00 0.00 0.00 0.00 0.00 0.00 0.00 0.00 0.00 0.00 0.00 0.00 0.00 0.00 0.01 0.02 0.02 0.02 0.03 0.05 0.07 0.20
0.04 0.05 0.06 0.05 0.03 0.04 0.02 0.02 0.01 0.01 0.02 0.02 0.02 0.02 0.02 0.01 0.01 0.00 0.00 0.00 0.00 0.00 0.00 0.00 0.00 0.00 0.00 0.00 0.00 0.00 0.00 0.00 0.00 0.00 0.00 0.01 0.02 0.02 0.03 0.03 0.03 0.04 0.06 0.12

GEFSCGP_prec_meanprecacc_132.txt.gz
Total_Precipitation_Accumulation
0.18 0.18 0.13 0.07 0.05 0.04 0.02 0.02 0.01 0.00 0.00 0.00 0.00 0.00 0.00 0.00 0.00 0.00 0.00 0.00 0.00 0.00 0.00 0.00 0.00 0.00 0.00 0.00 0.00 0.00 0.00 0.00 0.01 0.02 0.02 0.03 0.02 0.01 0.01 0.01 0.01 0.01 0.01 0.01
0.27 0.18 0.07 0.03 0.03 0.03 0.03 0.03 0.02 0.01 0.00 0.00 0.00 0.00 0.00 0.00 0.00 0.00 0.00 0.00 0.00 0.00 0.00 0.00 0.00 0.00 0.00 0.00 0.00 0.00 0.00 0.00 0.00 0.01 0.01 0.01 0.01 0.01 0.01 0.01 0.01 0.01 0.01 0.01
0.23 0.12 0.04 0.04 0.05 0.05 0.04 0.03 0.02 0.02 0.01 0.01 0.01 0.00 0.00 0.00 0.00 0.00 0.00 0.00 0.00 0.00 0.00 0.00 0.00 0.00 0.00 0.00 0.00 0.00 0.00 0.00 0.00 0.00 0.01 0.01 0.01 0.01 0.01 0.01 0.01 0.01 0.01 0.01
0.18 0.09 0.06 0.07 0.07 0.06 0.05 0.02 0.01 0.02 0.04 0.03 0.01 0.01 0.00 0.00 0.00 0.00 0.00 0.00 0.00 0.00 0.00 0.00 0.00 0.00 0.00 0.00 0.00 0.00 0.00 0.00 0.00 0.00 0.01 0.01 0.01 0.01 0.00 0.00 0.01 0.01 0.01 0.00
0.21 0.11 0.09 0.09 0.07 0.05 0.05 0.02 0.02 0.03 0.05 0.06 0.03 0.02 0.00 0.00 0.00 0.00 0.00 0.00 0.00 0.00 0.00 0.00 0.00 0.00 0.00 0.00 0.00 0.00 0.00 0.00 0.00 0.00 0.01 0.01 0.01 0.00 0.00 0.00 0.01 0.01 0.01 0.01
0.17 0.10 0.11 0.09 0.06 0.06 0.06 0.08 0.09 0.09 0.14 0.21 0.06 0.02 0.00 0.00 0.00 0.00 0.00 0.00 0.00 0.00 0.00 0.00 0.00 0.00 0.00 0.00 0.00 0.00 0.00 0.00 0.00 0.00 0.01 0.01 0.01 0.00 0.00 0.01 0.01 0.01 0.01 0.01
0.28 0.13 0.10 0.09 0.12 0.13 0.19 0.28 0.44 0.46 0.42 0.24 0.03 0.01 0.00 0.00 0.00 0.00 0.00 0.00 0.00 0.00 0.00 0.00 0.00 0.00 0.00 0.00 0.00 0.00 0.00 0.00 0.00 0.00 0.01 0.01 0.01 0.01 0.01 0.01 0.01 0.01 0.02 0.01
0.35 0.20 0.09 0.08 0.11 0.15 0.19 0.29 0.37 0.31 0.17 0.04 0.00 0.01 0.00 0.00 0.00 0.00 0.00 0.00 0.00 0.00 0.00 0.00 0.00 0.00 0.00 0.00 0.00 0.00 0.00 0.00 0.00 0.00 0.01 0.01 0.01 0.01 0.01 0.01 0.02 0.02 0.03 0.03
0.34 0.21 0.07 0.05 0.05 0.06 0.11 0.17 0.18 0.19 0.11 0.04 0.01 0.00 0.00 0.00 0.00 0.00 0.00 0.00 0.00 0.00 0.00 0.00 0.00 0.00 0.00 0.00 0.00 0.00 0.00 0.00 0.00 0.00 0.00 0.01 0.01 0.01 0.01 0.01 0.02 0.03 0.03 0.02
0.33 0.26 0.12 0.07 0.08 0.09 0.09 0.11 0.20 0.35 0.30 0.12 0.03 0.00 0.00 0.00 0.00 0.00 0.00 0.00 0.00 0.00 0.00 0.00 0.00 0.00 0.00 0.00 0.00 0.00 0.00 0.00 0.00 0.00 0.00 0.00 0.00 0.00 0.01 0.01 0.02 0.02 0.02 0.02
0.30 0.33 0.19 0.16 0.17 0.14 0.13 0.17 0.27 0.34 0.27 0.14 0.05 0.01 0.00 0.00 0.00 0.00 0.00 0.00 0.00 0.00 0.00 0.00 0.00 0.00 0.00 0.00 0.00 0.00 0.00 0.00 0.00 0.00 0.00 0.00 0.00 0.00 0.01 0.01 0.02 0.02 0.02 0.02
0.28 0.37 0.26 0.17 0.15 0.12 0.13 0.15 0.18 0.27 0.24 0.12 0.06 0.01 0.00 0.00 0.00 0.00 0.00 0.00 0.00 0.00 0.00 0.00 0.00 0.00 0.00 0.00 0.00 0.00 0.00 0.00 0.00 0.00 0.00 0.00 0.00 0.00 0.01 0.01 0.01 0.01 0.02 0.01
0.38 0.52 0.43 0.31 0.23 0.22 0.27 0.22 0.17 0.15 0.12 0.09 0.06 0.01 0.00 0.00 0.00 0.00 0.00 0.00 0.00 0.00 0.00 0.00 0.00 0.00 0.00 0.00 0.00 0.00 0.00 0.00 0.00 0.00 0.00 0.00 0.00 0.00 0.01 0.01 0.01 0.01 0.02 0.02
0.43 0.52 0.38 0.32 0.23 0.20 0.24 0.22 0.20 0.21 0.20 0.10 0.03 0.01 0.00 0.00 0.00 0.00 0.00 0.00 0.00 0.00 0.00 0.00 0.00 0.00 0.00 0.00 0.00 0.00 0.00 0.00 0.00 0.00 0.00 0.00 0.00 0.00 0.00 0.00 0.00 0.01 0.01 0.03
0.47 0.43 0.20 0.10 0.07 0.06 0.08 0.09 0.12 0.15 0.15 0.08 0.01 0.00 0.00 0.00 0.00 0.00 0.00 0.00 0.00 0.00 0.00 0.00 0.00 0.00 0.00 0.00 0.00 0.00 0.00 0.00 0.00 0.00 0.00 0.00 0.00 0.00 0.00 0.00 0.00 0.01 0.01 0.03
0.51 0.44 0.18 0.09 0.06 0.07 0.06 0.04 0.04 0.05 0.05 0.04 0.01 0.00 0.00 0.00 0.00 0.00 0.00 0.00 0.00 0.00 0.00 0.00 0.00 0.00 0.00 0.00 0.00 0.00 0.00 0.00 0.00 0.00 0.00 0.00 0.00 0.00 0.00 0.00 0.01 0.01 0.01 0.03
0.48 0.45 0.29 0.15 0.07 0.15 0.15 0.04 0.02 0.02 0.02 0.01 0.01 0.00 0.00 0.00 0.00 0.00 0.00 0.01 0.01 0.00 0.00 0.00 0.00 0.00 0.00 0.00 0.00 0.00 0.00 0.00 0.00 0.00 0.00 0.00 0.00 0.00 0.00 0.00 0.01 0.01 0.01 0.03
0.32 0.37 0.40 0.22 0.22 0.37 0.14 0.02 0.01 0.01 0.01 0.01 0.01 0.00 0.00 0.00 0.00 0.00 0.00 0.01 0.01 0.00 0.00 0.00 0.00 0.00 0.00 0.00 0.00 0.00 0.00 0.00 0.00 0.00 0.00 0.00 0.00 0.00 0.00 0.01 0.01 0.01 0.01 0.02
0.16 0.28 0.46 0.37 0.30 0.20 0.05 0.02 0.02 0.02 0.02 0.02 0.01 0.01 0.00 0.00 0.00 0.00 0.01 0.01 0.00 0.00 0.00 0.00 0.00 0.00 0.00 0.00 0.00 0.00 0.00 0.00 0.00 0.00 0.00 0.00 0.00 0.00 0.01 0.01 0.01 0.01 0.01 0.02
0.15 0.23 0.45 0.41 0.29 0.13 0.04 0.02 0.02 0.03 0.04 0.03 0.02 0.01 0.00 0.00 0.02 0.02 0.03 0.01 0.00 0.00 0.00 0.00 0.00 0.00 0.00 0.00 0.00 0.00 0.00 0.00 0.00 0.00 0.00 0.00 0.00 0.00 0.01 0.01 0.01 0.02 0.02 0.02
0.33 0.42 0.45 0.34 0.21 0.08 0.04 0.03 0.03 0.06 0.06 0.03 0.02 0.01 0.01 0.01 0.03 0.02 0.01 0.00 0.00 0.00 0.00 0.00 0.00 0.00 0.00 0.00 0.00 0.00 0.00 0.00 0.00 0.00 0.00 0.00 0.00 0.00 0.01 0.01 0.01 0.01 0.01 0.02
0.35 0.42 0.35 0.25 0.18 0.08 0.04 0.04 0.07 0.07 0.03 0.02 0.01 0.01 0.01 0.01 0.01 0.00 0.00 0.00 0.00 0.00 0.00 0.00 0.00 0.00 0.00 0.00 0.00 0.00 0.00 0.00 0.00 0.00 0.00 0.00 0.00 0.01 0.01 0.01 0.02 0.02 0.02 0.02
0.24 0.30 0.29 0.18 0.09 0.05 0.05 0.06 0.06 0.04 0.03 0.02 0.02 0.01 0.01 0.01 0.00 0.00 0.00 0.00 0.00 0.00 0.00 0.00 0.00 0.00 0.00 0.00 0.00 0.00 0.00 0.00 0.00 0.00 0.00 0.00 0.00 0.01 0.01 0.02 0.02 0.02 0.03 0.04
0.15 0.15 0.17 0.12 0.05 0.04 0.03 0.04 0.05 0.04 0.03 0.02 0.02 0.02 0.02 0.01 0.00 0.00 0.00 0.00 0.00 0.00 0.00 0.00 0.00 0.00 0.00 0.00 0.00 0.00 0.00 0.00 0.00 0.00 0.00 0.00 0.01 0.01 0.02 0.02 0.03 0.03 0.05 0.14
0.13 0.13 0.12 0.09 0.06 0.05 0.04 0.04 0.04 0.03 0.03 0.02 0.02 0.03 0.02 0.01 0.01 0.00 0.00 0.00 0.00 0.00 0.00 0.00 0.00 0.00 0.00 0.00 0.00 0.00 0.00 0.00 0.00 0.00 0.00 0.00 0.01 0.02 0.02 0.02 0.03 0.05 0.07 0.20
0.06 0.08 0.09 0.08 0.06 0.06 0.04 0.03 0.03 0.02 0.02 0.02 0.02 0.03 0.03 0.02 0.01 0.01 0.00 0.00 0.00 0.00 0.00 0.00 0.00 0.00 0.00 0.00 0.00 0.00 0.00 0.00 0.00 0.00 0.00 0.01 0.02 0.02 0.03 0.03 0.03 0.04 0.06 0.12

GEFSCGP_prec_meanprecacc_138.txt.gz
Total_Precipitation_Accumulation
0.28 0.27 0.21 0.12 0.08 0.07 0.04 0.04 0.03 0.01 0.01 0.02 0.02 0.01 0.00 0.00 0.00 0.00 0.00 0.00 0.00 0.00 0.00 0.00 0.00 0.00 0.00 0.00 0.00 0.00 0.00 0.00 0.01 0.02 0.03 0.03 0.02 0.02 0.01 0.01 0.01 0.01 0.01 0.01
0.41 0.28 0.11 0.05 0.04 0.05 0.08 0.08 0.05 0.02 0.01 0.02 0.01 0.01 0.00 0.00 0.00 0.00 0.00 0.00 0.00 0.00 0.00 0.00 0.00 0.00 0.00 0.00 0.00 0.00 0.00 0.01 0.01 0.01 0.01 0.01 0.01 0.01 0.01 0.01 0.01 0.01 0.01 0.01
0.34 0.19 0.07 0.07 0.08 0.09 0.09 0.08 0.06 0.05 0.03 0.03 0.02 0.02 0.00 0.00 0.00 0.00 0.00 0.00 0.00 0.00 0.00 0.00 0.00 0.00 0.00 0.00 0.00 0.00 0.00 0.00 0.01 0.01 0.01 0.01 0.02 0.02 0.01 0.01 0.01 0.01 0.01 0.01
0.25 0.14 0.11 0.12 0.11 0.10 0.09 0.04 0.04 0.06 0.11 0.09 0.05 0.04 0.01 0.00 0.00 0.00 0.00 0.00 0.00 0.00 0.00 0.00 0.00 0.00 0.00 0.00 0.00 0.00 0.00 0.00 0.00 0.01 0.01 0.01 0.01 0.01 0.01 0.01 0.01 0.01 0.01 0.01
0.29 0.16 0.16 0.16 0.11 0.09 0.07 0.04 0.05 0.08 0.14 0.16 0.09 0.08 0.02 0.00 0.00 0.00 0.00 0.00 0.00 0.00 0.00 0.00 0.00 0.00 0.00 0.00 0.00 0.00 0.00 0.00 0.00 0.01 0.01 0.01 0.01 0.00 0.00 0.00 0.01 0.01 0.01 0.01
0.24 0.15 0.18 0.16 0.09 0.10 0.10 0.12 0.15 0.17 0.27 0.38 0.13 0.08 0.03 0.00 0.00 0.00 0.00 0.00 0.00 0.00 0.00 0.00 0.00 0.00 0.00 0.00 0.00 0.00 0.00 0.00 0.00 0.01 0.01 0.01 0.01 0.00 0.00 0.01 0.01 0.01 0.01 0.01
0.35 0.19 0.16 0.16 0.20 0.21 0.27 0.39 0.63 0.66 0.64 0.37 0.05 0.05 0.02 0.00 0.00 0.00 0.00 0.00 0.00 0.00 0.00 0.00 0.00 0.00 0.00 0.00 0.00 0.00 0.00 0.00 0.00 0.00 0.01 0.01 0.01 0.01 0.01 0.01 0.01 0.01 0.02 0.01
0.42 0.27 0.16 0.16 0.20 0.25 0.30 0.41 0.53 0.46 0.27 0.08 0.01 0.02 0.00 0.00 0.00 0.00 0.00 0.00 0.00 0.00 0.00 0.00 0.00 0.00 0.00 0.00 0.00 0.00 0.00 0.00 0.00 0.00 0.01 0.01 0.01 0.01 0.01 0.01 0.02 0.02 0.03 0.03
0.42 0.26 0.11 0.10 0.11 0.13 0.19 0.28 0.27 0.29 0.19 0.09 0.04 0.01 0.00 0.00 0.00 0.00 0.00 0.00 0.00 0.00 0.00 0.00 0.00 0.00 0.00 0.00 0.00 0.00 0.00 0.00 0.00 0.00 0.00 0.01 0.01 0.01 0.01 0.01 0.02 0.03 0.03 0.03
0.42 0.33 0.16 0.14 0.16 0.18 0.16 0.19 0.32 0.49 0.42 0.19 0.06 0.01 0.00 0.00 0.00 0.00 0.00 0.00 0.00 0.00 0.00 0.00 0.00 0.00 0.00 0.00 0.00 0.00 0.00 0.00 0.00 0.00 0.00 0.00 0.01 0.00 0.01 0.01 0.02 0.02 0.02 0.02
0.38 0.42 0.26 0.24 0.29 0.25 0.21 0.27 0.42 0.51 0.38 0.21 0.09 0.02 0.01 0.01 0.00 0.00 0.00 0.00 0.00 0.00 0.00 0.00 0.00 0.00 0.00 0.00 0.00 0.00 0.00 0.00 0.00 0.00 0.00 0.00 0.00 0.00 0.01 0.01 0.02 0.02 0.02 0.02
0.33 0.46 0.34 0.24 0.23 0.20 0.22 0.25 0.31 0.44 0.37 0.17 0.10 0.03 0.01 0.01 0.01 0.00 0.00 0.00 0.00 0.00 0.00 0.00 0.00 0.00 0.00 0.00 0.00 0.00 0.00 0.00 0.00 0.00 0.00 0.00 0.00 0.00 0.01 0.01 0.01 0.01 0.02 0.02
0.48 0.63 0.53 0.38 0.33 0.32 0.39 0.34 0.29 0.26 0.21 0.15 0.10 0.03 0.01 0.01 0.01 0.01 0.00 0.00 0.00 0.00 0.00 0.00 0.00 0.00 0.00 0.00 0.00 0.00 0.00 0.00 0.00 0.00 0.00 0.00 0.00 0.00 0.01 0.01 0.01 0.01 0.02 0.02
0.56 0.64 0.48 0.43 0.34 0.30 0.34 0.31 0.29 0.32 0.30 0.16 0.05 0.03 0.03 0.02 0.01 0.01 0.00 0.00 0.00 0.00 0.00 0.00 0.00 0.00 0.00 0.00 0.00 0.00 0.00 0.00 0.00 0.00 0.00 0.00 0.00 0.00 0.00 0.01 0.01 0.01 0.02 0.03
0.56 0.51 0.24 0.14 0.11 0.10 0.12 0.13 0.17 0.23 0.21 0.12 0.03 0.02 0.04 0.04 0.02 0.01 0.01 0.00 0.00 0.00 0.00 0.00 0.00 0.00 0.00 0.00 0.00 0.00 0.00 0.00 0.00 0.00 0.00 0.00 0.00 0.00 0.00 0.00 0.00 0.01 0.01 0.03
0.59 0.50 0.22 0.11 0.08 0.09 0.08 0.06 0.07 0.08 0.08 0.05 0.01 0.01 0.01 0.02 0.02 0.01 0.01 0.01 0.01 0.01 0.00 0.00 0.00 0.00 0.00 0.00 0.00 0.00 0.00 0.00 0.00 0.00 0.00 0.00 0.00 0.00 0.01 0.00 0.01 0.01 0.01 0.03
0.54 0.51 0.33 0.18 0.09 0.18 0.19 0.07 0.04 0.04 0.03 0.02 0.02 0.01 0.01 0.01 0.01 0.01 0.01 0.01 0.01 0.01 0.01 0.01 0.00 0.00 0.00 0.00 0.00 0.00 0.00 0.00 0.00 0.00 0.00 0.00 0.00 0.00 0.01 0.01 0.01 0.01 0.02 0.03
0.35 0.42 0.46 0.27 0.25 0.42 0.19 0.04 0.02 0.03 0.04 0.03 0.02 0.02 0.01 0.01 0.00 0.01 0.01 0.02 0.01 0.01 0.01 0.01 0.00 0.00 0.00 0.00 0.00 0.00 0.00 0.00 0.00 0.00 0.00 0.00 0.00 0.00 0.01 0.01 0.01 0.01 0.02 0.02
0.19 0.33 0.54 0.44 0.36 0.23 0.07 0.03 0.04 0.05 0.06 0.04 0.03 0.02 0.01 0.01 0.01 0.01 0.02 0.02 0.01 0.00 0.01 0.01 0.00 0.00 0.00 0.00 0.00 0.00 0.00 0.00 0.00 0.00 0.00 0.00 0.00 0.00 0.01 0.01 0.01 0.02 0.02 0.02
0.19 0.28 0.53 0.48 0.35 0.17 0.07 0.04 0.03 0.05 0.08 0.05 0.03 0.03 0.01 0.01 0.03 0.03 0.03 0.01 0.00 0.00 0.01 0.01 0.00 0.00 0.00 0.00 0.00 0.00 0.00 0.00 0.00 0.00 0.00 0.00 0.00 0.01 0.01 0.01 0.01 0.02 0.02 0.02
0.40 0.50 0.53 0.39 0.25 0.11 0.06 0.05 0.05 0.10 0.10 0.04 0.03 0.03 0.02 0.03 0.04 0.03 0.01 0.00 0.00 0.00 0.00 0.01 0.00 0.00 0.00 0.00 0.00 0.00 0.00 0.00 0.00 0.00 0.00 0.00 0.00 0.01 0.01 0.01 0.01 0.02 0.02 0.02
0.39 0.48 0.41 0.31 0.25 0.13 0.08 0.08 0.12 0.12 0.05 0.03 0.02 0.02 0.02 0.01 0.01 0.00 0.00 0.00 0.00 0.00 0.00 0.00 0.00 0.00 0.00 0.00 0.00 0.00 0.00 0.00 0.00 0.00 0.00 0.00 0.01 0.01 0.01 0.01 0.02 0.02 0.02 0.02
0.27 0.34 0.34 0.24 0.15 0.10 0.09 0.11 0.09 0.07 0.05 0.03 0.02 0.02 0.01 0.01 0.00 0.00 0.00 0.00 0.00 0.00 0.00 0.00 0.01 0.00 0.00 0.00 0.00 0.00 0.00 0.00 0.00 0.00 0.00 0.00 0.01 0.01 0.01 0.02 0.02 0.03 0.03 0.05
0.17 0.17 0.20 0.15 0.07 0.07 0.06 0.07 0.07 0.05 0.03 0.03 0.02 0.02 0.02 0.01 0.00 0.00 0.00 0.00 0.00 0.00 0.00 0.00 0.01 0.01 0.00 0.00 0.00 0.00 0.00 0.00 0.00 0.00 0.00 0.01 0.01 0.01 0.02 0.02 0.03 0.04 0.06 0.14
0.13 0.14 0.14 0.11 0.07 0.06 0.05 0.05 0.05 0.04 0.03 0.02 0.02 0.03 0.03 0.02 0.01 0.00 0.00 0.00 0.00 0.00 0.00 0.00 0.01 0.01 0.00 0.00 0.00 0.00 0.00 0.00 0.00 0.00 0.01 0.01 0.01 0.02 0.03 0.03 0.03 0.05 0.07 0.20
0.06 0.08 0.10 0.09 0.07 0.08 0.05 0.04 0.03 0.03 0.03 0.03 0.03 0.03 0.03 0.02 0.01 0.01 0.00 0.00 0.00 0.00 0.00 0.00 0.00 0.01 0.01 0.00 0.00 0.00 0.00 0.00 0.00 0.00 0.01 0.01 0.02 0.03 0.03 0.03 0.03 0.04 0.07 0.12

GEFSCGP_prec_meanprecacc_144.txt.gz
Total_Precipitation_Accumulation
0.33 0.36 0.29 0.19 0.14 0.10 0.07 0.07 0.06 0.03 0.01 0.03 0.04 0.02 0.01 0.00 0.00 0.00 0.00 0.00 0.00 0.00 0.00 0.00 0.00 0.00 0.01 0.02 0.02 0.03 0.03 0.03 0.04 0.04 0.04 0.03 0.03 0.02 0.01 0.01 0.01 0.01 0.01 0.01
0.46 0.35 0.17 0.10 0.09 0.09 0.11 0.11 0.08 0.04 0.02 0.05 0.04 0.02 0.00 0.00 0.00 0.00 0.00 0.00 0.00 0.00 0.00 0.00 0.00 0.00 0.00 0.01 0.02 0.02 0.03 0.03 0.03 0.03 0.02 0.01 0.01 0.01 0.01 0.01 0.01 0.01 0.01 0.01
0.39 0.23 0.10 0.13 0.14 0.14 0.12 0.11 0.08 0.06 0.05 0.06 0.07 0.05 0.01 0.00 0.00 0.00 0.00 0.00 0.00 0.00 0.00 0.00 0.00 0.00 0.00 0.01 0.01 0.02 0.02 0.02 0.02 0.02 0.02 0.02 0.02 0.02 0.01 0.01 0.01 0.01 0.01 0.01
0.27 0.15 0.14 0.19 0.20 0.15 0.12 0.05 0.05 0.08 0.14 0.13 0.09 0.10 0.02 0.00 0.00 0.00 0.00 0.00 0.00 0.00 0.00 0.00 0.00 0.00 0.00 0.00 0.01 0.02 0.02 0.02 0.02 0.02 0.02 0.01 0.01 0.01 0.01 0.01 0.01 0.01 0.01 0.01
0.32 0.18 0.19 0.22 0.18 0.15 0.11 0.05 0.07 0.11 0.18 0.22 0.14 0.15 0.04 0.00 0.00 0.00 0.00 0.00 0.00 0.00 0.00 0.00 0.00 0.00 0.00 0.00 0.01 0.01 0.02 0.02 0.02 0.02 0.01 0.01 0.01 0.00 0.00 0.00 0.01 0.01 0.01 0.01
0.28 0.17 0.22 0.19 0.13 0.16 0.15 0.16 0.20 0.22 0.35 0.49 0.18 0.13 0.05 0.00 0.00 0.00 0.00 0.00 0.00 0.00 0.00 0.00 0.00 0.00 0.00 0.00 0.01 0.01 0.01 0.02 0.03 0.03 0.02 0.01 0.01 0.01 0.00 0.01 0.01 0.01 0.01 0.01
0.41 0.23 0.19 0.19 0.25 0.29 0.35 0.49 0.77 0.79 0.76 0.45 0.07 0.09 0.05 0.00 0.00 0.00 0.00 0.00 0.00 0.00 0.00 0.00 0.00 0.00 0.00 0.00 0.01 0.01 0.01 0.02 0.02 0.03 0.02 0.02 0.01 0.01 0.01 0.01 0.01 0.01 0.02 0.01
0.47 0.31 0.20 0.19 0.26 0.34 0.40 0.51 0.65 0.57 0.33 0.10 0.02 0.04 0.02 0.00 0.00 0.00 0.00 0.00 0.00 0.00 0.00 0.00 0.00 0.00 0.00 0.00 0.01 0.01 0.01 0.01 0.01 0.02 0.03 0.02 0.02 0.01 0.01 0.01 0.02 0.02 0.03 0.03
0.45 0.28 0.14 0.13 0.14 0.19 0.29 0.37 0.34 0.37 0.24 0.12 0.06 0.02 0.01 0.01 0.00 0.00 0.00 0.00 0.00 0.00 0.00 0.00 0.00 0.00 0.00 0.00 0.00 0.00 0.01 0.02 0.02 0.01 0.02 0.03 0.02 0.01 0.01 0.01 0.02 0.03 0.03 0.03
0.46 0.36 0.18 0.16 0.20 0.23 0.25 0.27 0.40 0.62 0.52 0.23 0.08 0.02 0.02 0.03 0.02 0.01 0.01 0.00 0.00 0.00 0.00 0.00 0.00 0.00 0.00 0.00 0.00 0.00 0.01 0.01 0.01 0.02 0.02 0.02 0.02 0.02 0.01 0.02 0.02 0.02 0.02 0.02
0.42 0.47 0.29 0.27 0.34 0.32 0.30 0.37 0.52 0.61 0.47 0.27 0.12 0.04 0.05 0.04 0.02 0.02 0.02 0.01 0.00 0.00 0.00 0.00 0.00 0.00 0.00 0.00 0.01 0.01 0.01 0.01 0.01 0.01 0.02 0.02 0.01 0.01 0.01 0.02 0.02 0.02 0.02 0.02
0.38 0.51 0.39 0.27 0.27 0.24 0.29 0.33 0.40 0.54 0.45 0.23 0.14 0.06 0.04 0.03 0.02 0.02 0.03 0.02 0.01 0.00 0.00 0.00 0.00 0.00 0.00 0.00 0.01 0.01 0.01 0.01 0.01 0.01 0.01 0.01 0.02 0.02 0.02 0.02 0.01 0.01 0.02 0.02
0.57 0.74 0.62 0.44 0.39 0.38 0.47 0.42 0.38 0.35 0.27 0.19 0.14 0.05 0.03 0.03 0.02 0.02 0.02 0.02 0.01 0.01 0.00 0.00 0.00 0.00 0.00 0.00 0.00 0.00 0.00 0.00 0.00 0.01 0.01 0.01 0.02 0.02 0.02 0.02 0.01 0.02 0.02 0.02
0.66 0.74 0.56 0.51 0.41 0.36 0.38 0.35 0.35 0.40 0.40 0.21 0.07 0.04 0.05 0.04 0.03 0.03 0.02 0.02 0.02 0.01 0.00 0.00 0.00 0.00 0.00 0.00 0.00 0.00 0.00 0.00 0.00 0.01 0.01 0.01 0.01 0.01 0.01 0.01 0.02 0.02 0.02 0.03
0.62 0.58 0.29 0.17 0.15 0.15 0.15 0.15 0.20 0.27 0.26 0.17 0.04 0.03 0.06 0.06 0.05 0.04 0.03 0.03 0.02 0.01 0.01 0.00 0.00 0.00 0.00 0.00 0.00 0.00 0.00 0.00 0.00 0.00 0.01 0.01 0.01 0.01 0.01 0.01 0.01 0.02 0.02 0.03
0.62 0.53 0.25 0.14 0.10 0.13 0.12 0.07 0.08 0.10 0.09 0.08 0.03 0.02 0.02 0.03 0.04 0.04 0.04 0.04 0.04 0.02 0.01 0.01 0.00 0.00 0.00 0.00 0.00 0.00 0.00 0.00 0.00 0.00 0.00 0.00 0.01 0.01 0.01 0.01 0.01 0.01 0.02 0.03
0.56 0.53 0.36 0.20 0.11 0.22 0.23 0.09 0.06 0.05 0.05 0.05 0.06 0.05 0.02 0.01 0.02 0.03 0.05 0.05 0.05 0.04 0.02 0.01 0.01 0.00 0.00 0.00 0.00 0.00 0.00 0.00 0.00 0.00 0.00 0.00 0.01 0.01 0.01 0.01 0.01 0.02 0.02 0.03
0.36 0.44 0.50 0.30 0.29 0.47 0.23 0.07 0.05 0.06 0.07 0.07 0.08 0.06 0.03 0.01 0.01 0.03 0.04 0.05 0.05 0.04 0.03 0.02 0.01 0.01 0.00 0.00 0.00 0.00 0.00 0.00 0.00 0.00 0.00 0.00 0.00 0.01 0.01 0.01 0.01 0.02 0.02 0.03
0.20 0.35 0.58 0.49 0.41 0.26 0.10 0.06 0.08 0.09 0.10 0.08 0.08 0.06 0.04 0.02 0.02 0.03 0.04 0.04 0.03 0.02 0.03 0.02 0.01 0.01 0.00 0.00 0.00 0.00 0.00 0.00 0.00 0.00 0.00 0.00 0.00 0.01 0.01 0.01 0.02 0.02 0.02 0.02
0.21 0.31 0.58 0.54 0.41 0.20 0.10 0.06 0.07 0.09 0.13 0.08 0.07 0.08 0.06 0.04 0.05 0.05 0.04 0.03 0.02 0.01 0.02 0.02 0.01 0.01 0.00 0.00 0.00 0.00 0.00 0.00 0.00 0.00 0.00 0.00 0.00 0.01 0.01 0.02 0.02 0.02 0.02 0.02
0.43 0.55 0.59 0.43 0.30 0.13 0.09 0.07 0.08 0.15 0.17 0.08 0.06 0.07 0.06 0.06 0.06 0.04 0.02 0.02 0.02 0.01 0.01 0.01 0.01 0.01 0.01 0.00 0.00 0.00 0.00 0.00 0.00 0.00 0.00 0.00 0.01 0.01 0.01 0.01 0.02 0.02 0.02 0.02
0.42 0.52 0.44 0.34 0.30 0.17 0.10 0.10 0.16 0.17 0.10 0.06 0.05 0.05 0.04 0.03 0.03 0.01 0.01 0.01 0.02 0.01 0.01 0.01 0.01 0.01 0.01 0.01 0.00 0.00 0.01 0.00 0.00 0.00 0.00 0.00 0.01 0.01 0.01 0.02 0.02 0.02 0.03 0.03
0.29 0.36 0.36 0.27 0.18 0.12 0.12 0.13 0.13 0.10 0.08 0.05 0.05 0.04 0.03 0.02 0.02 0.01 0.01 0.01 0.02 0.02 0.01 0.01 0.01 0.01 0.01 0.01 0.01 0.01 0.01 0.01 0.01 0.00 0.00 0.01 0.01 0.01 0.01 0.02 0.03 0.03 0.04 0.05
0.18 0.18 0.22 0.18 0.10 0.09 0.08 0.09 0.09 0.08 0.06 0.05 0.04 0.04 0.03 0.02 0.01 0.01 0.01 0.01 0.01 0.02 0.01 0.01 0.01 0.02 0.01 0.01 0.01 0.01 0.01 0.01 0.01 0.01 0.01 0.01 0.01 0.02 0.02 0.03 0.03 0.04 0.06 0.15
0.14 0.15 0.15 0.14 0.09 0.07 0.06 0.06 0.06 0.07 0.05 0.04 0.04 0.04 0.04 0.03 0.01 0.01 0.01 0.01 0.01 0.02 0.01 0.01 0.01 0.02 0.02 0.02 0.02 0.02 0.01 0.01 0.01 0.02 0.01 0.01 0.02 0.03 0.03 0.03 0.03 0.05 0.07 0.21
0.07 0.09 0.11 0.10 0.08 0.08 0.06 0.05 0.04 0.04 0.05 0.04 0.04 0.04 0.04 0.03 0.02 0.01 0.01 0.01 0.01 0.01 0.01 0.01 0.01 0.02 0.02 0.02 0.03 0.02 0.02 0.02 0.02 0.02 0.01 0.02 0.03 0.03 0.04 0.04 0.04 0.05 0.07 0.13

GEFSCGP_prec_meanprecacc_150.txt.gz
Total_Precipitation_Accumulation
0.35 0.40 0.35 0.24 0.18 0.14 0.10 0.11 0.09 0.05 0.04 0.08 0.08 0.05 0.01 0.01 0.02 0.02 0.01 0.01 0.01 0.01 0.00 0.01 0.04 0.04 0.05 0.07 0.08 0.10 0.11 0.10 0.11 0.10 0.09 0.07 0.05 0.03 0.02 0.02 0.01 0.01 0.01 0.01
0.48 0.37 0.19 0.13 0.11 0.12 0.15 0.16 0.11 0.06 0.05 0.10 0.09 0.04 0.01 0.01 0.01 0.01 0.01 0.01 0.01 0.01 0.01 0.01 0.02 0.04 0.05 0.06 0.07 0.07 0.09 0.09 0.10 0.08 0.06 0.05 0.04 0.03 0.02 0.01 0.01 0.01 0.01 0.01
0.40 0.24 0.11 0.17 0.19 0.17 0.16 0.14 0.10 0.08 0.07 0.10 0.11 0.07 0.01 0.00 0.00 0.01 0.01 0.01 0.01 0.01 0.01 0.01 0.01 0.02 0.04 0.04 0.05 0.06 0.07 0.08 0.08 0.09 0.09 0.08 0.07 0.06 0.04 0.02 0.01 0.01 0.01 0.01
0.29 0.16 0.15 0.21 0.24 0.19 0.16 0.07 0.07 0.11 0.18 0.18 0.13 0.13 0.02 0.00 0.00 0.00 0.00 0.00 0.01 0.01 0.01 0.01 0.01 0.01 0.03 0.03 0.03 0.05 0.07 0.08 0.08 0.09 0.09 0.08 0.06 0.05 0.03 0.02 0.01 0.01 0.01 0.01
0.34 0.19 0.20 0.24 0.20 0.18 0.13 0.07 0.09 0.14 0.23 0.27 0.18 0.18 0.04 0.00 0.00 0.00 0.00 0.00 0.00 0.00 0.01 0.01 0.00 0.00 0.02 0.03 0.04 0.04 0.06 0.08 0.09 0.09 0.07 0.07 0.06 0.04 0.03 0.02 0.02 0.02 0.01 0.01
0.29 0.18 0.23 0.22 0.16 0.19 0.18 0.19 0.23 0.27 0.42 0.57 0.20 0.15 0.06 0.00 0.00 0.00 0.00 0.00 0.00 0.00 0.00 0.00 0.00 0.00 0.01 0.03 0.04 0.05 0.06 0.07 0.10 0.11 0.08 0.06 0.06 0.05 0.03 0.03 0.02 0.02 0.01 0.01
0.43 0.25 0.21 0.21 0.28 0.33 0.39 0.56 0.88 0.90 0.87 0.51 0.08 0.10 0.06 0.00 0.00 0.00 0.00 0.00 0.00 0.00 0.00 0.00 0.00 0.00 0.00 0.02 0.03 0.05 0.06 0.06 0.08 0.10 0.10 0.07 0.06 0.05 0.05 0.03 0.03 0.02 0.02 0.02
0.49 0.33 0.21 0.21 0.28 0.39 0.46 0.59 0.76 0.66 0.38 0.12 0.03 0.05 0.02 0.01 0.01 0.01 0.00 0.00 0.00 0.00 0.00 0.00 0.00 0.00 0.00 0.01 0.02 0.04 0.06 0.05 0.06 0.08 0.09 0.08 0.07 0.06 0.06 0.05 0.04 0.04 0.04 0.03
0.48 0.30 0.15 0.15 0.16 0.22 0.35 0.45 0.40 0.46 0.29 0.14 0.07 0.02 0.01 0.02 0.02 0.01 0.01 0.00 0.00 0.00 0.00 0.00 0.00 0.00 0.00 0.00 0.01 0.01 0.03 0.06 0.06 0.06 0.08 0.10 0.08 0.06 0.06 0.06 0.06 0.04 0.04 0.03
0.48 0.39 0.18 0.17 0.22 0.25 0.29 0.33 0.48 0.74 0.61 0.26 0.09 0.02 0.03 0.04 0.03 0.01 0.01 0.01 0.00 0.00 0.00 0.00 0.00 0.00 0.00 0.00 0.01 0.01 0.01 0.03 0.05 0.07 0.08 0.10 0.10 0.07 0.06 0.07 0.08 0.06 0.04 0.03
0.45 0.51 0.31 0.28 0.36 0.34 0.33 0.43 0.60 0.71 0.56 0.32 0.14 0.05 0.06 0.05 0.03 0.03 0.03 0.01 0.01 0.00 0.00 0.00 0.00 0.00 0.00 0.01 0.01 0.01 0.02 0.03 0.04 0.06 0.08 0.09 0.10 0.09 0.07 0.07 0.07 0.07 0.05 0.03
0.40 0.57 0.43 0.28 0.27 0.25 0.32 0.37 0.45 0.62 0.51 0.28 0.17 0.07 0.04 0.04 0.03 0.03 0.04 0.02 0.01 0.01 0.00 0.00 0.00 0.00 0.00 0.01 0.01 0.01 0.02 0.03 0.03 0.04 0.07 0.09 0.11 0.12 0.08 0.06 0.06 0.06 0.06 0.05
0.62 0.82 0.69 0.47 0.41 0.40 0.49 0.44 0.41 0.39 0.32 0.23 0.16 0.06 0.04 0.04 0.03 0.03 0.03 0.03 0.02 0.01 0.00 0.00 0.00 0.00 0.00 0.00 0.01 0.01 0.01 0.02 0.03 0.05 0.06 0.08 0.12 0.14 0.11 0.06 0.04 0.06 0.07 0.07
0.75 0.85 0.63 0.57 0.45 0.40 0.41 0.36 0.36 0.44 0.43 0.23 0.08 0.05 0.05 0.05 0.04 0.04 0.04 0.04 0.03 0.02 0.01 0.00 0.00 0.00 0.00 0.00 0.00 0.01 0.01 0.02 0.02 0.04 0.05 0.05 0.07 0.10 0.10 0.07 0.05 0.05 0.05 0.06
0.70 0.66 0.32 0.20 0.17 0.18 0.19 0.18 0.22 0.29 0.28 0.18 0.05 0.04 0.06 0.07 0.06 0.05 0.05 0.05 0.04 0.03 0.02 0.01 0.01 0.00 0.00 0.01 0.01 0.01 0.01 0.01 0.02 0.03 0.04 0.04 0.04 0.05 0.08 0.08 0.06 0.05 0.06 0.06
0.68 0.60 0.27 0.15 0.11 0.15 0.15 0.09 0.10 0.11 0.10 0.08 0.04 0.03 0.03 0.04 0.05 0.05 0.05 0.06 0.05 0.04 0.03 0.02 0.01 0.01 0.00 0.00 0.01 0.01 0.01 0.01 0.01 0.02 0.02 0.02 0.04 0.05 0.05 0.07 0.07 0.05 0.05 0.07
0.61 0.59 0.41 0.23 0.12 0.25 0.26 0.11 0.08 0.07 0.06 0.06 0.08 0.07 0.04 0.02 0.03 0.05 0.07 0.07 0.07 0.05 0.04 0.03 0.02 0.01 0.01 0.00 0.00 0.00 0.01 0.01 0.01 0.01 0.02 0.02 0.03 0.04 0.04 0.04 0.06 0.07 0.06 0.06
0.41 0.50 0.57 0.35 0.32 0.50 0.25 0.09 0.07 0.08 0.09 0.09 0.10 0.09 0.06 0.03 0.03 0.05 0.06 0.06 0.06 0.06 0.05 0.03 0.02 0.01 0.01 0.01 0.00 0.00 0.01 0.01 0.01 0.01 0.01 0.02 0.02 0.03 0.03 0.04 0.05 0.05 0.06 0.06
0.21 0.40 0.67 0.56 0.45 0.28 0.11 0.08 0.11 0.12 0.13 0.11 0.10 0.08 0.05 0.03 0.03 0.05 0.05 0.05 0.04 0.04 0.04 0.03 0.02 0.02 0.01 0.01 0.00 0.00 0.00 0.01 0.01 0.01 0.01 0.01 0.02 0.02 0.03 0.03 0.03 0.04 0.05 0.05
0.22 0.35 0.67 0.61 0.46 0.22 0.12 0.08 0.08 0.11 0.17 0.10 0.09 0.09 0.07 0.06 0.08 0.07 0.06 0.04 0.03 0.03 0.03 0.03 0.02 0.02 0.01 0.01 0.01 0.00 0.00 0.01 0.01 0.01 0.01 0.01 0.02 0.02 0.02 0.02 0.03 0.04 0.04 0.04
0.46 0.60 0.65 0.49 0.34 0.15 0.10 0.08 0.08 0.18 0.20 0.10 0.08 0.09 0.09 0.09 0.09 0.06 0.03 0.02 0.03 0.03 0.03 0.03 0.02 0.02 0.02 0.01 0.01 0.00 0.00 0.00 0.01 0.01 0.01 0.02 0.02 0.02 0.02 0.03 0.03 0.04 0.04 0.04
0.45 0.55 0.47 0.37 0.34 0.19 0.12 0.11 0.19 0.20 0.11 0.08 0.07 0.07 0.07 0.06 0.05 0.03 0.02 0.02 0.03 0.03 0.03 0.03 0.02 0.02 0.02 0.01 0.01 0.01 0.01 0.01 0.01 0.01 0.01 0.02 0.02 0.02 0.03 0.04 0.04 0.04 0.05 0.05
0.30 0.37 0.38 0.29 0.20 0.14 0.14 0.15 0.15 0.12 0.09 0.06 0.06 0.06 0.06 0.05 0.04 0.03 0.03 0.02 0.03 0.04 0.03 0.03 0.03 0.03 0.02 0.02 0.02 0.02 0.02 0.01 0.02 0.01 0.01 0.02 0.02 0.02 0.03 0.04 0.05 0.05 0.06 0.07
0.19 0.19 0.23 0.19 0.11 0.10 0.09 0.10 0.10 0.09 0.07 0.06 0.06 0.06 0.06 0.05 0.05 0.04 0.03 0.02 0.03 0.05 0.04 0.03 0.04 0.04 0.03 0.03 0.02 0.02 0.02 0.02 0.02 0.02 0.01 0.02 0.02 0.03 0.03 0.03 0.04 0.06 0.07 0.16
0.15 0.17 0.17 0.15 0.10 0.08 0.06 0.06 0.07 0.07 0.06 0.05 0.05 0.06 0.06 0.06 0.04 0.04 0.03 0.03 0.03 0.05 0.04 0.03 0.04 0.05 0.05 0.04 0.03 0.03 0.03 0.03 0.02 0.03 0.02 0.02 0.03 0.03 0.04 0.04 0.04 0.06 0.08 0.21
0.07 0.10 0.13 0.12 0.09 0.09 0.07 0.05 0.04 0.05 0.05 0.05 0.05 0.05 0.06 0.06 0.04 0.03 0.04 0.03 0.03 0.05 0.04 0.04 0.04 0.06 0.06 0.06 0.06 0.04 0.03 0.03 0.03 0.04 0.03 0.04 0.04 0.04 0.04 0.05 0.05 0.06 0.08 0.13

GEFSCGP_prec_meanprecacc_156.txt.gz
Total_Precipitation_Accumulation
0.37 0.45 0.42 0.29 0.20 0.16 0.13 0.15 0.12 0.06 0.05 0.11 0.11 0.06 0.02 0.01 0.02 0.02 0.02 0.01 0.01 0.01 0.01 0.01 0.05 0.09 0.12 0.13 0.15 0.18 0.22 0.22 0.25 0.24 0.23 0.19 0.16 0.13 0.11 0.11 0.09 0.07 0.04 0.02
0.50 0.40 0.22 0.17 0.14 0.14 0.18 0.20 0.14 0.08 0.06 0.12 0.12 0.06 0.02 0.02 0.02 0.02 0.01 0.01 0.01 0.01 0.01 0.01 0.03 0.07 0.11 0.13 0.14 0.14 0.19 0.20 0.21 0.20 0.16 0.15 0.14 0.12 0.09 0.08 0.07 0.07 0.06 0.03
0.41 0.25 0.14 0.21 0.23 0.19 0.17 0.16 0.12 0.10 0.09 0.12 0.13 0.08 0.02 0.01 0.01 0.01 0.01 0.01 0.01 0.01 0.01 0.01 0.02 0.04 0.09 0.12 0.12 0.13 0.16 0.19 0.20 0.21 0.21 0.20 0.19 0.19 0.15 0.09 0.07 0.05 0.04 0.04
0.29 0.17 0.17 0.24 0.28 0.22 0.17 0.08 0.08 0.12 0.21 0.21 0.16 0.16 0.02 0.00 0.00 0.00 0.00 0.01 0.01 0.01 0.01 0.01 0.01 0.02 0.06 0.09 0.10 0.12 0.17 0.20 0.20 0.22 0.22 0.19 0.18 0.17 0.13 0.09 0.06 0.05 0.04 0.03
0.34 0.19 0.21 0.25 0.23 0.21 0.16 0.07 0.10 0.15 0.26 0.31 0.19 0.21 0.05 0.00 0.00 0.00 0.00 0.00 0.00 0.01 0.01 0.01 0.00 0.01 0.04 0.08 0.11 0.12 0.15 0.21 0.23 0.23 0.20 0.18 0.17 0.15 0.12 0.11 0.10 0.07 0.06 0.04
0.30 0.19 0.24 0.22 0.17 0.21 0.21 0.20 0.25 0.28 0.46 0.61 0.21 0.16 0.06 0.01 0.01 0.00 0.00 0.00 0.00 0.00 0.00 0.01 0.00 0.01 0.02 0.08 0.12 0.14 0.15 0.17 0.23 0.28 0.23 0.17 0.14 0.16 0.16 0.13 0.11 0.09 0.07 0.05
0.44 0.26 0.22 0.21 0.29 0.34 0.42 0.61 0.93 0.95 0.92 0.53 0.08 0.11 0.07 0.02 0.01 0.01 0.01 0.00 0.00 0.00 0.00 0.00 0.00 0.01 0.02 0.05 0.10 0.13 0.16 0.15 0.17 0.25 0.26 0.20 0.14 0.13 0.16 0.17 0.13 0.10 0.08 0.05
0.50 0.33 0.22 0.22 0.29 0.40 0.48 0.63 0.81 0.71 0.41 0.13 0.03 0.05 0.03 0.02 0.01 0.01 0.01 0.01 0.01 0.00 0.00 0.00 0.01 0.02 0.01 0.03 0.08 0.12 0.15 0.15 0.13 0.17 0.24 0.23 0.20 0.14 0.13 0.15 0.17 0.15 0.10 0.07
0.49 0.31 0.15 0.15 0.17 0.23 0.37 0.48 0.44 0.53 0.34 0.18 0.09 0.03 0.02 0.02 0.02 0.01 0.01 0.01 0.01 0.01 0.00 0.00 0.01 0.01 0.01 0.02 0.05 0.07 0.12 0.15 0.14 0.13 0.18 0.24 0.25 0.18 0.12 0.12 0.14 0.16 0.14 0.11
0.50 0.41 0.19 0.17 0.23 0.27 0.30 0.35 0.52 0.81 0.67 0.29 0.11 0.03 0.04 0.05 0.03 0.02 0.01 0.01 0.01 0.01 0.01 0.01 0.01 0.01 0.01 0.01 0.04 0.06 0.08 0.11 0.13 0.13 0.15 0.20 0.24 0.22 0.16 0.13 0.13 0.12 0.12 0.12
0.46 0.53 0.31 0.29 0.37 0.36 0.35 0.45 0.63 0.76 0.60 0.36 0.16 0.07 0.08 0.06 0.04 0.05 0.04 0.02 0.02 0.01 0.01 0.01 0.01 0.01 0.01 0.01 0.04 0.06 0.08 0.10 0.13 0.13 0.13 0.17 0.21 0.24 0.20 0.15 0.13 0.12 0.11 0.10
0.42 0.61 0.45 0.28 0.28 0.27 0.33 0.38 0.48 0.67 0.56 0.30 0.20 0.08 0.06 0.05 0.04 0.05 0.05 0.04 0.02 0.02 0.01 0.01 0.01 0.01 0.01 0.02 0.03 0.06 0.06 0.09 0.11 0.11 0.12 0.14 0.18 0.25 0.25 0.17 0.11 0.11 0.11 0.11
0.66 0.88 0.73 0.48 0.42 0.41 0.50 0.46 0.43 0.43 0.38 0.27 0.19 0.07 0.04 0.04 0.04 0.04 0.04 0.04 0.03 0.02 0.01 0.01 0.01 0.01 0.02 0.02 0.02 0.06 0.05 0.06 0.08 0.12 0.11 0.12 0.17 0.22 0.27 0.25 0.14 0.10 0.10 0.11
0.85 0.96 0.68 0.59 0.46 0.42 0.43 0.37 0.38 0.48 0.50 0.26 0.09 0.05 0.06 0.05 0.04 0.05 0.05 0.05 0.05 0.03 0.02 0.01 0.01 0.01 0.02 0.02 0.02 0.04 0.05 0.05 0.05 0.09 0.12 0.10 0.12 0.15 0.20 0.26 0.22 0.14 0.09 0.09
0.77 0.74 0.34 0.21 0.18 0.20 0.21 0.18 0.23 0.32 0.30 0.21 0.06 0.04 0.07 0.07 0.06 0.06 0.06 0.06 0.05 0.04 0.03 0.02 0.01 0.01 0.01 0.02 0.02 0.03 0.04 0.04 0.04 0.06 0.09 0.09 0.08 0.10 0.15 0.21 0.23 0.20 0.14 0.09
0.71 0.65 0.30 0.17 0.11 0.16 0.16 0.10 0.11 0.12 0.11 0.10 0.05 0.03 0.03 0.04 0.05 0.05 0.06 0.06 0.06 0.06 0.04 0.03 0.02 0.01 0.01 0.01 0.02 0.02 0.03 0.03 0.03 0.04 0.05 0.07 0.08 0.09 0.11 0.15 0.21 0.22 0.19 0.16
0.64 0.63 0.46 0.25 0.13 0.26 0.29 0.12 0.09 0.09 0.08 0.08 0.09 0.08 0.04 0.02 0.03 0.05 0.07 0.07 0.08 0.07 0.06 0.04 0.03 0.02 0.01 0.01 0.01 0.01 0.02 0.02 0.02 0.02 0.03 0.06 0.07 0.08 0.09 0.09 0.14 0.20 0.20 0.19
0.44 0.54 0.64 0.39 0.34 0.54 0.27 0.10 0.08 0.09 0.11 0.11 0.11 0.10 0.06 0.03 0.03 0.05 0.07 0.08 0.07 0.07 0.06 0.05 0.03 0.02 0.02 0.01 0.01 0.01 0.01 0.02 0.02 0.02 0.03 0.04 0.06 0.06 0.08 0.09 0.11 0.13 0.17 0.19
0.23 0.45 0.74 0.61 0.49 0.30 0.12 0.08 0.12 0.15 0.15 0.13 0.11 0.09 0.06 0.03 0.03 0.06 0.06 0.05 0.05 0.05 0.05 0.05 0.04 0.03 0.02 0.02 0.01 0.01 0.01 0.01 0.02 0.02 0.03 0.03 0.04 0.05 0.07 0.08 0.09 0.11 0.13 0.15
0.25 0.40 0.75 0.67 0.50 0.24 0.13 0.08 0.10 0.13 0.19 0.12 0.10 0.10 0.08 0.06 0.08 0.08 0.06 0.04 0.03 0.03 0.04 0.04 0.03 0.03 0.02 0.02 0.02 0.02 0.01 0.01 0.01 0.01 0.02 0.03 0.04 0.04 0.05 0.06 0.07 0.09 0.11 0.12
0.48 0.65 0.72 0.53 0.38 0.17 0.11 0.09 0.10 0.20 0.24 0.12 0.10 0.10 0.09 0.09 0.09 0.07 0.05 0.04 0.04 0.03 0.03 0.03 0.03 0.03 0.03 0.02 0.03 0.03 0.02 0.01 0.01 0.01 0.02 0.03 0.03 0.03 0.04 0.06 0.07 0.09 0.11 0.11
0.46 0.57 0.49 0.39 0.38 0.22 0.12 0.12 0.20 0.22 0.13 0.09 0.08 0.08 0.08 0.07 0.06 0.04 0.04 0.05 0.04 0.04 0.03 0.04 0.03 0.03 0.03 0.03 0.03 0.03 0.03 0.01 0.02 0.02 0.02 0.03 0.03 0.04 0.05 0.07 0.08 0.09 0.11 0.12
0.31 0.39 0.40 0.31 0.22 0.15 0.14 0.16 0.16 0.13 0.11 0.07 0.06 0.06 0.06 0.06 0.06 0.05 0.05 0.05 0.05 0.04 0.04 0.04 0.04 0.04 0.03 0.03 0.03 0.04 0.04 0.03 0.03 0.03 0.03 0.03 0.04 0.05 0.06 0.06 0.08 0.09 0.11 0.14
0.19 0.19 0.24 0.21 0.13 0.11 0.10 0.10 0.11 0.10 0.09 0.06 0.06 0.07 0.06 0.06 0.06 0.06 0.05 0.05 0.05 0.05 0.04 0.04 0.05 0.06 0.05 0.05 0.05 0.04 0.05 0.05 0.04 0.04 0.03 0.04 0.05 0.06 0.07 0.07 0.07 0.09 0.11 0.21
0.16 0.18 0.18 0.17 0.11 0.09 0.07 0.07 0.07 0.08 0.07 0.05 0.05 0.06 0.07 0.06 0.05 0.06 0.06 0.06 0.06 0.06 0.05 0.04 0.05 0.06 0.08 0.07 0.07 0.06 0.06 0.06 0.05 0.05 0.05 0.06 0.06 0.08 0.09 0.09 0.08 0.09 0.10 0.23
0.08 0.11 0.14 0.13 0.09 0.10 0.07 0.05 0.05 0.05 0.06 0.05 0.05 0.05 0.06 0.06 0.06 0.05 0.06 0.07 0.07 0.07 0.05 0.05 0.06 0.07 0.09 0.10 0.10 0.08 0.07 0.06 0.05 0.07 0.07 0.08 0.09 0.09 0.09 0.11 0.12 0.13 0.13 0.16

GEFSCGP_prec_meanprecacc_162.txt.gz
Total_Precipitation_Accumulation
0.40 0.49 0.46 0.34 0.24 0.19 0.16 0.18 0.15 0.08 0.07 0.14 0.14 0.07 0.03 0.02 0.03 0.03 0.02 0.02 0.03 0.03 0.02 0.02 0.06 0.10 0.14 0.15 0.18 0.24 0.36 0.38 0.42 0.44 0.44 0.42 0.41 0.44 0.40 0.33 0.32 0.28 0.18 0.11
0.51 0.42 0.25 0.19 0.16 0.17 0.20 0.22 0.17 0.11 0.09 0.15 0.14 0.07 0.03 0.02 0.03 0.02 0.02 0.02 0.02 0.02 0.02 0.03 0.04 0.08 0.13 0.15 0.16 0.18 0.31 0.38 0.40 0.39 0.36 0.34 0.34 0.37 0.40 0.33 0.29 0.29 0.24 0.16
0.43 0.26 0.15 0.22 0.26 0.22 0.19 0.17 0.13 0.13 0.12 0.14 0.15 0.10 0.02 0.01 0.01 0.01 0.02 0.02 0.02 0.02 0.02 0.02 0.03 0.05 0.10 0.14 0.14 0.17 0.24 0.34 0.38 0.40 0.44 0.43 0.43 0.46 0.47 0.40 0.31 0.25 0.24 0.21
0.31 0.18 0.18 0.26 0.30 0.25 0.19 0.09 0.09 0.14 0.24 0.24 0.18 0.18 0.03 0.01 0.01 0.01 0.01 0.01 0.01 0.01 0.02 0.01 0.01 0.03 0.07 0.11 0.14 0.16 0.23 0.31 0.37 0.41 0.46 0.45 0.42 0.40 0.41 0.38 0.32 0.25 0.20 0.21
0.36 0.20 0.22 0.26 0.24 0.24 0.18 0.08 0.10 0.16 0.28 0.34 0.22 0.23 0.05 0.01 0.01 0.01 0.01 0.01 0.01 0.01 0.01 0.01 0.01 0.01 0.04 0.11 0.16 0.18 0.22 0.30 0.37 0.40 0.41 0.44 0.41 0.35 0.33 0.38 0.38 0.32 0.24 0.18
0.30 0.19 0.24 0.23 0.17 0.22 0.23 0.22 0.26 0.29 0.49 0.64 0.22 0.18 0.07 0.01 0.02 0.01 0.01 0.01 0.01 0.01 0.01 0.01 0.01 0.01 0.04 0.10 0.17 0.22 0.23 0.26 0.34 0.43 0.41 0.40 0.40 0.39 0.38 0.36 0.38 0.39 0.31 0.23
0.44 0.26 0.22 0.22 0.30 0.35 0.44 0.64 0.98 0.99 0.96 0.55 0.09 0.11 0.08 0.02 0.02 0.02 0.01 0.01 0.02 0.02 0.02 0.02 0.02 0.03 0.04 0.08 0.15 0.22 0.26 0.25 0.27 0.40 0.43 0.38 0.37 0.37 0.38 0.39 0.35 0.33 0.34 0.28
0.51 0.35 0.22 0.22 0.29 0.40 0.49 0.67 0.87 0.76 0.44 0.14 0.04 0.07 0.05 0.02 0.02 0.01 0.01 0.02 0.02 0.02 0.03 0.02 0.02 0.04 0.04 0.06 0.12 0.20 0.27 0.28 0.26 0.31 0.41 0.40 0.39 0.37 0.36 0.37 0.38 0.33 0.29 0.27
0.50 0.33 0.16 0.16 0.17 0.23 0.38 0.50 0.46 0.56 0.36 0.19 0.10 0.05 0.04 0.02 0.02 0.01 0.01 0.02 0.02 0.02 0.03 0.02 0.02 0.04 0.05 0.06 0.09 0.13 0.22 0.30 0.30 0.28 0.37 0.44 0.43 0.40 0.34 0.32 0.34 0.34 0.31 0.27
0.51 0.42 0.19 0.18 0.23 0.27 0.31 0.35 0.54 0.85 0.71 0.31 0.12 0.05 0.07 0.06 0.04 0.02 0.02 0.02 0.02 0.03 0.04 0.03 0.03 0.03 0.04 0.05 0.07 0.10 0.15 0.24 0.32 0.32 0.31 0.40 0.44 0.43 0.38 0.33 0.30 0.28 0.27 0.27
0.47 0.56 0.32 0.29 0.37 0.37 0.35 0.46 0.65 0.79 0.63 0.39 0.19 0.10 0.10 0.07 0.05 0.05 0.04 0.03 0.03 0.03 0.05 0.05 0.05 0.03 0.03 0.05 0.06 0.10 0.13 0.20 0.30 0.36 0.33 0.35 0.41 0.43 0.41 0.37 0.30 0.25 0.25 0.23
0.43 0.64 0.47 0.28 0.28 0.27 0.33 0.39 0.50 0.71 0.59 0.33 0.23 0.11 0.07 0.05 0.04 0.05 0.06 0.04 0.03 0.03 0.04 0.06 0.08 0.05 0.04 0.05 0.07 0.10 0.12 0.17 0.25 0.33 0.35 0.34 0.37 0.44 0.44 0.36 0.29 0.26 0.25 0.24
0.69 0.93 0.76 0.49 0.43 0.42 0.51 0.46 0.44 0.45 0.41 0.30 0.22 0.09 0.05 0.04 0.04 0.04 0.05 0.05 0.04 0.03 0.03 0.05 0.08 0.06 0.05 0.06 0.07 0.09 0.11 0.12 0.18 0.29 0.33 0.34 0.36 0.41 0.45 0.41 0.31 0.27 0.27 0.26
0.91 1.03 0.71 0.60 0.48 0.44 0.45 0.38 0.39 0.50 0.53 0.28 0.10 0.06 0.06 0.05 0.04 0.05 0.05 0.06 0.05 0.04 0.03 0.03 0.04 0.05 0.05 0.05 0.06 0.07 0.10 0.11 0.13 0.22 0.31 0.31 0.31 0.33 0.37 0.39 0.37 0.31 0.27 0.27
0.85 0.81 0.36 0.21 0.18 0.21 0.23 0.20 0.24 0.34 0.33 0.24 0.07 0.05 0.07 0.08 0.07 0.06 0.06 0.06 0.06 0.05 0.04 0.03 0.03 0.03 0.04 0.04 0.06 0.08 0.09 0.09 0.11 0.15 0.21 0.27 0.26 0.27 0.29 0.34 0.36 0.38 0.35 0.29
0.77 0.70 0.32 0.18 0.12 0.18 0.18 0.12 0.12 0.13 0.12 0.11 0.06 0.04 0.03 0.04 0.05 0.05 0.06 0.07 0.07 0.06 0.05 0.04 0.03 0.03 0.03 0.03 0.04 0.07 0.08 0.08 0.08 0.10 0.12 0.18 0.24 0.27 0.25 0.26 0.33 0.35 0.38 0.38
0.69 0.68 0.51 0.28 0.14 0.28 0.30 0.13 0.10 0.10 0.09 0.09 0.10 0.09 0.04 0.02 0.03 0.05 0.07 0.08 0.08 0.07 0.07 0.05 0.04 0.04 0.03 0.02 0.03 0.06 0.07 0.07 0.07 0.07 0.09 0.13 0.18 0.23 0.25 0.22 0.25 0.32 0.34 0.39
0.48 0.60 0.73 0.45 0.37 0.57 0.28 0.11 0.09 0.11 0.13 0.12 0.13 0.10 0.07 0.04 0.03 0.05 0.07 0.08 0.07 0.07 0.07 0.06 0.05 0.04 0.04 0.03 0.03 0.05 0.06 0.07 0.07 0.07 0.08 0.09 0.13 0.18 0.22 0.24 0.23 0.25 0.29 0.34
0.25 0.52 0.84 0.68 0.53 0.32 0.13 0.09 0.14 0.16 0.17 0.14 0.12 0.09 0.06 0.03 0.04 0.06 0.06 0.05 0.05 0.05 0.06 0.05 0.05 0.04 0.04 0.03 0.03 0.05 0.05 0.05 0.06 0.07 0.07 0.07 0.09 0.13 0.18 0.19 0.19 0.21 0.24 0.26
0.26 0.46 0.85 0.74 0.55 0.26 0.14 0.09 0.10 0.15 0.21 0.14 0.12 0.11 0.08 0.07 0.08 0.08 0.06 0.04 0.04 0.04 0.04 0.04 0.04 0.04 0.04 0.03 0.04 0.05 0.04 0.04 0.05 0.05 0.05 0.06 0.08 0.09 0.13 0.16 0.15 0.18 0.21 0.22
0.50 0.71 0.79 0.58 0.43 0.19 0.11 0.10 0.10 0.22 0.27 0.14 0.12 0.12 0.10 0.10 0.10 0.08 0.05 0.04 0.04 0.04 0.04 0.03 0.03 0.03 0.04 0.03 0.05 0.06 0.05 0.04 0.05 0.05 0.06 0.05 0.06 0.08 0.09 0.14 0.16 0.17 0.18 0.21
0.47 0.60 0.53 0.43 0.43 0.24 0.13 0.13 0.22 0.24 0.14 0.11 0.09 0.09 0.09 0.07 0.06 0.05 0.04 0.05 0.05 0.04 0.04 0.04 0.04 0.03 0.03 0.03 0.04 0.06 0.06 0.05 0.06 0.06 0.06 0.06 0.06 0.07 0.10 0.14 0.16 0.17 0.18 0.21
0.31 0.40 0.42 0.33 0.24 0.15 0.15 0.17 0.18 0.15 0.12 0.09 0.08 0.07 0.06 0.06 0.06 0.05 0.05 0.06 0.05 0.05 0.04 0.04 0.05 0.04 0.04 0.04 0.05 0.06 0.06 0.05 0.06 0.06 0.06 0.07 0.08 0.08 0.10 0.12 0.15 0.19 0.18 0.21
0.20 0.20 0.25 0.22 0.13 0.11 0.10 0.11 0.12 0.11 0.10 0.08 0.07 0.07 0.06 0.06 0.06 0.06 0.06 0.06 0.06 0.06 0.05 0.05 0.05 0.06 0.06 0.05 0.05 0.06 0.06 0.06 0.06 0.07 0.07 0.07 0.09 0.11 0.11 0.12 0.12 0.16 0.19 0.26
0.16 0.18 0.19 0.18 0.12 0.10 0.08 0.07 0.07 0.09 0.08 0.07 0.06 0.06 0.07 0.06 0.05 0.06 0.06 0.07 0.07 0.07 0.05 0.05 0.06 0.07 0.08 0.08 0.07 0.07 0.07 0.07 0.07 0.08 0.08 0.09 0.10 0.12 0.14 0.14 0.13 0.13 0.15 0.28
0.08 0.12 0.16 0.15 0.10 0.11 0.08 0.05 0.05 0.06 0.07 0.06 0.06 0.05 0.06 0.06 0.06 0.05 0.06 0.07 0.08 0.08 0.06 0.05 0.07 0.08 0.09 0.10 0.10 0.09 0.09 0.09 0.09 0.10 0.11 0.12 0.13 0.13 0.15 0.17 0.18 0.19 0.18 0.22

GEFSCGP_prec_meanprecacc_168.txt.gz
Total_Precipitation_Accumulation
0.41 0.51 0.48 0.35 0.24 0.19 0.16 0.18 0.16 0.09 0.08 0.16 0.15 0.08 0.03 0.02 0.03 0.04 0.03 0.02 0.04 0.04 0.02 0.03 0.07 0.13 0.17 0.20 0.23 0.31 0.45 0.50 0.55 0.59 0.63 0.63 0.59 0.61 0.60 0.58 0.56 0.50 0.46 0.41
0.53 0.44 0.26 0.20 0.17 0.17 0.21 0.23 0.18 0.11 0.10 0.17 0.15 0.08 0.03 0.02 0.03 0.03 0.02 0.02 0.02 0.02 0.03 0.04 0.06 0.10 0.16 0.19 0.20 0.24 0.38 0.49 0.53 0.54 0.55 0.54 0.53 0.55 0.59 0.55 0.56 0.56 0.52 0.50
0.44 0.27 0.16 0.23 0.26 0.23 0.20 0.18 0.14 0.13 0.13 0.16 0.16 0.10 0.03 0.01 0.01 0.01 0.02 0.02 0.02 0.02 0.03 0.03 0.04 0.06 0.12 0.17 0.18 0.21 0.31 0.44 0.50 0.54 0.65 0.68 0.69 0.71 0.70 0.66 0.58 0.54 0.54 0.53
0.32 0.18 0.18 0.26 0.31 0.26 0.21 0.10 0.10 0.15 0.26 0.26 0.19 0.19 0.03 0.01 0.01 0.01 0.01 0.02 0.02 0.02 0.02 0.02 0.03 0.04 0.08 0.13 0.17 0.20 0.30 0.42 0.49 0.55 0.64 0.68 0.66 0.66 0.64 0.60 0.57 0.52 0.49 0.52
0.36 0.20 0.22 0.26 0.24 0.24 0.18 0.09 0.11 0.18 0.30 0.35 0.23 0.25 0.06 0.01 0.01 0.01 0.01 0.01 0.01 0.01 0.02 0.02 0.02 0.02 0.05 0.12 0.18 0.21 0.28 0.41 0.51 0.58 0.59 0.63 0.61 0.57 0.56 0.62 0.64 0.61 0.53 0.48
0.31 0.19 0.24 0.23 0.18 0.22 0.23 0.22 0.26 0.30 0.50 0.66 0.24 0.21 0.10 0.04 0.03 0.01 0.01 0.01 0.02 0.02 0.02 0.02 0.02 0.03 0.05 0.12 0.20 0.25 0.28 0.35 0.49 0.60 0.62 0.60 0.58 0.57 0.59 0.61 0.65 0.70 0.64 0.53
0.45 0.26 0.22 0.22 0.30 0.35 0.44 0.65 0.99 1.00 0.98 0.56 0.10 0.14 0.12 0.04 0.02 0.02 0.01 0.02 0.02 0.03 0.03 0.03 0.04 0.05 0.06 0.10 0.17 0.25 0.30 0.32 0.39 0.56 0.62 0.58 0.57 0.55 0.53 0.57 0.60 0.62 0.66 0.61
0.52 0.35 0.22 0.22 0.29 0.41 0.50 0.68 0.90 0.78 0.45 0.14 0.05 0.09 0.09 0.04 0.03 0.02 0.02 0.02 0.02 0.03 0.03 0.03 0.04 0.06 0.07 0.09 0.15 0.23 0.32 0.36 0.37 0.45 0.57 0.59 0.61 0.60 0.53 0.52 0.57 0.58 0.58 0.58
0.51 0.33 0.16 0.16 0.17 0.23 0.38 0.50 0.46 0.58 0.37 0.20 0.11 0.07 0.06 0.03 0.03 0.02 0.01 0.02 0.02 0.03 0.03 0.04 0.04 0.06 0.07 0.09 0.14 0.18 0.28 0.39 0.40 0.39 0.50 0.60 0.65 0.64 0.55 0.49 0.51 0.54 0.53 0.53
0.52 0.44 0.20 0.18 0.23 0.27 0.31 0.36 0.54 0.87 0.74 0.33 0.12 0.07 0.09 0.07 0.04 0.03 0.02 0.02 0.03 0.04 0.05 0.05 0.06 0.06 0.07 0.08 0.12 0.16 0.21 0.33 0.44 0.42 0.44 0.55 0.61 0.65 0.62 0.55 0.50 0.48 0.47 0.50
0.49 0.59 0.34 0.29 0.37 0.37 0.35 0.46 0.65 0.80 0.65 0.42 0.20 0.12 0.13 0.08 0.05 0.06 0.05 0.04 0.05 0.05 0.06 0.07 0.08 0.07 0.08 0.09 0.10 0.16 0.20 0.29 0.42 0.49 0.46 0.50 0.60 0.63 0.63 0.59 0.50 0.44 0.44 0.44
0.44 0.68 0.50 0.29 0.28 0.27 0.34 0.39 0.51 0.73 0.61 0.36 0.25 0.12 0.09 0.07 0.05 0.06 0.06 0.05 0.04 0.05 0.06 0.08 0.11 0.10 0.09 0.11 0.12 0.15 0.18 0.24 0.34 0.47 0.54 0.52 0.58 0.67 0.67 0.55 0.46 0.43 0.42 0.42
0.72 1.00 0.81 0.51 0.44 0.42 0.52 0.47 0.44 0.46 0.45 0.34 0.26 0.10 0.07 0.05 0.04 0.04 0.05 0.05 0.04 0.04 0.05 0.06 0.10 0.11 0.10 0.11 0.14 0.16 0.16 0.17 0.25 0.39 0.50 0.58 0.62 0.67 0.70 0.63 0.50 0.43 0.42 0.41
0.97 1.12 0.76 0.63 0.48 0.45 0.46 0.39 0.39 0.52 0.58 0.31 0.12 0.07 0.06 0.06 0.05 0.05 0.05 0.06 0.06 0.04 0.04 0.05 0.06 0.08 0.09 0.09 0.13 0.15 0.15 0.15 0.17 0.28 0.42 0.50 0.59 0.63 0.65 0.63 0.58 0.50 0.40 0.39
0.92 0.91 0.39 0.22 0.19 0.22 0.25 0.21 0.25 0.35 0.34 0.25 0.08 0.05 0.08 0.08 0.07 0.06 0.06 0.06 0.06 0.05 0.05 0.04 0.04 0.06 0.07 0.07 0.10 0.13 0.14 0.13 0.14 0.19 0.30 0.42 0.48 0.55 0.61 0.61 0.58 0.57 0.50 0.39
0.83 0.78 0.36 0.20 0.13 0.18 0.19 0.13 0.13 0.14 0.13 0.12 0.06 0.04 0.03 0.04 0.05 0.05 0.06 0.07 0.07 0.06 0.06 0.05 0.04 0.05 0.05 0.05 0.07 0.11 0.13 0.12 0.12 0.15 0.19 0.30 0.40 0.49 0.56 0.58 0.59 0.56 0.54 0.49
0.74 0.75 0.59 0.33 0.15 0.30 0.33 0.15 0.11 0.11 0.10 0.10 0.11 0.09 0.04 0.02 0.03 0.05 0.07 0.08 0.08 0.08 0.07 0.06 0.05 0.05 0.05 0.04 0.05 0.09 0.12 0.13 0.12 0.11 0.14 0.22 0.29 0.38 0.47 0.53 0.56 0.57 0.52 0.51
0.52 0.66 0.83 0.53 0.42 0.61 0.29 0.11 0.10 0.12 0.14 0.14 0.14 0.11 0.07 0.04 0.03 0.06 0.07 0.08 0.07 0.07 0.07 0.07 0.06 0.05 0.05 0.04 0.04 0.08 0.10 0.12 0.12 0.11 0.11 0.15 0.20 0.27 0.37 0.49 0.53 0.53 0.51 0.49
0.27 0.57 0.96 0.79 0.60 0.34 0.13 0.10 0.15 0.17 0.18 0.16 0.14 0.11 0.07 0.04 0.04 0.06 0.06 0.06 0.05 0.05 0.06 0.06 0.06 0.06 0.05 0.04 0.05 0.08 0.08 0.10 0.10 0.10 0.10 0.11 0.13 0.19 0.28 0.38 0.47 0.48 0.49 0.45
0.28 0.51 0.96 0.85 0.63 0.29 0.14 0.10 0.11 0.15 0.22 0.15 0.13 0.12 0.09 0.07 0.09 0.08 0.07 0.05 0.04 0.04 0.04 0.05 0.05 0.05 0.05 0.05 0.06 0.08 0.08 0.08 0.08 0.08 0.08 0.08 0.10 0.13 0.19 0.27 0.35 0.42 0.44 0.43
0.53 0.77 0.87 0.64 0.49 0.21 0.12 0.10 0.10 0.23 0.28 0.15 0.14 0.13 0.12 0.11 0.11 0.08 0.05 0.04 0.04 0.04 0.04 0.04 0.04 0.04 0.05 0.05 0.07 0.11 0.08 0.07 0.07 0.08 0.08 0.07 0.08 0.10 0.14 0.21 0.28 0.37 0.42 0.42
0.47 0.62 0.55 0.46 0.50 0.27 0.14 0.14 0.23 0.26 0.16 0.13 0.11 0.11 0.10 0.09 0.07 0.05 0.05 0.05 0.05 0.04 0.04 0.05 0.05 0.04 0.04 0.05 0.08 0.11 0.09 0.08 0.09 0.08 0.08 0.08 0.07 0.09 0.13 0.19 0.26 0.32 0.38 0.42
0.31 0.41 0.43 0.35 0.25 0.16 0.16 0.18 0.20 0.17 0.14 0.12 0.10 0.09 0.08 0.08 0.07 0.06 0.05 0.06 0.05 0.05 0.05 0.05 0.06 0.05 0.05 0.06 0.09 0.11 0.10 0.09 0.09 0.09 0.09 0.09 0.09 0.10 0.12 0.16 0.22 0.31 0.33 0.39
0.20 0.20 0.26 0.23 0.13 0.11 0.11 0.12 0.13 0.14 0.13 0.11 0.10 0.10 0.08 0.08 0.07 0.06 0.06 0.06 0.06 0.07 0.06 0.06 0.06 0.07 0.07 0.08 0.10 0.10 0.11 0.11 0.09 0.09 0.09 0.10 0.12 0.14 0.14 0.15 0.18 0.26 0.30 0.38
0.17 0.19 0.20 0.19 0.12 0.10 0.08 0.08 0.08 0.10 0.10 0.09 0.09 0.08 0.08 0.08 0.06 0.06 0.06 0.07 0.08 0.08 0.06 0.06 0.07 0.08 0.10 0.11 0.11 0.11 0.12 0.12 0.11 0.11 0.11 0.12 0.14 0.16 0.17 0.18 0.18 0.21 0.23 0.35
0.08 0.12 0.17 0.16 0.11 0.12 0.09 0.06 0.05 0.06 0.07 0.08 0.08 0.07 0.07 0.07 0.06 0.05 0.06 0.07 0.09 0.09 0.06 0.06 0.08 0.09 0.11 0.13 0.13 0.13 0.14 0.13 0.13 0.14 0.14 0.16 0.17 0.18 0.19 0.22 0.24 0.28 0.26 0.30

GEFSCGP_prec_meanprecacc_174.txt.gz
Total_Precipitation_Accumulation
0.43 0.53 0.48 0.35 0.25 0.20 0.17 0.19 0.17 0.10 0.09 0.16 0.16 0.10 0.04 0.02 0.04 0.04 0.03 0.03 0.04 0.04 0.03 0.04 0.08 0.14 0.18 0.22 0.27 0.34 0.50 0.55 0.62 0.67 0.72 0.72 0.70 0.72 0.71 0.68 0.66 0.61 0.59 0.56
0.55 0.45 0.27 0.21 0.17 0.18 0.22 0.24 0.18 0.12 0.11 0.18 0.17 0.10 0.04 0.02 0.03 0.03 0.03 0.03 0.03 0.03 0.03 0.04 0.06 0.11 0.18 0.21 0.23 0.28 0.43 0.54 0.59 0.61 0.63 0.63 0.62 0.65 0.69 0.66 0.68 0.68 0.65 0.65
0.44 0.28 0.16 0.23 0.27 0.24 0.21 0.19 0.15 0.14 0.14 0.18 0.18 0.12 0.03 0.02 0.02 0.02 0.03 0.03 0.03 0.02 0.03 0.03 0.04 0.07 0.13 0.18 0.20 0.25 0.35 0.49 0.56 0.61 0.73 0.77 0.80 0.83 0.84 0.77 0.70 0.67 0.69 0.69
0.32 0.18 0.18 0.27 0.32 0.27 0.21 0.11 0.12 0.16 0.28 0.28 0.21 0.21 0.04 0.01 0.01 0.02 0.02 0.03 0.02 0.02 0.02 0.03 0.03 0.04 0.09 0.14 0.18 0.23 0.34 0.46 0.55 0.63 0.72 0.77 0.75 0.77 0.76 0.71 0.67 0.63 0.64 0.68
0.36 0.20 0.22 0.27 0.25 0.25 0.19 0.09 0.13 0.19 0.31 0.37 0.24 0.27 0.07 0.02 0.03 0.02 0.02 0.02 0.02 0.01 0.02 0.02 0.02 0.03 0.06 0.13 0.19 0.23 0.32 0.46 0.57 0.66 0.67 0.70 0.68 0.64 0.67 0.75 0.76 0.72 0.68 0.67
0.31 0.19 0.24 0.23 0.18 0.23 0.23 0.22 0.26 0.31 0.52 0.68 0.24 0.22 0.10 0.06 0.05 0.04 0.02 0.02 0.02 0.02 0.02 0.02 0.02 0.03 0.05 0.13 0.21 0.28 0.32 0.40 0.56 0.69 0.71 0.68 0.65 0.65 0.69 0.75 0.80 0.83 0.79 0.72
0.45 0.26 0.22 0.22 0.30 0.35 0.44 0.65 1.00 1.01 0.98 0.57 0.10 0.14 0.13 0.06 0.05 0.05 0.05 0.04 0.03 0.03 0.03 0.03 0.04 0.05 0.06 0.11 0.19 0.27 0.34 0.37 0.46 0.65 0.73 0.70 0.66 0.64 0.63 0.70 0.74 0.77 0.82 0.80
0.52 0.35 0.22 0.22 0.29 0.41 0.50 0.69 0.90 0.78 0.45 0.15 0.05 0.09 0.11 0.05 0.04 0.03 0.04 0.05 0.04 0.04 0.04 0.04 0.04 0.06 0.07 0.10 0.17 0.25 0.34 0.39 0.43 0.54 0.67 0.71 0.73 0.70 0.64 0.64 0.70 0.73 0.73 0.75
0.51 0.33 0.16 0.16 0.17 0.23 0.38 0.50 0.47 0.59 0.38 0.21 0.11 0.07 0.07 0.04 0.03 0.02 0.02 0.03 0.05 0.05 0.06 0.06 0.05 0.06 0.08 0.10 0.15 0.20 0.30 0.42 0.45 0.46 0.59 0.70 0.77 0.76 0.67 0.61 0.64 0.69 0.71 0.72
0.52 0.44 0.20 0.18 0.23 0.28 0.31 0.36 0.55 0.88 0.76 0.34 0.12 0.07 0.09 0.07 0.05 0.03 0.02 0.03 0.04 0.06 0.07 0.07 0.07 0.07 0.08 0.09 0.13 0.18 0.23 0.36 0.49 0.49 0.52 0.67 0.75 0.79 0.76 0.68 0.64 0.61 0.62 0.67
0.49 0.60 0.34 0.29 0.37 0.37 0.35 0.46 0.66 0.81 0.67 0.44 0.21 0.12 0.13 0.08 0.06 0.06 0.05 0.04 0.05 0.06 0.08 0.09 0.11 0.10 0.10 0.10 0.12 0.18 0.23 0.32 0.46 0.55 0.53 0.58 0.71 0.77 0.80 0.78 0.68 0.61 0.58 0.59
0.45 0.70 0.51 0.29 0.28 0.27 0.34 0.40 0.51 0.76 0.63 0.38 0.28 0.13 0.09 0.07 0.05 0.06 0.06 0.05 0.05 0.06 0.08 0.10 0.15 0.14 0.12 0.14 0.15 0.18 0.20 0.27 0.37 0.51 0.58 0.58 0.66 0.78 0.80 0.72 0.67 0.66 0.60 0.57
0.74 1.03 0.85 0.52 0.44 0.43 0.52 0.47 0.45 0.48 0.49 0.38 0.30 0.11 0.07 0.06 0.04 0.04 0.05 0.05 0.04 0.05 0.06 0.08 0.13 0.13 0.12 0.14 0.18 0.21 0.19 0.20 0.27 0.43 0.55 0.64 0.69 0.76 0.81 0.75 0.65 0.66 0.67 0.61
1.01 1.18 0.80 0.64 0.49 0.45 0.47 0.39 0.40 0.54 0.63 0.34 0.13 0.07 0.07 0.06 0.05 0.05 0.05 0.06 0.06 0.05 0.05 0.06 0.08 0.09 0.11 0.12 0.17 0.20 0.19 0.17 0.19 0.31 0.46 0.56 0.65 0.70 0.77 0.79 0.74 0.71 0.67 0.63
1.00 0.99 0.41 0.23 0.19 0.23 0.25 0.22 0.26 0.37 0.37 0.28 0.09 0.06 0.08 0.08 0.07 0.07 0.07 0.07 0.07 0.06 0.06 0.06 0.05 0.07 0.08 0.10 0.13 0.17 0.18 0.15 0.17 0.22 0.33 0.46 0.54 0.62 0.72 0.78 0.78 0.79 0.77 0.67
0.89 0.87 0.39 0.21 0.13 0.19 0.20 0.13 0.14 0.15 0.14 0.13 0.07 0.04 0.03 0.04 0.05 0.06 0.07 0.08 0.08 0.08 0.08 0.06 0.05 0.06 0.06 0.07 0.09 0.14 0.16 0.15 0.14 0.16 0.20 0.33 0.46 0.56 0.65 0.72 0.80 0.79 0.78 0.77
0.82 0.83 0.67 0.38 0.15 0.32 0.35 0.15 0.12 0.11 0.11 0.11 0.12 0.10 0.05 0.03 0.03 0.06 0.08 0.09 0.10 0.10 0.09 0.07 0.06 0.06 0.07 0.06 0.06 0.11 0.14 0.15 0.14 0.13 0.16 0.24 0.33 0.46 0.56 0.64 0.72 0.80 0.77 0.74
0.57 0.73 0.94 0.62 0.46 0.65 0.30 0.12 0.11 0.13 0.15 0.15 0.15 0.12 0.08 0.04 0.04 0.06 0.08 0.10 0.10 0.10 0.09 0.08 0.07 0.07 0.07 0.06 0.06 0.10 0.12 0.14 0.14 0.12 0.13 0.16 0.23 0.34 0.46 0.59 0.65 0.71 0.77 0.74
0.29 0.62 1.07 0.91 0.67 0.36 0.13 0.11 0.16 0.18 0.19 0.17 0.14 0.11 0.07 0.04 0.04 0.06 0.06 0.07 0.08 0.09 0.09 0.08 0.07 0.07 0.06 0.05 0.06 0.09 0.10 0.12 0.12 0.11 0.12 0.12 0.15 0.23 0.36 0.47 0.57 0.62 0.69 0.70
0.30 0.56 1.07 0.97 0.72 0.32 0.15 0.10 0.11 0.15 0.23 0.15 0.13 0.13 0.10 0.07 0.09 0.08 0.07 0.05 0.05 0.06 0.08 0.07 0.06 0.06 0.06 0.05 0.07 0.10 0.10 0.10 0.10 0.10 0.10 0.10 0.11 0.15 0.26 0.36 0.45 0.56 0.62 0.64
0.55 0.83 0.96 0.71 0.56 0.23 0.12 0.10 0.10 0.24 0.29 0.16 0.14 0.14 0.12 0.12 0.12 0.09 0.06 0.05 0.05 0.05 0.06 0.06 0.06 0.06 0.06 0.06 0.09 0.13 0.10 0.10 0.11 0.10 0.11 0.09 0.09 0.12 0.18 0.30 0.39 0.52 0.60 0.63
0.48 0.65 0.58 0.50 0.56 0.29 0.14 0.14 0.24 0.27 0.17 0.14 0.12 0.11 0.11 0.09 0.07 0.06 0.05 0.06 0.05 0.05 0.05 0.06 0.06 0.06 0.06 0.07 0.11 0.15 0.13 0.11 0.12 0.11 0.11 0.10 0.10 0.11 0.16 0.27 0.37 0.46 0.55 0.62
0.32 0.41 0.44 0.36 0.26 0.16 0.16 0.19 0.20 0.18 0.15 0.13 0.11 0.09 0.08 0.08 0.07 0.06 0.05 0.06 0.06 0.06 0.05 0.06 0.07 0.07 0.07 0.09 0.13 0.15 0.13 0.12 0.12 0.11 0.11 0.11 0.12 0.13 0.16 0.23 0.33 0.45 0.50 0.57
0.20 0.20 0.27 0.24 0.14 0.12 0.12 0.13 0.14 0.14 0.13 0.12 0.11 0.11 0.09 0.08 0.07 0.07 0.06 0.06 0.06 0.07 0.06 0.07 0.08 0.09 0.10 0.11 0.13 0.13 0.13 0.13 0.12 0.12 0.12 0.13 0.15 0.16 0.17 0.21 0.28 0.39 0.45 0.53
0.18 0.20 0.22 0.20 0.13 0.11 0.09 0.08 0.09 0.10 0.10 0.10 0.09 0.09 0.10 0.09 0.07 0.06 0.06 0.07 0.08 0.08 0.07 0.08 0.09 0.10 0.12 0.14 0.14 0.13 0.13 0.14 0.13 0.13 0.13 0.14 0.17 0.19 0.21 0.24 0.27 0.31 0.36 0.48
0.09 0.13 0.18 0.17 0.11 0.13 0.09 0.06 0.05 0.06 0.08 0.08 0.08 0.07 0.08 0.08 0.07 0.05 0.06 0.07 0.09 0.10 0.08 0.08 0.10 0.11 0.14 0.16 0.16 0.15 0.15 0.14 0.14 0.15 0.16 0.18 0.20 0.21 0.23 0.27 0.31 0.36 0.37 0.40

GEFSCGP_prec_meanprecacc_180.txt.gz
Total_Precipitation_Accumulation
0.43 0.53 0.48 0.35 0.25 0.20 0.17 0.20 0.18 0.11 0.09 0.18 0.16 0.10 0.04 0.02 0.04 0.04 0.03 0.03 0.04 0.04 0.03 0.04 0.09 0.15 0.20 0.24 0.28 0.36 0.52 0.57 0.64 0.71 0.77 0.81 0.78 0.79 0.76 0.73 0.71 0.67 0.66 0.63
0.55 0.45 0.27 0.21 0.17 0.18 0.22 0.25 0.20 0.13 0.12 0.19 0.18 0.10 0.04 0.02 0.03 0.03 0.03 0.03 0.03 0.04 0.04 0.05 0.08 0.13 0.19 0.23 0.24 0.30 0.45 0.56 0.61 0.64 0.67 0.69 0.72 0.73 0.75 0.71 0.72 0.73 0.71 0.71
0.44 0.28 0.16 0.23 0.27 0.24 0.22 0.20 0.17 0.16 0.16 0.20 0.20 0.12 0.03 0.02 0.02 0.03 0.03 0.04 0.04 0.03 0.04 0.05 0.06 0.08 0.15 0.20 0.22 0.26 0.37 0.51 0.58 0.64 0.77 0.81 0.88 0.94 0.91 0.83 0.75 0.72 0.74 0.75
0.32 0.18 0.18 0.27 0.32 0.27 0.22 0.11 0.12 0.17 0.29 0.30 0.22 0.22 0.05 0.03 0.03 0.03 0.03 0.04 0.03 0.03 0.04 0.04 0.05 0.07 0.12 0.16 0.20 0.25 0.37 0.50 0.58 0.66 0.77 0.82 0.81 0.85 0.85 0.77 0.72 0.68 0.69 0.73
0.36 0.20 0.22 0.27 0.25 0.25 0.19 0.09 0.13 0.20 0.32 0.37 0.24 0.28 0.09 0.05 0.05 0.04 0.03 0.04 0.03 0.03 0.03 0.04 0.04 0.05 0.09 0.15 0.21 0.25 0.35 0.50 0.62 0.69 0.71 0.76 0.74 0.70 0.74 0.81 0.81 0.77 0.73 0.73
0.31 0.19 0.24 0.23 0.18 0.23 0.23 0.22 0.26 0.31 0.52 0.68 0.24 0.22 0.12 0.08 0.08 0.06 0.04 0.03 0.04 0.04 0.03 0.04 0.04 0.04 0.07 0.15 0.23 0.30 0.35 0.45 0.61 0.73 0.76 0.73 0.71 0.70 0.75 0.81 0.85 0.88 0.84 0.77
0.45 0.26 0.22 0.22 0.30 0.35 0.44 0.65 1.00 1.01 0.98 0.57 0.10 0.15 0.15 0.07 0.05 0.06 0.05 0.04 0.04 0.05 0.05 0.05 0.06 0.07 0.08 0.14 0.21 0.30 0.36 0.40 0.51 0.69 0.78 0.75 0.72 0.70 0.68 0.74 0.79 0.82 0.86 0.84
0.52 0.35 0.22 0.22 0.29 0.41 0.50 0.69 0.91 0.79 0.45 0.15 0.05 0.10 0.11 0.06 0.04 0.03 0.04 0.05 0.04 0.04 0.05 0.06 0.07 0.09 0.09 0.11 0.18 0.27 0.37 0.41 0.47 0.59 0.71 0.76 0.78 0.76 0.70 0.68 0.74 0.77 0.77 0.78
0.51 0.33 0.16 0.16 0.17 0.23 0.39 0.50 0.47 0.59 0.39 0.21 0.11 0.07 0.07 0.04 0.03 0.02 0.02 0.03 0.05 0.05 0.06 0.08 0.08 0.09 0.09 0.11 0.17 0.22 0.31 0.44 0.48 0.51 0.64 0.75 0.81 0.81 0.72 0.67 0.70 0.74 0.76 0.78
0.53 0.45 0.20 0.18 0.23 0.28 0.31 0.36 0.55 0.89 0.76 0.34 0.12 0.07 0.09 0.07 0.05 0.03 0.02 0.03 0.05 0.06 0.07 0.08 0.10 0.10 0.10 0.10 0.14 0.20 0.24 0.38 0.51 0.51 0.57 0.72 0.79 0.83 0.81 0.74 0.71 0.69 0.69 0.74
0.49 0.61 0.35 0.29 0.37 0.37 0.35 0.46 0.66 0.82 0.68 0.45 0.22 0.13 0.13 0.08 0.06 0.06 0.05 0.04 0.05 0.06 0.08 0.10 0.14 0.15 0.14 0.12 0.14 0.20 0.24 0.34 0.48 0.58 0.56 0.63 0.75 0.80 0.85 0.83 0.75 0.69 0.67 0.68
0.45 0.71 0.51 0.29 0.28 0.27 0.34 0.40 0.52 0.77 0.64 0.39 0.30 0.14 0.09 0.07 0.05 0.06 0.06 0.05 0.05 0.06 0.08 0.12 0.19 0.19 0.17 0.17 0.17 0.20 0.21 0.28 0.39 0.53 0.61 0.60 0.69 0.81 0.84 0.77 0.73 0.74 0.69 0.67
0.74 1.06 0.87 0.53 0.44 0.43 0.52 0.48 0.46 0.49 0.51 0.40 0.32 0.12 0.07 0.06 0.04 0.05 0.05 0.06 0.05 0.05 0.06 0.09 0.16 0.18 0.17 0.17 0.20 0.22 0.20 0.21 0.28 0.45 0.57 0.66 0.72 0.79 0.85 0.80 0.72 0.74 0.75 0.71
1.06 1.23 0.82 0.65 0.49 0.46 0.47 0.40 0.41 0.56 0.67 0.36 0.13 0.07 0.07 0.06 0.05 0.05 0.05 0.07 0.06 0.05 0.06 0.07 0.09 0.12 0.14 0.15 0.19 0.22 0.22 0.20 0.21 0.33 0.48 0.58 0.67 0.74 0.80 0.83 0.81 0.78 0.75 0.74
1.08 1.07 0.44 0.23 0.19 0.23 0.26 0.23 0.26 0.39 0.38 0.30 0.09 0.06 0.08 0.08 0.08 0.08 0.08 0.08 0.08 0.07 0.07 0.06 0.06 0.08 0.11 0.12 0.16 0.20 0.21 0.19 0.19 0.23 0.34 0.48 0.57 0.66 0.76 0.82 0.86 0.88 0.87 0.77
0.98 0.96 0.43 0.23 0.13 0.19 0.20 0.14 0.14 0.16 0.15 0.13 0.07 0.05 0.03 0.04 0.06 0.07 0.08 0.09 0.10 0.09 0.08 0.07 0.06 0.07 0.08 0.09 0.12 0.17 0.21 0.19 0.17 0.19 0.22 0.35 0.48 0.60 0.70 0.77 0.86 0.90 0.91 0.89
0.90 0.92 0.76 0.42 0.16 0.34 0.37 0.16 0.12 0.12 0.11 0.12 0.13 0.11 0.06 0.03 0.04 0.07 0.09 0.11 0.12 0.11 0.10 0.08 0.07 0.07 0.07 0.07 0.09 0.15 0.19 0.20 0.18 0.17 0.19 0.26 0.35 0.49 0.60 0.69 0.79 0.91 0.91 0.89
0.63 0.80 1.05 0.71 0.50 0.68 0.31 0.12 0.11 0.13 0.15 0.15 0.16 0.12 0.08 0.06 0.05 0.08 0.11 0.13 0.11 0.11 0.10 0.09 0.07 0.07 0.07 0.06 0.08 0.13 0.16 0.18 0.19 0.17 0.17 0.20 0.26 0.36 0.50 0.65 0.73 0.82 0.91 0.89
0.33 0.69 1.20 1.04 0.75 0.39 0.13 0.11 0.16 0.18 0.19 0.17 0.15 0.11 0.07 0.04 0.04 0.07 0.08 0.10 0.11 0.10 0.10 0.08 0.07 0.07 0.06 0.06 0.07 0.10 0.12 0.15 0.16 0.16 0.16 0.16 0.18 0.27 0.41 0.53 0.65 0.73 0.83 0.86
0.34 0.64 1.22 1.11 0.81 0.35 0.15 0.10 0.11 0.15 0.23 0.15 0.14 0.13 0.10 0.07 0.09 0.09 0.08 0.08 0.09 0.08 0.09 0.08 0.07 0.07 0.06 0.06 0.08 0.10 0.11 0.12 0.13 0.14 0.13 0.13 0.15 0.19 0.31 0.43 0.54 0.67 0.75 0.81
0.59 0.91 1.08 0.81 0.64 0.26 0.13 0.10 0.11 0.25 0.30 0.17 0.15 0.14 0.13 0.13 0.13 0.10 0.07 0.07 0.08 0.08 0.08 0.08 0.07 0.07 0.07 0.07 0.10 0.13 0.11 0.11 0.14 0.14 0.13 0.11 0.12 0.15 0.22 0.36 0.49 0.65 0.74 0.79
0.50 0.67 0.62 0.54 0.63 0.32 0.14 0.14 0.25 0.28 0.17 0.15 0.13 0.12 0.11 0.10 0.08 0.06 0.06 0.07 0.07 0.07 0.08 0.09 0.09 0.07 0.07 0.08 0.12 0.16 0.14 0.13 0.14 0.13 0.13 0.12 0.11 0.13 0.19 0.34 0.47 0.59 0.71 0.79
0.33 0.42 0.45 0.38 0.28 0.16 0.16 0.19 0.20 0.18 0.16 0.14 0.12 0.10 0.09 0.09 0.07 0.06 0.06 0.06 0.06 0.07 0.07 0.09 0.11 0.09 0.08 0.10 0.14 0.16 0.15 0.14 0.14 0.14 0.13 0.13 0.13 0.14 0.19 0.29 0.43 0.59 0.65 0.74
0.21 0.21 0.29 0.26 0.15 0.12 0.12 0.14 0.15 0.15 0.14 0.12 0.12 0.11 0.10 0.09 0.08 0.07 0.06 0.06 0.07 0.08 0.08 0.09 0.10 0.11 0.12 0.13 0.15 0.16 0.15 0.16 0.15 0.14 0.13 0.14 0.16 0.18 0.21 0.27 0.37 0.51 0.60 0.69
0.19 0.21 0.22 0.21 0.13 0.12 0.10 0.09 0.09 0.10 0.10 0.10 0.09 0.10 0.10 0.09 0.07 0.07 0.07 0.07 0.08 0.09 0.08 0.09 0.11 0.12 0.14 0.16 0.16 0.15 0.15 0.16 0.15 0.15 0.15 0.16 0.19 0.21 0.25 0.31 0.37 0.42 0.49 0.62
0.09 0.13 0.18 0.18 0.12 0.14 0.10 0.06 0.05 0.06 0.08 0.08 0.08 0.07 0.08 0.08 0.07 0.05 0.06 0.08 0.09 0.10 0.09 0.10 0.11 0.12 0.15 0.18 0.17 0.16 0.17 0.17 0.17 0.17 0.18 0.20 0.22 0.24 0.27 0.34 0.41 0.46 0.48 0.52

GEFSCGP_prec_meanprecacc_186.txt.gz
Total_Precipitation_Accumulation
0.43 0.53 0.48 0.35 0.25 0.20 0.17 0.20 0.18 0.11 0.09 0.18 0.17 0.10 0.04 0.02 0.04 0.04 0.03 0.03 0.04 0.04 0.03 0.04 0.09 0.15 0.20 0.24 0.29 0.38 0.54 0.60 0.68 0.76 0.84 0.90 0.83 0.84 0.83 0.80 0.77 0.71 0.70 0.68
0.55 0.45 0.27 0.21 0.17 0.18 0.22 0.25 0.20 0.14 0.12 0.19 0.18 0.10 0.04 0.02 0.03 0.03 0.03 0.03 0.04 0.04 0.04 0.05 0.08 0.13 0.19 0.23 0.25 0.31 0.47 0.58 0.64 0.68 0.70 0.74 0.76 0.78 0.81 0.78 0.81 0.80 0.76 0.76
0.44 0.28 0.16 0.23 0.27 0.24 0.22 0.20 0.17 0.16 0.16 0.20 0.20 0.13 0.04 0.02 0.02 0.03 0.04 0.05 0.05 0.04 0.04 0.05 0.06 0.08 0.15 0.21 0.22 0.27 0.39 0.53 0.61 0.67 0.80 0.84 0.90 0.97 0.96 0.90 0.82 0.80 0.81 0.80
0.32 0.18 0.18 0.27 0.32 0.27 0.22 0.11 0.12 0.17 0.30 0.30 0.22 0.23 0.07 0.03 0.04 0.04 0.04 0.04 0.04 0.04 0.04 0.05 0.05 0.07 0.12 0.17 0.20 0.25 0.39 0.52 0.60 0.68 0.78 0.84 0.83 0.87 0.88 0.82 0.79 0.74 0.75 0.79
0.36 0.20 0.22 0.27 0.25 0.25 0.19 0.09 0.13 0.20 0.32 0.38 0.24 0.29 0.11 0.05 0.06 0.07 0.07 0.07 0.06 0.05 0.04 0.04 0.05 0.06 0.10 0.17 0.22 0.26 0.36 0.53 0.64 0.71 0.73 0.77 0.76 0.72 0.76 0.86 0.86 0.83 0.79 0.79
0.31 0.19 0.24 0.23 0.18 0.23 0.23 0.22 0.26 0.31 0.52 0.68 0.24 0.23 0.13 0.09 0.10 0.09 0.08 0.08 0.08 0.07 0.05 0.05 0.05 0.06 0.09 0.19 0.26 0.32 0.36 0.47 0.63 0.75 0.77 0.74 0.73 0.72 0.76 0.85 0.91 0.93 0.89 0.83
0.45 0.26 0.22 0.22 0.30 0.35 0.44 0.65 1.00 1.01 0.98 0.57 0.10 0.15 0.15 0.09 0.07 0.08 0.09 0.08 0.07 0.07 0.06 0.06 0.07 0.09 0.10 0.17 0.26 0.33 0.39 0.42 0.52 0.71 0.79 0.76 0.74 0.71 0.70 0.77 0.83 0.87 0.91 0.89
0.52 0.35 0.22 0.22 0.29 0.41 0.50 0.69 0.91 0.79 0.45 0.15 0.05 0.10 0.11 0.06 0.04 0.05 0.06 0.07 0.06 0.05 0.06 0.07 0.08 0.11 0.12 0.15 0.23 0.33 0.41 0.44 0.49 0.60 0.73 0.77 0.80 0.78 0.72 0.71 0.78 0.81 0.81 0.82
0.51 0.33 0.16 0.16 0.17 0.23 0.39 0.50 0.47 0.60 0.39 0.21 0.11 0.07 0.07 0.04 0.03 0.02 0.02 0.04 0.07 0.07 0.08 0.09 0.10 0.11 0.12 0.15 0.21 0.27 0.36 0.47 0.50 0.53 0.67 0.77 0.83 0.83 0.74 0.69 0.73 0.79 0.80 0.82
0.53 0.45 0.20 0.18 0.23 0.28 0.31 0.36 0.55 0.89 0.77 0.35 0.12 0.07 0.09 0.07 0.05 0.03 0.03 0.03 0.06 0.07 0.08 0.09 0.12 0.12 0.12 0.13 0.19 0.25 0.29 0.41 0.54 0.55 0.60 0.75 0.81 0.86 0.83 0.77 0.73 0.72 0.73 0.79
0.50 0.61 0.35 0.29 0.38 0.37 0.36 0.46 0.67 0.82 0.68 0.46 0.22 0.13 0.13 0.08 0.06 0.06 0.05 0.04 0.06 0.07 0.08 0.10 0.15 0.16 0.15 0.14 0.19 0.25 0.29 0.38 0.52 0.61 0.61 0.67 0.77 0.82 0.87 0.86 0.78 0.72 0.71 0.73
0.45 0.71 0.52 0.29 0.28 0.27 0.34 0.40 0.52 0.77 0.65 0.39 0.30 0.14 0.09 0.07 0.05 0.06 0.06 0.05 0.05 0.07 0.09 0.12 0.19 0.20 0.19 0.18 0.21 0.26 0.27 0.32 0.43 0.58 0.68 0.67 0.72 0.84 0.86 0.79 0.75 0.77 0.74 0.72
0.75 1.07 0.89 0.54 0.45 0.43 0.52 0.48 0.46 0.49 0.52 0.42 0.33 0.12 0.07 0.06 0.04 0.05 0.05 0.06 0.05 0.05 0.07 0.10 0.17 0.20 0.20 0.21 0.24 0.29 0.28 0.27 0.32 0.48 0.62 0.72 0.77 0.82 0.87 0.82 0.73 0.76 0.79 0.77
1.09 1.27 0.84 0.66 0.49 0.46 0.48 0.40 0.41 0.57 0.69 0.37 0.14 0.07 0.07 0.06 0.05 0.05 0.06 0.07 0.06 0.05 0.06 0.07 0.10 0.13 0.16 0.17 0.21 0.25 0.27 0.25 0.24 0.36 0.52 0.62 0.72 0.78 0.83 0.85 0.83 0.79 0.78 0.80
1.15 1.15 0.46 0.24 0.19 0.23 0.26 0.23 0.27 0.40 0.39 0.31 0.10 0.06 0.08 0.09 0.08 0.08 0.08 0.08 0.08 0.07 0.07 0.06 0.06 0.08 0.11 0.13 0.17 0.21 0.23 0.22 0.21 0.26 0.37 0.51 0.61 0.71 0.80 0.85 0.88 0.90 0.90 0.82
1.05 1.04 0.47 0.25 0.14 0.20 0.21 0.15 0.15 0.16 0.16 0.14 0.07 0.05 0.03 0.05 0.06 0.07 0.08 0.09 0.10 0.09 0.08 0.07 0.06 0.07 0.08 0.10 0.13 0.18 0.22 0.20 0.18 0.20 0.24 0.37 0.51 0.64 0.74 0.81 0.90 0.92 0.94 0.94
0.98 1.00 0.83 0.46 0.17 0.36 0.40 0.16 0.12 0.12 0.12 0.12 0.14 0.11 0.06 0.04 0.05 0.08 0.10 0.11 0.12 0.11 0.10 0.08 0.07 0.07 0.08 0.08 0.10 0.16 0.20 0.21 0.19 0.18 0.20 0.27 0.37 0.52 0.63 0.73 0.83 0.95 0.96 0.95
0.71 0.88 1.16 0.79 0.55 0.74 0.33 0.12 0.11 0.13 0.15 0.15 0.16 0.13 0.09 0.06 0.06 0.08 0.12 0.15 0.12 0.11 0.10 0.09 0.07 0.07 0.08 0.07 0.08 0.14 0.17 0.20 0.21 0.19 0.18 0.21 0.27 0.38 0.52 0.67 0.76 0.87 0.97 0.97
0.36 0.75 1.31 1.14 0.82 0.42 0.14 0.11 0.16 0.18 0.19 0.18 0.15 0.11 0.07 0.04 0.04 0.07 0.08 0.11 0.12 0.11 0.11 0.09 0.08 0.08 0.08 0.07 0.08 0.11 0.13 0.17 0.18 0.17 0.17 0.17 0.20 0.29 0.43 0.56 0.68 0.78 0.90 0.94
0.37 0.70 1.35 1.24 0.90 0.39 0.15 0.10 0.11 0.15 0.23 0.16 0.14 0.13 0.10 0.08 0.10 0.09 0.09 0.09 0.10 0.09 0.09 0.09 0.08 0.09 0.07 0.07 0.09 0.11 0.11 0.13 0.15 0.15 0.15 0.15 0.17 0.22 0.33 0.45 0.57 0.72 0.82 0.89
0.63 1.00 1.21 0.92 0.73 0.31 0.14 0.11 0.11 0.26 0.31 0.17 0.15 0.15 0.13 0.13 0.13 0.11 0.08 0.08 0.10 0.09 0.09 0.10 0.09 0.09 0.08 0.08 0.11 0.15 0.12 0.12 0.15 0.16 0.15 0.13 0.14 0.17 0.25 0.40 0.53 0.69 0.80 0.88
0.51 0.71 0.67 0.59 0.70 0.37 0.15 0.15 0.26 0.29 0.18 0.15 0.13 0.12 0.12 0.10 0.08 0.06 0.06 0.08 0.09 0.09 0.09 0.11 0.12 0.10 0.09 0.10 0.13 0.17 0.15 0.15 0.16 0.16 0.15 0.14 0.13 0.16 0.23 0.38 0.51 0.63 0.77 0.88
0.34 0.44 0.47 0.40 0.30 0.18 0.17 0.19 0.21 0.18 0.16 0.14 0.13 0.10 0.09 0.09 0.07 0.06 0.06 0.07 0.08 0.09 0.09 0.12 0.14 0.12 0.12 0.13 0.16 0.18 0.18 0.18 0.17 0.15 0.15 0.15 0.15 0.17 0.22 0.33 0.48 0.66 0.74 0.84
0.23 0.22 0.31 0.28 0.16 0.13 0.12 0.14 0.15 0.15 0.14 0.12 0.12 0.11 0.10 0.09 0.08 0.07 0.06 0.06 0.07 0.09 0.10 0.11 0.13 0.14 0.15 0.17 0.19 0.19 0.20 0.21 0.17 0.16 0.15 0.16 0.19 0.22 0.24 0.31 0.42 0.59 0.71 0.80
0.20 0.22 0.24 0.23 0.14 0.12 0.10 0.10 0.10 0.11 0.10 0.10 0.09 0.10 0.10 0.09 0.07 0.07 0.07 0.07 0.09 0.10 0.10 0.11 0.12 0.14 0.18 0.21 0.21 0.20 0.21 0.22 0.19 0.18 0.17 0.18 0.22 0.26 0.29 0.35 0.42 0.49 0.59 0.74
0.10 0.14 0.20 0.20 0.13 0.15 0.11 0.07 0.05 0.06 0.08 0.08 0.08 0.07 0.08 0.08 0.07 0.05 0.06 0.08 0.10 0.12 0.10 0.11 0.12 0.13 0.16 0.21 0.22 0.20 0.20 0.21 0.21 0.21 0.20 0.22 0.26 0.27 0.30 0.38 0.46 0.53 0.57 0.62

GEFSCGP_prec_meanprecacc_192.txt.gz
Total_Precipitation_Accumulation
0.43 0.53 0.48 0.35 0.25 0.20 0.17 0.20 0.18 0.11 0.09 0.18 0.17 0.10 0.04 0.02 0.04 0.04 0.03 0.03 0.04 0.04 0.03 0.04 0.09 0.15 0.20 0.24 0.29 0.38 0.54 0.60 0.68 0.76 0.86 0.92 0.85 0.87 0.87 0.82 0.79 0.75 0.75 0.73
0.55 0.45 0.27 0.21 0.17 0.18 0.22 0.25 0.20 0.14 0.12 0.19 0.18 0.10 0.04 0.02 0.03 0.03 0.03 0.03 0.04 0.04 0.04 0.05 0.08 0.13 0.19 0.23 0.25 0.31 0.47 0.58 0.64 0.69 0.72 0.75 0.78 0.80 0.84 0.80 0.82 0.82 0.79 0.82
0.44 0.28 0.16 0.23 0.27 0.24 0.22 0.20 0.17 0.16 0.16 0.20 0.20 0.13 0.04 0.02 0.02 0.03 0.04 0.05 0.05 0.04 0.04 0.05 0.06 0.08 0.15 0.21 0.22 0.27 0.39 0.53 0.61 0.67 0.81 0.86 0.93 1.00 1.00 0.92 0.84 0.81 0.83 0.82
0.32 0.18 0.18 0.27 0.32 0.27 0.22 0.11 0.12 0.17 0.30 0.30 0.22 0.23 0.07 0.03 0.04 0.04 0.04 0.04 0.04 0.04 0.04 0.05 0.05 0.07 0.12 0.17 0.20 0.25 0.39 0.52 0.60 0.68 0.80 0.85 0.85 0.90 0.90 0.84 0.80 0.76 0.77 0.81
0.36 0.20 0.22 0.27 0.25 0.25 0.19 0.09 0.13 0.20 0.32 0.38 0.24 0.29 0.11 0.05 0.06 0.07 0.08 0.07 0.06 0.05 0.04 0.04 0.05 0.06 0.10 0.17 0.22 0.26 0.36 0.53 0.64 0.71 0.74 0.79 0.78 0.74 0.79 0.89 0.89 0.84 0.81 0.81
0.31 0.19 0.24 0.23 0.18 0.23 0.23 0.22 0.26 0.31 0.52 0.68 0.24 0.23 0.13 0.09 0.11 0.10 0.09 0.09 0.09 0.08 0.06 0.05 0.05 0.06 0.09 0.19 0.26 0.32 0.36 0.47 0.64 0.76 0.78 0.76 0.76 0.74 0.80 0.88 0.94 0.95 0.91 0.84
0.45 0.26 0.22 0.22 0.30 0.35 0.44 0.65 1.00 1.01 0.98 0.57 0.10 0.15 0.15 0.09 0.07 0.09 0.10 0.09 0.08 0.09 0.08 0.08 0.08 0.09 0.10 0.17 0.26 0.33 0.39 0.42 0.54 0.73 0.80 0.77 0.76 0.74 0.73 0.79 0.85 0.89 0.93 0.91
0.52 0.35 0.22 0.22 0.29 0.41 0.50 0.69 0.91 0.79 0.45 0.15 0.05 0.10 0.11 0.06 0.05 0.05 0.07 0.08 0.06 0.06 0.07 0.08 0.09 0.12 0.13 0.15 0.24 0.33 0.42 0.45 0.50 0.62 0.75 0.79 0.82 0.80 0.74 0.75 0.80 0.83 0.83 0.84
0.51 0.33 0.16 0.16 0.17 0.23 0.39 0.50 0.47 0.60 0.39 0.21 0.11 0.07 0.07 0.04 0.03 0.03 0.03 0.05 0.09 0.08 0.09 0.11 0.11 0.13 0.14 0.17 0.23 0.29 0.38 0.49 0.53 0.55 0.69 0.79 0.85 0.86 0.77 0.73 0.77 0.81 0.82 0.84
0.53 0.45 0.20 0.18 0.23 0.28 0.31 0.36 0.55 0.89 0.77 0.35 0.12 0.07 0.09 0.07 0.05 0.03 0.03 0.04 0.07 0.09 0.09 0.11 0.14 0.15 0.13 0.15 0.21 0.27 0.31 0.43 0.58 0.58 0.64 0.79 0.85 0.89 0.87 0.81 0.78 0.76 0.76 0.82
0.51 0.62 0.35 0.29 0.38 0.37 0.36 0.46 0.67 0.82 0.68 0.46 0.22 0.13 0.13 0.08 0.06 0.06 0.05 0.04 0.06 0.07 0.09 0.11 0.16 0.17 0.16 0.15 0.20 0.28 0.31 0.39 0.54 0.65 0.64 0.71 0.81 0.87 0.92 0.91 0.83 0.77 0.75 0.77
0.47 0.73 0.53 0.29 0.28 0.27 0.34 0.40 0.52 0.77 0.65 0.39 0.30 0.14 0.09 0.07 0.05 0.06 0.06 0.05 0.05 0.07 0.09 0.12 0.20 0.21 0.19 0.20 0.23 0.30 0.29 0.33 0.44 0.60 0.71 0.70 0.75 0.86 0.89 0.83 0.80 0.82 0.79 0.77
0.78 1.11 0.92 0.56 0.46 0.43 0.52 0.48 0.46 0.49 0.53 0.42 0.33 0.12 0.07 0.06 0.04 0.05 0.05 0.06 0.05 0.05 0.07 0.10 0.17 0.20 0.21 0.22 0.25 0.34 0.32 0.28 0.33 0.50 0.64 0.74 0.78 0.84 0.90 0.84 0.77 0.80 0.83 0.81
1.14 1.34 0.89 0.69 0.51 0.47 0.49 0.40 0.41 0.58 0.71 0.37 0.14 0.07 0.07 0.06 0.05 0.05 0.06 0.07 0.06 0.05 0.06 0.07 0.10 0.13 0.17 0.17 0.22 0.28 0.32 0.28 0.26 0.37 0.54 0.65 0.74 0.81 0.85 0.87 0.84 0.82 0.82 0.83
1.23 1.24 0.51 0.26 0.21 0.25 0.28 0.24 0.28 0.41 0.41 0.32 0.10 0.06 0.08 0.09 0.08 0.08 0.08 0.08 0.08 0.07 0.07 0.06 0.06 0.09 0.11 0.13 0.18 0.22 0.27 0.28 0.27 0.28 0.39 0.54 0.64 0.75 0.83 0.88 0.90 0.92 0.92 0.85
1.12 1.13 0.52 0.27 0.15 0.21 0.23 0.16 0.16 0.17 0.17 0.15 0.08 0.05 0.04 0.05 0.06 0.07 0.08 0.09 0.10 0.09 0.09 0.07 0.06 0.07 0.08 0.10 0.14 0.19 0.23 0.24 0.25 0.26 0.28 0.41 0.57 0.70 0.78 0.84 0.93 0.94 0.96 0.96
1.06 1.09 0.91 0.51 0.18 0.39 0.43 0.17 0.13 0.12 0.12 0.13 0.15 0.13 0.07 0.04 0.05 0.08 0.10 0.12 0.13 0.11 0.10 0.08 0.07 0.07 0.08 0.09 0.11 0.16 0.21 0.22 0.21 0.21 0.23 0.30 0.40 0.57 0.68 0.77 0.87 0.99 1.00 0.98
0.75 0.94 1.23 0.85 0.58 0.78 0.35 0.12 0.11 0.13 0.16 0.16 0.17 0.14 0.10 0.06 0.06 0.08 0.13 0.15 0.12 0.12 0.11 0.09 0.08 0.08 0.09 0.08 0.09 0.14 0.17 0.20 0.21 0.19 0.19 0.22 0.28 0.41 0.56 0.71 0.80 0.91 1.01 1.01
0.38 0.79 1.37 1.20 0.87 0.44 0.14 0.11 0.16 0.18 0.20 0.18 0.16 0.12 0.08 0.04 0.04 0.07 0.08 0.11 0.12 0.11 0.11 0.10 0.09 0.10 0.09 0.07 0.08 0.12 0.13 0.17 0.18 0.18 0.18 0.17 0.20 0.30 0.44 0.58 0.71 0.81 0.93 0.97
0.39 0.74 1.43 1.32 0.96 0.42 0.16 0.10 0.11 0.15 0.24 0.16 0.14 0.14 0.11 0.08 0.10 0.09 0.09 0.09 0.10 0.10 0.10 0.10 0.10 0.10 0.08 0.07 0.09 0.12 0.12 0.14 0.15 0.16 0.15 0.15 0.17 0.22 0.33 0.46 0.59 0.74 0.86 0.92
0.66 1.06 1.29 0.99 0.79 0.34 0.15 0.11 0.11 0.27 0.32 0.17 0.15 0.15 0.13 0.14 0.14 0.11 0.08 0.08 0.10 0.10 0.10 0.11 0.11 0.11 0.09 0.08 0.11 0.15 0.13 0.13 0.16 0.16 0.15 0.13 0.14 0.18 0.26 0.40 0.53 0.70 0.82 0.91
0.53 0.74 0.70 0.63 0.75 0.40 0.16 0.16 0.27 0.31 0.19 0.16 0.14 0.12 0.12 0.11 0.08 0.07 0.07 0.08 0.09 0.09 0.10 0.13 0.13 0.12 0.11 0.11 0.14 0.18 0.16 0.15 0.17 0.16 0.15 0.14 0.14 0.16 0.24 0.39 0.52 0.65 0.79 0.92
0.35 0.46 0.50 0.43 0.33 0.20 0.18 0.21 0.22 0.20 0.18 0.15 0.14 0.11 0.10 0.09 0.08 0.06 0.06 0.07 0.08 0.09 0.10 0.13 0.15 0.14 0.13 0.14 0.17 0.20 0.19 0.19 0.17 0.16 0.15 0.15 0.16 0.18 0.23 0.34 0.49 0.68 0.78 0.88
0.24 0.23 0.32 0.29 0.17 0.14 0.13 0.15 0.16 0.16 0.15 0.13 0.12 0.12 0.10 0.09 0.08 0.07 0.06 0.07 0.08 0.10 0.11 0.12 0.14 0.15 0.17 0.18 0.20 0.20 0.21 0.21 0.18 0.17 0.16 0.16 0.19 0.23 0.25 0.33 0.44 0.62 0.77 0.86
0.22 0.23 0.25 0.24 0.15 0.13 0.11 0.10 0.10 0.11 0.11 0.10 0.10 0.10 0.10 0.09 0.07 0.07 0.07 0.08 0.10 0.11 0.11 0.12 0.13 0.15 0.19 0.23 0.22 0.21 0.22 0.23 0.20 0.19 0.18 0.18 0.22 0.26 0.30 0.37 0.45 0.55 0.65 0.81
0.12 0.16 0.22 0.23 0.15 0.16 0.11 0.07 0.06 0.07 0.08 0.09 0.09 0.08 0.08 0.08 0.07 0.06 0.07 0.09 0.11 0.13 0.11 0.11 0.13 0.14 0.17 0.22 0.23 0.22 0.22 0.23 0.23 0.22 0.21 0.23 0.27 0.28 0.31 0.40 0.50 0.59 0.63 0.70

GEFSCGP_prec_meanprecacc_198.txt.gz
Total_Precipitation_Accumulation
0.43 0.53 0.48 0.35 0.25 0.20 0.17 0.20 0.18 0.11 0.09 0.18 0.17 0.10 0.04 0.02 0.04 0.04 0.03 0.03 0.04 0.04 0.03 0.04 0.09 0.15 0.20 0.24 0.29 0.38 0.54 0.60 0.68 0.76 0.86 0.92 0.85 0.87 0.88 0.83 0.79 0.76 0.78 0.79
0.55 0.45 0.27 0.21 0.17 0.18 0.22 0.25 0.20 0.14 0.12 0.19 0.18 0.10 0.04 0.02 0.03 0.03 0.03 0.03 0.04 0.04 0.04 0.05 0.08 0.13 0.19 0.23 0.25 0.31 0.47 0.58 0.64 0.69 0.72 0.76 0.78 0.81 0.84 0.80 0.82 0.82 0.80 0.84
0.44 0.28 0.16 0.23 0.27 0.24 0.22 0.20 0.17 0.16 0.16 0.20 0.20 0.13 0.04 0.02 0.02 0.03 0.04 0.05 0.05 0.04 0.04 0.05 0.06 0.08 0.15 0.21 0.22 0.27 0.39 0.53 0.61 0.67 0.81 0.86 0.93 1.00 1.00 0.92 0.84 0.82 0.83 0.84
0.32 0.18 0.18 0.27 0.32 0.27 0.22 0.11 0.12 0.17 0.30 0.30 0.22 0.23 0.07 0.03 0.04 0.04 0.04 0.04 0.04 0.04 0.04 0.05 0.05 0.07 0.12 0.17 0.20 0.25 0.39 0.52 0.60 0.68 0.80 0.85 0.85 0.90 0.90 0.84 0.80 0.76 0.78 0.82
0.36 0.20 0.22 0.27 0.25 0.25 0.19 0.09 0.13 0.20 0.32 0.38 0.24 0.29 0.11 0.05 0.06 0.07 0.08 0.07 0.06 0.05 0.04 0.04 0.05 0.06 0.10 0.17 0.22 0.26 0.36 0.53 0.64 0.71 0.74 0.79 0.78 0.74 0.79 0.89 0.89 0.85 0.81 0.81
0.31 0.19 0.24 0.23 0.18 0.23 0.23 0.22 0.26 0.31 0.52 0.68 0.24 0.23 0.13 0.09 0.11 0.10 0.09 0.09 0.09 0.08 0.06 0.05 0.05 0.06 0.09 0.19 0.26 0.32 0.36 0.47 0.64 0.76 0.78 0.76 0.76 0.74 0.80 0.89 0.94 0.95 0.91 0.85
0.45 0.26 0.22 0.22 0.30 0.35 0.44 0.65 1.00 1.01 0.98 0.57 0.10 0.15 0.15 0.09 0.07 0.09 0.10 0.09 0.08 0.09 0.09 0.08 0.08 0.09 0.10 0.17 0.26 0.33 0.39 0.42 0.54 0.73 0.80 0.77 0.76 0.74 0.73 0.79 0.86 0.89 0.93 0.91
0.52 0.36 0.22 0.22 0.29 0.41 0.50 0.69 0.91 0.79 0.45 0.15 0.05 0.10 0.11 0.06 0.05 0.05 0.07 0.08 0.06 0.06 0.07 0.09 0.10 0.12 0.13 0.16 0.24 0.33 0.42 0.45 0.50 0.62 0.75 0.79 0.82 0.80 0.74 0.75 0.81 0.83 0.84 0.85
0.52 0.34 0.16 0.16 0.17 0.23 0.39 0.50 0.47 0.60 0.39 0.21 0.11 0.07 0.07 0.04 0.03 0.03 0.03 0.05 0.09 0.08 0.09 0.11 0.12 0.14 0.14 0.17 0.23 0.29 0.38 0.50 0.53 0.55 0.69 0.79 0.85 0.86 0.77 0.73 0.77 0.81 0.83 0.85
0.55 0.46 0.20 0.18 0.23 0.28 0.31 0.36 0.55 0.89 0.77 0.35 0.12 0.07 0.09 0.07 0.05 0.03 0.03 0.04 0.07 0.09 0.09 0.11 0.15 0.15 0.15 0.16 0.22 0.27 0.31 0.43 0.58 0.58 0.64 0.79 0.85 0.89 0.88 0.81 0.78 0.76 0.76 0.83
0.53 0.64 0.36 0.29 0.38 0.37 0.36 0.47 0.67 0.82 0.68 0.46 0.22 0.13 0.13 0.08 0.06 0.06 0.05 0.04 0.06 0.07 0.09 0.11 0.16 0.18 0.17 0.16 0.21 0.29 0.33 0.41 0.55 0.65 0.65 0.71 0.82 0.87 0.92 0.92 0.83 0.78 0.76 0.78
0.50 0.77 0.55 0.29 0.28 0.27 0.34 0.41 0.53 0.78 0.65 0.39 0.30 0.14 0.09 0.07 0.05 0.06 0.06 0.05 0.05 0.07 0.09 0.12 0.20 0.21 0.20 0.20 0.23 0.30 0.30 0.35 0.46 0.62 0.72 0.70 0.75 0.87 0.90 0.84 0.81 0.83 0.81 0.79
0.81 1.16 0.95 0.58 0.47 0.44 0.53 0.48 0.47 0.50 0.53 0.42 0.33 0.12 0.07 0.06 0.04 0.05 0.05 0.06 0.05 0.05 0.07 0.10 0.17 0.20 0.21 0.22 0.25 0.34 0.32 0.29 0.34 0.52 0.66 0.75 0.79 0.85 0.91 0.85 0.78 0.82 0.86 0.85
1.20 1.39 0.91 0.70 0.52 0.49 0.50 0.41 0.42 0.59 0.72 0.38 0.14 0.08 0.07 0.06 0.05 0.05 0.06 0.07 0.06 0.05 0.06 0.07 0.10 0.13 0.17 0.17 0.22 0.28 0.32 0.29 0.26 0.38 0.55 0.66 0.76 0.82 0.87 0.89 0.86 0.84 0.84 0.87
1.32 1.32 0.53 0.27 0.21 0.26 0.29 0.25 0.28 0.43 0.42 0.33 0.10 0.06 0.09 0.09 0.08 0.08 0.08 0.08 0.08 0.07 0.07 0.06 0.06 0.09 0.11 0.13 0.18 0.22 0.27 0.29 0.28 0.29 0.40 0.55 0.65 0.76 0.84 0.89 0.91 0.93 0.94 0.88
1.20 1.22 0.57 0.30 0.16 0.22 0.24 0.16 0.16 0.18 0.17 0.16 0.09 0.06 0.04 0.05 0.06 0.07 0.08 0.09 0.10 0.09 0.09 0.07 0.06 0.07 0.08 0.10 0.14 0.19 0.23 0.25 0.27 0.30 0.31 0.43 0.59 0.71 0.80 0.86 0.94 0.95 0.97 0.97
1.10 1.14 0.96 0.54 0.20 0.42 0.46 0.18 0.13 0.13 0.13 0.14 0.16 0.13 0.07 0.04 0.05 0.08 0.10 0.12 0.13 0.11 0.10 0.08 0.07 0.07 0.08 0.09 0.11 0.16 0.21 0.22 0.22 0.22 0.24 0.32 0.44 0.61 0.74 0.81 0.89 1.01 1.02 1.00
0.78 0.97 1.28 0.88 0.60 0.82 0.36 0.13 0.11 0.13 0.16 0.16 0.18 0.15 0.10 0.06 0.06 0.08 0.13 0.15 0.12 0.12 0.11 0.09 0.08 0.08 0.09 0.08 0.09 0.14 0.18 0.20 0.22 0.20 0.19 0.23 0.30 0.44 0.60 0.75 0.85 0.95 1.05 1.04
0.40 0.83 1.43 1.25 0.90 0.45 0.14 0.11 0.16 0.19 0.20 0.18 0.16 0.12 0.08 0.04 0.05 0.07 0.08 0.11 0.12 0.11 0.11 0.10 0.09 0.10 0.09 0.07 0.08 0.12 0.13 0.17 0.18 0.18 0.18 0.18 0.21 0.30 0.46 0.60 0.74 0.83 0.95 0.98
0.41 0.78 1.50 1.37 1.00 0.44 0.17 0.10 0.11 0.16 0.25 0.16 0.14 0.14 0.11 0.08 0.11 0.10 0.09 0.09 0.10 0.10 0.10 0.10 0.10 0.10 0.09 0.07 0.09 0.12 0.12 0.14 0.16 0.16 0.16 0.16 0.17 0.22 0.34 0.47 0.60 0.76 0.88 0.94
0.69 1.12 1.36 1.04 0.83 0.36 0.16 0.11 0.12 0.28 0.34 0.18 0.16 0.15 0.14 0.14 0.14 0.11 0.08 0.09 0.10 0.10 0.10 0.11 0.12 0.11 0.09 0.08 0.12 0.15 0.13 0.13 0.16 0.17 0.15 0.14 0.15 0.18 0.26 0.41 0.54 0.72 0.85 0.94
0.54 0.76 0.73 0.67 0.79 0.44 0.19 0.17 0.29 0.33 0.21 0.17 0.14 0.13 0.12 0.11 0.09 0.07 0.07 0.08 0.09 0.09 0.10 0.13 0.14 0.12 0.11 0.11 0.14 0.18 0.16 0.16 0.17 0.16 0.16 0.15 0.14 0.16 0.24 0.39 0.53 0.66 0.82 0.94
0.36 0.48 0.51 0.45 0.36 0.22 0.20 0.23 0.24 0.21 0.18 0.15 0.14 0.11 0.10 0.09 0.08 0.07 0.06 0.08 0.08 0.10 0.11 0.13 0.15 0.14 0.13 0.14 0.17 0.20 0.19 0.20 0.18 0.16 0.15 0.16 0.16 0.18 0.23 0.34 0.50 0.69 0.80 0.91
0.25 0.24 0.34 0.31 0.18 0.15 0.15 0.17 0.18 0.17 0.16 0.13 0.12 0.12 0.10 0.10 0.08 0.08 0.07 0.08 0.09 0.12 0.12 0.12 0.14 0.15 0.17 0.18 0.20 0.21 0.22 0.22 0.18 0.17 0.16 0.16 0.19 0.24 0.26 0.34 0.45 0.64 0.79 0.89
0.23 0.23 0.26 0.25 0.16 0.14 0.12 0.11 0.11 0.11 0.11 0.10 0.10 0.10 0.10 0.10 0.08 0.07 0.08 0.09 0.11 0.12 0.12 0.12 0.13 0.15 0.20 0.23 0.22 0.21 0.23 0.24 0.21 0.19 0.18 0.19 0.22 0.27 0.31 0.38 0.46 0.57 0.68 0.86
0.12 0.16 0.23 0.24 0.17 0.17 0.12 0.07 0.06 0.07 0.08 0.09 0.09 0.08 0.08 0.09 0.08 0.06 0.08 0.10 0.12 0.13 0.11 0.11 0.13 0.14 0.17 0.22 0.23 0.22 0.23 0.24 0.24 0.22 0.21 0.23 0.27 0.29 0.31 0.40 0.51 0.61 0.66 0.75

GEFSCGP_prec_meanprecacc_204.txt.gz
Total_Precipitation_Accumulation
0.44 0.53 0.48 0.35 0.25 0.20 0.17 0.20 0.18 0.11 0.09 0.18 0.17 0.10 0.04 0.02 0.04 0.04 0.03 0.03 0.04 0.04 0.03 0.04 0.09 0.15 0.20 0.24 0.29 0.38 0.54 0.60 0.68 0.76 0.86 0.92 0.86 0.87 0.88 0.83 0.80 0.76 0.78 0.79
0.55 0.45 0.27 0.21 0.17 0.18 0.22 0.25 0.20 0.14 0.12 0.19 0.18 0.10 0.04 0.02 0.03 0.03 0.03 0.03 0.04 0.04 0.04 0.05 0.08 0.13 0.19 0.23 0.25 0.31 0.47 0.58 0.64 0.69 0.72 0.76 0.78 0.81 0.84 0.80 0.82 0.82 0.80 0.85
0.44 0.28 0.16 0.23 0.27 0.24 0.22 0.20 0.17 0.16 0.16 0.20 0.20 0.13 0.04 0.02 0.02 0.03 0.04 0.05 0.05 0.04 0.04 0.05 0.06 0.08 0.15 0.21 0.22 0.27 0.39 0.53 0.61 0.67 0.81 0.86 0.93 1.01 1.00 0.92 0.84 0.82 0.84 0.84
0.32 0.18 0.18 0.27 0.32 0.27 0.22 0.11 0.12 0.17 0.30 0.30 0.22 0.23 0.07 0.03 0.04 0.04 0.04 0.04 0.04 0.04 0.04 0.05 0.05 0.07 0.12 0.17 0.20 0.25 0.39 0.52 0.60 0.68 0.80 0.85 0.85 0.90 0.91 0.84 0.80 0.76 0.78 0.82
0.37 0.20 0.22 0.27 0.25 0.25 0.19 0.09 0.13 0.20 0.32 0.38 0.24 0.29 0.11 0.05 0.06 0.07 0.08 0.07 0.06 0.05 0.04 0.04 0.05 0.06 0.10 0.17 0.22 0.26 0.36 0.53 0.64 0.71 0.74 0.79 0.78 0.74 0.79 0.89 0.89 0.85 0.82 0.82
0.31 0.19 0.24 0.23 0.18 0.23 0.23 0.22 0.26 0.31 0.52 0.68 0.24 0.23 0.13 0.09 0.11 0.10 0.09 0.09 0.09 0.08 0.06 0.05 0.05 0.06 0.09 0.19 0.26 0.32 0.36 0.47 0.64 0.76 0.78 0.76 0.76 0.75 0.80 0.89 0.94 0.95 0.91 0.85
0.45 0.27 0.22 0.22 0.30 0.35 0.45 0.66 1.01 1.02 0.99 0.57 0.10 0.15 0.15 0.09 0.07 0.09 0.10 0.09 0.08 0.09 0.09 0.08 0.08 0.09 0.10 0.17 0.26 0.33 0.39 0.42 0.54 0.73 0.80 0.77 0.76 0.74 0.73 0.79 0.86 0.89 0.93 0.92
0.53 0.36 0.23 0.23 0.30 0.41 0.50 0.69 0.91 0.79 0.45 0.15 0.05 0.10 0.11 0.06 0.05 0.05 0.07 0.08 0.06 0.06 0.07 0.09 0.10 0.12 0.13 0.16 0.24 0.33 0.42 0.45 0.50 0.62 0.75 0.79 0.82 0.80 0.75 0.75 0.81 0.84 0.84 0.85
0.55 0.34 0.16 0.16 0.17 0.24 0.39 0.51 0.47 0.60 0.39 0.21 0.11 0.07 0.07 0.04 0.03 0.03 0.03 0.05 0.09 0.08 0.09 0.11 0.12 0.14 0.14 0.17 0.23 0.29 0.38 0.50 0.53 0.55 0.69 0.79 0.85 0.86 0.78 0.74 0.77 0.82 0.83 0.85
0.58 0.47 0.21 0.18 0.24 0.28 0.32 0.37 0.56 0.90 0.77 0.35 0.12 0.07 0.09 0.07 0.05 0.03 0.03 0.04 0.07 0.09 0.09 0.11 0.15 0.15 0.15 0.16 0.22 0.27 0.31 0.43 0.58 0.58 0.64 0.79 0.85 0.89 0.88 0.82 0.78 0.76 0.77 0.83
0.56 0.66 0.37 0.31 0.39 0.38 0.36 0.48 0.68 0.83 0.69 0.46 0.22 0.13 0.13 0.08 0.06 0.06 0.05 0.04 0.06 0.07 0.09 0.11 0.16 0.18 0.17 0.16 0.21 0.29 0.33 0.41 0.55 0.65 0.65 0.71 0.82 0.87 0.92 0.92 0.84 0.78 0.76 0.78
0.52 0.79 0.57 0.31 0.30 0.29 0.35 0.42 0.54 0.79 0.66 0.40 0.30 0.14 0.09 0.07 0.05 0.06 0.06 0.05 0.05 0.07 0.09 0.12 0.20 0.21 0.20 0.20 0.23 0.30 0.30 0.35 0.46 0.62 0.72 0.70 0.75 0.87 0.90 0.84 0.81 0.83 0.81 0.80
0.84 1.19 0.98 0.60 0.50 0.47 0.56 0.51 0.48 0.51 0.54 0.43 0.33 0.13 0.07 0.06 0.05 0.05 0.05 0.06 0.05 0.05 0.07 0.10 0.17 0.20 0.21 0.22 0.25 0.34 0.32 0.29 0.34 0.52 0.66 0.76 0.79 0.85 0.91 0.86 0.78 0.82 0.87 0.85
1.26 1.44 0.93 0.72 0.53 0.50 0.52 0.44 0.44 0.61 0.74 0.39 0.14 0.08 0.07 0.06 0.05 0.05 0.06 0.07 0.06 0.05 0.06 0.07 0.10 0.13 0.17 0.17 0.22 0.28 0.32 0.29 0.26 0.38 0.55 0.66 0.76 0.82 0.87 0.89 0.87 0.84 0.85 0.87
1.38 1.37 0.55 0.28 0.22 0.27 0.30 0.26 0.30 0.45 0.44 0.34 0.11 0.07 0.09 0.09 0.09 0.08 0.08 0.08 0.08 0.07 0.07 0.06 0.06 0.09 0.11 0.13 0.18 0.22 0.27 0.29 0.28 0.29 0.40 0.56 0.66 0.76 0.84 0.89 0.91 0.94 0.94 0.88
1.26 1.27 0.60 0.31 0.16 0.23 0.25 0.17 0.16 0.19 0.18 0.17 0.09 0.06 0.04 0.05 0.07 0.08 0.08 0.09 0.10 0.09 0.09 0.07 0.06 0.07 0.08 0.10 0.14 0.19 0.23 0.25 0.27 0.30 0.31 0.43 0.59 0.71 0.80 0.86 0.95 0.96 0.98 0.97
1.15 1.19 0.99 0.56 0.21 0.43 0.47 0.19 0.13 0.13 0.13 0.14 0.16 0.14 0.07 0.04 0.05 0.08 0.10 0.12 0.13 0.12 0.10 0.09 0.07 0.07 0.08 0.09 0.11 0.16 0.21 0.22 0.22 0.22 0.24 0.32 0.44 0.62 0.75 0.81 0.90 1.02 1.03 1.01
0.82 1.01 1.31 0.90 0.62 0.84 0.37 0.13 0.11 0.13 0.16 0.16 0.18 0.15 0.10 0.06 0.06 0.08 0.13 0.15 0.13 0.12 0.11 0.09 0.08 0.08 0.09 0.08 0.09 0.14 0.18 0.20 0.22 0.20 0.19 0.23 0.30 0.45 0.61 0.77 0.86 0.96 1.06 1.07
0.42 0.86 1.47 1.28 0.92 0.47 0.15 0.11 0.17 0.19 0.21 0.18 0.16 0.12 0.08 0.04 0.05 0.07 0.08 0.11 0.12 0.11 0.11 0.10 0.09 0.10 0.09 0.07 0.08 0.12 0.13 0.17 0.18 0.18 0.18 0.18 0.21 0.30 0.46 0.61 0.75 0.85 0.96 1.00
0.44 0.83 1.56 1.42 1.04 0.46 0.18 0.11 0.11 0.16 0.26 0.17 0.15 0.14 0.11 0.09 0.11 0.10 0.09 0.09 0.10 0.10 0.10 0.10 0.10 0.11 0.09 0.07 0.09 0.12 0.12 0.14 0.16 0.16 0.16 0.16 0.17 0.22 0.34 0.47 0.61 0.77 0.88 0.95
0.72 1.17 1.42 1.09 0.87 0.39 0.18 0.12 0.12 0.30 0.36 0.19 0.16 0.16 0.14 0.15 0.15 0.12 0.09 0.09 0.10 0.10 0.10 0.11 0.12 0.11 0.09 0.08 0.12 0.15 0.13 0.13 0.16 0.17 0.15 0.14 0.15 0.18 0.27 0.41 0.54 0.72 0.85 0.94
0.56 0.79 0.76 0.70 0.83 0.47 0.20 0.18 0.31 0.36 0.22 0.18 0.15 0.13 0.13 0.12 0.09 0.08 0.08 0.09 0.09 0.10 0.10 0.13 0.14 0.12 0.11 0.11 0.14 0.18 0.16 0.16 0.17 0.16 0.16 0.15 0.14 0.17 0.24 0.39 0.53 0.66 0.82 0.95
0.38 0.50 0.53 0.47 0.39 0.25 0.21 0.25 0.26 0.22 0.19 0.16 0.14 0.12 0.10 0.10 0.08 0.07 0.07 0.08 0.09 0.10 0.11 0.13 0.15 0.14 0.13 0.15 0.17 0.20 0.19 0.20 0.18 0.16 0.15 0.16 0.16 0.18 0.24 0.35 0.50 0.70 0.80 0.92
0.26 0.25 0.35 0.33 0.20 0.15 0.15 0.17 0.19 0.19 0.17 0.14 0.13 0.12 0.11 0.10 0.08 0.08 0.07 0.08 0.10 0.12 0.12 0.13 0.14 0.15 0.17 0.18 0.20 0.21 0.22 0.22 0.18 0.17 0.16 0.16 0.20 0.24 0.26 0.34 0.45 0.65 0.80 0.91
0.24 0.25 0.27 0.27 0.18 0.15 0.13 0.11 0.11 0.12 0.12 0.11 0.10 0.10 0.11 0.10 0.08 0.08 0.08 0.09 0.11 0.13 0.12 0.13 0.13 0.15 0.20 0.23 0.22 0.21 0.24 0.24 0.21 0.19 0.18 0.19 0.23 0.28 0.31 0.38 0.46 0.58 0.70 0.90
0.13 0.18 0.25 0.26 0.19 0.20 0.14 0.08 0.06 0.07 0.09 0.09 0.09 0.08 0.08 0.09 0.08 0.07 0.08 0.10 0.12 0.13 0.11 0.11 0.13 0.14 0.17 0.22 0.24 0.23 0.24 0.25 0.24 0.23 0.22 0.23 0.28 0.29 0.32 0.41 0.51 0.61 0.68 0.77

GEFSCGP_prec_meanprecacc_210.txt.gz
Total_Precipitation_Accumulation
0.45 0.54 0.49 0.35 0.25 0.20 0.17 0.20 0.18 0.11 0.09 0.18 0.17 0.10 0.04 0.02 0.04 0.04 0.03 0.03 0.04 0.04 0.03 0.04 0.09 0.15 0.20 0.24 0.29 0.38 0.54 0.60 0.68 0.76 0.86 0.92 0.86 0.87 0.88 0.83 0.80 0.76 0.78 0.79
0.56 0.46 0.27 0.21 0.17 0.18 0.22 0.25 0.20 0.14 0.12 0.19 0.18 0.10 0.04 0.02 0.03 0.03 0.03 0.03 0.04 0.04 0.04 0.05 0.08 0.13 0.19 0.23 0.25 0.31 0.47 0.58 0.64 0.69 0.72 0.76 0.78 0.81 0.84 0.80 0.83 0.83 0.80 0.85
0.45 0.28 0.16 0.23 0.27 0.24 0.22 0.20 0.17 0.16 0.16 0.20 0.20 0.13 0.04 0.02 0.02 0.03 0.04 0.05 0.05 0.04 0.04 0.05 0.06 0.08 0.15 0.21 0.22 0.27 0.39 0.53 0.61 0.67 0.81 0.86 0.93 1.01 1.00 0.92 0.84 0.82 0.84 0.84
0.33 0.18 0.18 0.27 0.32 0.27 0.22 0.11 0.12 0.17 0.30 0.30 0.22 0.23 0.07 0.03 0.04 0.04 0.04 0.04 0.04 0.04 0.04 0.05 0.05 0.07 0.12 0.17 0.20 0.25 0.39 0.52 0.60 0.68 0.80 0.85 0.85 0.90 0.91 0.84 0.80 0.76 0.78 0.82
0.38 0.20 0.22 0.27 0.25 0.25 0.19 0.09 0.13 0.20 0.32 0.38 0.24 0.29 0.11 0.05 0.06 0.07 0.08 0.07 0.06 0.05 0.04 0.04 0.05 0.06 0.10 0.17 0.22 0.26 0.36 0.53 0.64 0.71 0.74 0.79 0.78 0.74 0.79 0.89 0.89 0.85 0.82 0.82
0.32 0.19 0.24 0.23 0.18 0.23 0.23 0.22 0.26 0.31 0.53 0.69 0.24 0.23 0.13 0.09 0.11 0.10 0.09 0.09 0.09 0.08 0.06 0.05 0.05 0.06 0.09 0.19 0.26 0.32 0.36 0.47 0.64 0.76 0.78 0.76 0.76 0.75 0.80 0.89 0.94 0.95 0.91 0.85
0.47 0.28 0.22 0.22 0.30 0.36 0.45 0.67 1.02 1.03 1.00 0.57 0.10 0.15 0.15 0.09 0.07 0.09 0.10 0.09 0.08 0.09 0.09 0.08 0.08 0.09 0.10 0.17 0.26 0.33 0.39 0.42 0.54 0.73 0.80 0.77 0.76 0.74 0.73 0.79 0.86 0.89 0.93 0.92
0.55 0.38 0.23 0.23 0.30 0.42 0.51 0.70 0.92 0.80 0.45 0.15 0.05 0.10 0.11 0.06 0.05 0.05 0.07 0.08 0.06 0.06 0.07 0.09 0.10 0.12 0.13 0.16 0.24 0.33 0.42 0.45 0.50 0.62 0.75 0.79 0.82 0.80 0.75 0.75 0.81 0.84 0.84 0.85
0.56 0.36 0.17 0.16 0.17 0.24 0.40 0.52 0.48 0.61 0.40 0.21 0.11 0.07 0.07 0.04 0.03 0.03 0.03 0.05 0.09 0.08 0.09 0.11 0.12 0.14 0.14 0.17 0.23 0.29 0.38 0.50 0.53 0.55 0.69 0.79 0.85 0.86 0.78 0.74 0.77 0.82 0.83 0.85
0.59 0.49 0.21 0.19 0.24 0.29 0.32 0.37 0.57 0.93 0.79 0.35 0.12 0.07 0.10 0.07 0.05 0.03 0.03 0.04 0.07 0.09 0.09 0.11 0.15 0.15 0.15 0.16 0.22 0.27 0.31 0.43 0.58 0.58 0.64 0.79 0.85 0.89 0.88 0.82 0.78 0.76 0.77 0.83
0.58 0.69 0.39 0.32 0.41 0.40 0.38 0.49 0.69 0.85 0.70 0.47 0.22 0.13 0.14 0.08 0.06 0.06 0.05 0.04 0.06 0.07 0.09 0.11 0.16 0.18 0.17 0.16 0.21 0.29 0.33 0.41 0.55 0.65 0.65 0.71 0.82 0.87 0.92 0.92 0.84 0.78 0.77 0.78
0.54 0.82 0.59 0.31 0.31 0.30 0.37 0.44 0.55 0.81 0.67 0.40 0.31 0.15 0.09 0.07 0.06 0.06 0.06 0.05 0.05 0.07 0.09 0.12 0.20 0.21 0.20 0.20 0.23 0.30 0.30 0.35 0.46 0.62 0.72 0.70 0.75 0.87 0.90 0.84 0.81 0.84 0.81 0.80
0.89 1.25 1.02 0.64 0.52 0.48 0.58 0.53 0.50 0.53 0.55 0.44 0.34 0.13 0.07 0.06 0.05 0.05 0.05 0.06 0.05 0.05 0.07 0.10 0.17 0.20 0.21 0.22 0.25 0.34 0.32 0.29 0.34 0.52 0.66 0.76 0.79 0.85 0.91 0.86 0.78 0.83 0.87 0.85
1.32 1.49 0.97 0.75 0.56 0.52 0.53 0.45 0.45 0.63 0.76 0.41 0.15 0.09 0.07 0.06 0.05 0.05 0.06 0.07 0.07 0.05 0.06 0.07 0.10 0.13 0.17 0.17 0.22 0.28 0.32 0.29 0.26 0.38 0.55 0.66 0.76 0.82 0.87 0.89 0.87 0.84 0.85 0.87
1.45 1.42 0.57 0.29 0.22 0.28 0.31 0.27 0.30 0.46 0.45 0.35 0.11 0.07 0.09 0.09 0.09 0.08 0.08 0.08 0.08 0.07 0.07 0.06 0.06 0.09 0.11 0.13 0.18 0.22 0.27 0.29 0.28 0.29 0.40 0.56 0.66 0.76 0.84 0.89 0.91 0.94 0.94 0.88
1.33 1.31 0.61 0.32 0.17 0.23 0.26 0.17 0.17 0.19 0.19 0.17 0.09 0.06 0.05 0.05 0.07 0.08 0.08 0.09 0.10 0.10 0.09 0.07 0.06 0.07 0.08 0.10 0.14 0.19 0.23 0.25 0.27 0.30 0.31 0.43 0.59 0.71 0.80 0.86 0.95 0.96 0.98 0.98
1.24 1.24 1.03 0.59 0.22 0.45 0.49 0.20 0.14 0.14 0.14 0.14 0.17 0.14 0.07 0.04 0.05 0.08 0.10 0.12 0.13 0.12 0.10 0.09 0.07 0.07 0.08 0.09 0.11 0.16 0.21 0.22 0.22 0.22 0.24 0.32 0.44 0.62 0.75 0.81 0.90 1.02 1.03 1.01
0.88 1.06 1.36 0.94 0.65 0.89 0.40 0.14 0.12 0.14 0.17 0.17 0.18 0.15 0.10 0.06 0.06 0.08 0.13 0.15 0.13 0.12 0.11 0.09 0.08 0.08 0.09 0.08 0.09 0.14 0.18 0.20 0.22 0.20 0.19 0.23 0.30 0.45 0.61 0.77 0.86 0.96 1.06 1.07
0.45 0.91 1.53 1.33 0.97 0.52 0.17 0.12 0.18 0.20 0.22 0.19 0.16 0.12 0.08 0.04 0.05 0.07 0.08 0.11 0.12 0.11 0.11 0.10 0.09 0.10 0.09 0.07 0.08 0.12 0.13 0.17 0.18 0.18 0.18 0.18 0.21 0.31 0.46 0.61 0.75 0.85 0.97 1.01
0.46 0.87 1.62 1.48 1.09 0.51 0.21 0.12 0.12 0.18 0.28 0.18 0.15 0.14 0.11 0.09 0.11 0.10 0.09 0.09 0.10 0.10 0.10 0.10 0.10 0.11 0.09 0.07 0.09 0.12 0.12 0.14 0.16 0.16 0.16 0.16 0.17 0.22 0.34 0.47 0.61 0.77 0.88 0.95
0.76 1.23 1.48 1.14 0.92 0.42 0.19 0.13 0.13 0.33 0.38 0.19 0.17 0.16 0.14 0.15 0.15 0.12 0.09 0.09 0.10 0.10 0.10 0.11 0.12 0.11 0.09 0.08 0.12 0.15 0.13 0.13 0.16 0.17 0.15 0.14 0.15 0.19 0.27 0.41 0.54 0.72 0.85 0.94
0.59 0.82 0.79 0.73 0.87 0.50 0.21 0.19 0.33 0.38 0.23 0.19 0.16 0.14 0.14 0.12 0.10 0.08 0.08 0.09 0.09 0.10 0.10 0.13 0.14 0.12 0.11 0.11 0.14 0.18 0.16 0.16 0.17 0.16 0.16 0.15 0.14 0.17 0.24 0.39 0.53 0.67 0.82 0.95
0.39 0.53 0.56 0.49 0.41 0.26 0.22 0.26 0.28 0.23 0.21 0.18 0.16 0.13 0.11 0.10 0.09 0.08 0.07 0.08 0.09 0.10 0.11 0.13 0.15 0.14 0.13 0.15 0.17 0.20 0.19 0.20 0.18 0.16 0.15 0.16 0.16 0.18 0.24 0.35 0.50 0.70 0.81 0.92
0.27 0.26 0.37 0.34 0.21 0.16 0.16 0.18 0.19 0.20 0.19 0.16 0.14 0.13 0.12 0.11 0.10 0.09 0.08 0.08 0.10 0.12 0.12 0.13 0.14 0.15 0.17 0.18 0.20 0.21 0.22 0.22 0.18 0.18 0.16 0.16 0.20 0.24 0.26 0.34 0.46 0.65 0.81 0.92
0.24 0.25 0.28 0.28 0.19 0.16 0.13 0.11 0.12 0.13 0.13 0.12 0.11 0.11 0.12 0.11 0.09 0.08 0.08 0.09 0.11 0.13 0.12 0.13 0.13 0.15 0.20 0.23 0.22 0.21 0.24 0.24 0.21 0.19 0.19 0.19 0.23 0.28 0.32 0.38 0.47 0.58 0.71 0.91
0.14 0.18 0.26 0.28 0.20 0.21 0.15 0.09 0.07 0.08 0.09 0.09 0.09 0.09 0.09 0.10 0.09 0.07 0.08 0.11 0.13 0.13 0.11 0.12 0.13 0.14 0.17 0.22 0.24 0.23 0.24 0.25 0.25 0.23 0.22 0.24 0.28 0.30 0.32 0.41 0.51 0.62 0.69 0.79

GEFSCGP_prec_meanprecacc_216.txt.gz
Total_Precipitation_Accumulation
0.47 0.56 0.50 0.35 0.25 0.21 0.18 0.20 0.18 0.11 0.09 0.18 0.17 0.10 0.04 0.02 0.04 0.04 0.03 0.03 0.04 0.04 0.03 0.04 0.09 0.16 0.20 0.24 0.29 0.38 0.54 0.60 0.68 0.76 0.86 0.92 0.86 0.87 0.88 0.83 0.80 0.76 0.78 0.80
0.59 0.48 0.27 0.21 0.17 0.18 0.22 0.25 0.20 0.14 0.12 0.19 0.18 0.10 0.04 0.02 0.03 0.03 0.03 0.03 0.04 0.04 0.04 0.05 0.08 0.13 0.19 0.23 0.25 0.31 0.47 0.58 0.64 0.69 0.72 0.76 0.78 0.81 0.84 0.80 0.83 0.83 0.80 0.85
0.47 0.29 0.16 0.23 0.27 0.24 0.22 0.20 0.17 0.16 0.16 0.20 0.20 0.13 0.04 0.02 0.02 0.03 0.04 0.05 0.05 0.04 0.04 0.05 0.06 0.09 0.15 0.21 0.22 0.27 0.39 0.53 0.61 0.67 0.81 0.86 0.93 1.01 1.00 0.92 0.84 0.82 0.84 0.84
0.34 0.19 0.19 0.27 0.32 0.27 0.22 0.11 0.12 0.17 0.30 0.30 0.22 0.23 0.07 0.03 0.04 0.04 0.04 0.04 0.04 0.04 0.04 0.05 0.05 0.07 0.12 0.17 0.20 0.25 0.39 0.52 0.60 0.68 0.80 0.85 0.85 0.90 0.91 0.84 0.80 0.76 0.78 0.83
0.39 0.22 0.23 0.27 0.25 0.25 0.19 0.09 0.13 0.20 0.32 0.38 0.25 0.29 0.11 0.05 0.06 0.07 0.08 0.07 0.06 0.05 0.04 0.04 0.05 0.06 0.10 0.17 0.22 0.26 0.36 0.53 0.64 0.71 0.74 0.79 0.78 0.74 0.79 0.89 0.89 0.85 0.82 0.82
0.33 0.20 0.26 0.24 0.18 0.23 0.23 0.22 0.27 0.31 0.53 0.70 0.25 0.23 0.13 0.09 0.11 0.10 0.09 0.09 0.09 0.08 0.06 0.05 0.05 0.06 0.09 0.19 0.26 0.32 0.36 0.47 0.64 0.76 0.78 0.76 0.76 0.75 0.80 0.89 0.94 0.95 0.91 0.85
0.49 0.29 0.23 0.23 0.31 0.36 0.45 0.67 1.04 1.04 1.01 0.58 0.10 0.15 0.16 0.09 0.07 0.09 0.10 0.09 0.08 0.09 0.09 0.08 0.08 0.09 0.10 0.17 0.26 0.33 0.39 0.42 0.54 0.73 0.80 0.77 0.76 0.74 0.73 0.79 0.86 0.89 0.93 0.92
0.58 0.40 0.24 0.23 0.31 0.43 0.52 0.71 0.93 0.80 0.46 0.15 0.05 0.10 0.12 0.06 0.05 0.05 0.07 0.08 0.06 0.06 0.07 0.09 0.10 0.12 0.13 0.16 0.24 0.33 0.42 0.45 0.50 0.62 0.75 0.79 0.82 0.80 0.75 0.75 0.81 0.84 0.84 0.85
0.58 0.37 0.18 0.16 0.18 0.24 0.40 0.52 0.48 0.61 0.40 0.22 0.11 0.07 0.08 0.04 0.03 0.03 0.03 0.05 0.09 0.08 0.09 0.11 0.12 0.14 0.14 0.17 0.23 0.29 0.38 0.50 0.53 0.55 0.69 0.79 0.85 0.86 0.78 0.74 0.77 0.82 0.83 0.85
0.62 0.51 0.22 0.19 0.25 0.29 0.33 0.38 0.58 0.94 0.80 0.36 0.13 0.07 0.10 0.07 0.05 0.03 0.03 0.04 0.07 0.09 0.09 0.11 0.15 0.15 0.15 0.16 0.22 0.27 0.31 0.43 0.58 0.58 0.64 0.79 0.85 0.89 0.88 0.82 0.78 0.76 0.77 0.83
0.61 0.72 0.40 0.33 0.42 0.41 0.39 0.50 0.70 0.86 0.71 0.47 0.23 0.14 0.14 0.08 0.06 0.06 0.05 0.04 0.06 0.07 0.09 0.11 0.16 0.18 0.17 0.16 0.21 0.29 0.33 0.41 0.55 0.65 0.65 0.71 0.82 0.87 0.93 0.92 0.84 0.78 0.77 0.78
0.59 0.87 0.62 0.33 0.31 0.30 0.38 0.45 0.57 0.83 0.68 0.41 0.32 0.16 0.10 0.07 0.06 0.06 0.06 0.05 0.05 0.07 0.09 0.12 0.20 0.21 0.20 0.20 0.23 0.30 0.30 0.35 0.46 0.62 0.72 0.70 0.75 0.87 0.90 0.84 0.81 0.84 0.81 0.80
0.97 1.33 1.09 0.70 0.56 0.49 0.59 0.54 0.51 0.55 0.57 0.45 0.35 0.15 0.08 0.06 0.05 0.05 0.05 0.06 0.05 0.05 0.07 0.10 0.17 0.20 0.21 0.22 0.25 0.34 0.32 0.29 0.34 0.52 0.66 0.76 0.79 0.85 0.91 0.86 0.78 0.83 0.87 0.85
1.39 1.57 1.02 0.79 0.58 0.53 0.54 0.45 0.45 0.64 0.78 0.42 0.16 0.10 0.09 0.07 0.06 0.05 0.06 0.07 0.07 0.05 0.06 0.07 0.10 0.13 0.17 0.17 0.22 0.28 0.32 0.29 0.26 0.38 0.55 0.66 0.76 0.82 0.87 0.89 0.87 0.85 0.85 0.87
1.53 1.49 0.60 0.30 0.23 0.28 0.32 0.27 0.31 0.46 0.46 0.36 0.12 0.08 0.11 0.10 0.09 0.08 0.08 0.08 0.08 0.07 0.07 0.06 0.06 0.09 0.11 0.13 0.18 0.22 0.27 0.29 0.28 0.29 0.40 0.56 0.66 0.76 0.84 0.89 0.91 0.94 0.94 0.88
1.44 1.40 0.66 0.35 0.18 0.25 0.27 0.18 0.17 0.20 0.20 0.18 0.10 0.07 0.06 0.06 0.07 0.08 0.08 0.09 0.10 0.10 0.09 0.07 0.06 0.07 0.08 0.10 0.14 0.19 0.23 0.25 0.27 0.30 0.31 0.43 0.59 0.71 0.80 0.87 0.95 0.96 0.98 0.98
1.32 1.33 1.09 0.63 0.25 0.49 0.53 0.22 0.16 0.15 0.15 0.16 0.18 0.15 0.08 0.05 0.06 0.09 0.10 0.12 0.13 0.12 0.10 0.09 0.07 0.07 0.08 0.09 0.11 0.16 0.21 0.22 0.22 0.22 0.24 0.32 0.44 0.62 0.75 0.81 0.90 1.02 1.03 1.01
0.95 1.13 1.42 0.99 0.71 0.98 0.45 0.16 0.14 0.16 0.19 0.18 0.19 0.15 0.10 0.07 0.06 0.08 0.13 0.15 0.13 0.12 0.11 0.09 0.08 0.08 0.09 0.08 0.09 0.14 0.18 0.20 0.22 0.20 0.19 0.23 0.30 0.45 0.61 0.77 0.87 0.96 1.06 1.07
0.49 0.96 1.58 1.38 1.03 0.57 0.20 0.14 0.20 0.22 0.25 0.20 0.17 0.13 0.08 0.05 0.05 0.07 0.09 0.11 0.12 0.11 0.11 0.10 0.09 0.10 0.09 0.07 0.08 0.12 0.13 0.17 0.18 0.18 0.18 0.18 0.21 0.31 0.46 0.61 0.75 0.85 0.97 1.01
0.49 0.91 1.67 1.53 1.14 0.56 0.24 0.13 0.14 0.19 0.31 0.19 0.15 0.15 0.12 0.09 0.12 0.11 0.09 0.09 0.10 0.10 0.10 0.10 0.10 0.11 0.09 0.07 0.09 0.12 0.12 0.14 0.16 0.16 0.16 0.16 0.18 0.23 0.34 0.47 0.61 0.77 0.88 0.95
0.81 1.28 1.53 1.18 0.97 0.46 0.21 0.14 0.15 0.35 0.41 0.21 0.17 0.17 0.15 0.16 0.16 0.12 0.09 0.09 0.10 0.10 0.10 0.11 0.12 0.11 0.09 0.08 0.12 0.15 0.13 0.13 0.16 0.17 0.15 0.14 0.15 0.19 0.27 0.41 0.55 0.73 0.85 0.94
0.63 0.86 0.83 0.76 0.91 0.52 0.22 0.19 0.35 0.41 0.25 0.21 0.17 0.15 0.15 0.13 0.10 0.08 0.08 0.09 0.10 0.10 0.10 0.13 0.14 0.12 0.11 0.11 0.14 0.18 0.16 0.16 0.17 0.16 0.16 0.15 0.14 0.17 0.25 0.40 0.53 0.67 0.83 0.96
0.43 0.57 0.60 0.53 0.45 0.29 0.24 0.27 0.29 0.25 0.23 0.19 0.17 0.14 0.12 0.12 0.11 0.09 0.08 0.09 0.09 0.11 0.11 0.13 0.15 0.14 0.13 0.15 0.17 0.20 0.20 0.20 0.18 0.16 0.16 0.16 0.16 0.19 0.25 0.35 0.51 0.70 0.81 0.93
0.30 0.28 0.39 0.38 0.25 0.18 0.17 0.19 0.20 0.21 0.20 0.17 0.15 0.14 0.13 0.12 0.11 0.10 0.09 0.09 0.11 0.13 0.12 0.13 0.14 0.16 0.17 0.18 0.20 0.21 0.22 0.23 0.19 0.18 0.16 0.17 0.20 0.24 0.27 0.35 0.46 0.65 0.81 0.92
0.27 0.27 0.30 0.31 0.22 0.18 0.14 0.13 0.13 0.14 0.14 0.13 0.12 0.12 0.13 0.12 0.09 0.09 0.09 0.10 0.12 0.13 0.13 0.13 0.14 0.15 0.20 0.23 0.22 0.22 0.24 0.25 0.21 0.20 0.19 0.19 0.23 0.28 0.32 0.38 0.47 0.58 0.71 0.92
0.16 0.20 0.28 0.30 0.22 0.23 0.17 0.11 0.09 0.09 0.10 0.10 0.10 0.10 0.10 0.10 0.09 0.07 0.08 0.11 0.13 0.13 0.11 0.12 0.13 0.14 0.18 0.22 0.24 0.23 0.24 0.25 0.25 0.23 0.22 0.24 0.28 0.30 0.32 0.41 0.51 0.62 0.69 0.79

GEFSCGP_prec_meanprecacc_222.txt.gz
Total_Precipitation_Accumulation
0.54 0.63 0.54 0.37 0.26 0.21 0.18 0.21 0.18 0.12 0.10 0.18 0.17 0.10 0.04 0.02 0.04 0.04 0.03 0.03 0.04 0.04 0.04 0.05 0.10 0.16 0.21 0.24 0.29 0.38 0.55 0.60 0.69 0.77 0.86 0.92 0.86 0.87 0.88 0.83 0.80 0.76 0.78 0.80
0.66 0.53 0.29 0.22 0.18 0.19 0.23 0.26 0.20 0.14 0.12 0.19 0.18 0.10 0.04 0.02 0.03 0.03 0.03 0.03 0.04 0.04 0.04 0.05 0.08 0.13 0.19 0.23 0.25 0.31 0.47 0.58 0.64 0.69 0.72 0.76 0.78 0.81 0.84 0.80 0.83 0.83 0.80 0.85
0.53 0.32 0.17 0.24 0.28 0.25 0.22 0.20 0.17 0.16 0.17 0.20 0.20 0.13 0.04 0.02 0.02 0.03 0.04 0.05 0.05 0.04 0.04 0.05 0.06 0.09 0.15 0.21 0.22 0.27 0.39 0.53 0.61 0.68 0.82 0.87 0.93 1.01 1.00 0.92 0.84 0.82 0.84 0.84
0.39 0.21 0.20 0.28 0.33 0.29 0.23 0.11 0.12 0.18 0.30 0.31 0.22 0.24 0.07 0.03 0.04 0.04 0.04 0.04 0.04 0.04 0.04 0.05 0.05 0.07 0.12 0.17 0.20 0.26 0.39 0.53 0.60 0.69 0.80 0.86 0.86 0.90 0.91 0.84 0.80 0.76 0.78 0.83
0.45 0.24 0.24 0.28 0.26 0.26 0.20 0.10 0.13 0.20 0.33 0.39 0.25 0.30 0.11 0.05 0.06 0.07 0.08 0.07 0.06 0.05 0.04 0.04 0.05 0.06 0.10 0.17 0.22 0.26 0.36 0.53 0.64 0.71 0.74 0.79 0.78 0.74 0.79 0.89 0.89 0.85 0.82 0.82
0.37 0.22 0.27 0.24 0.18 0.24 0.25 0.24 0.28 0.32 0.55 0.71 0.25 0.23 0.13 0.10 0.11 0.10 0.09 0.09 0.09 0.08 0.06 0.05 0.05 0.06 0.09 0.19 0.26 0.32 0.36 0.47 0.64 0.76 0.78 0.76 0.76 0.75 0.80 0.89 0.94 0.95 0.91 0.85
0.55 0.32 0.24 0.23 0.32 0.38 0.48 0.70 1.08 1.08 1.05 0.59 0.10 0.15 0.16 0.09 0.08 0.09 0.10 0.09 0.08 0.09 0.09 0.08 0.08 0.09 0.10 0.17 0.26 0.33 0.39 0.42 0.54 0.73 0.80 0.77 0.76 0.74 0.73 0.79 0.86 0.89 0.93 0.92
0.63 0.44 0.27 0.24 0.32 0.45 0.55 0.73 0.95 0.82 0.47 0.15 0.05 0.10 0.12 0.06 0.05 0.05 0.07 0.08 0.06 0.06 0.07 0.09 0.10 0.12 0.13 0.16 0.24 0.33 0.42 0.45 0.50 0.62 0.75 0.79 0.82 0.80 0.75 0.75 0.81 0.84 0.84 0.85
0.63 0.39 0.19 0.17 0.18 0.25 0.42 0.54 0.49 0.62 0.41 0.22 0.11 0.07 0.08 0.04 0.03 0.03 0.03 0.06 0.09 0.08 0.09 0.11 0.12 0.14 0.15 0.17 0.23 0.29 0.38 0.50 0.53 0.55 0.69 0.79 0.85 0.86 0.78 0.74 0.77 0.82 0.83 0.85
0.68 0.54 0.24 0.20 0.26 0.30 0.34 0.39 0.60 0.96 0.82 0.36 0.13 0.08 0.11 0.08 0.05 0.04 0.03 0.04 0.07 0.09 0.09 0.11 0.15 0.16 0.15 0.17 0.22 0.27 0.31 0.43 0.58 0.58 0.64 0.79 0.85 0.89 0.88 0.82 0.78 0.76 0.77 0.83
0.66 0.76 0.44 0.36 0.46 0.43 0.40 0.52 0.73 0.88 0.73 0.48 0.23 0.14 0.15 0.09 0.06 0.06 0.05 0.05 0.06 0.07 0.09 0.11 0.16 0.18 0.17 0.16 0.21 0.29 0.33 0.41 0.55 0.65 0.65 0.71 0.82 0.87 0.93 0.92 0.84 0.78 0.77 0.78
0.63 0.92 0.66 0.36 0.33 0.32 0.39 0.47 0.59 0.85 0.70 0.42 0.33 0.17 0.10 0.08 0.06 0.06 0.07 0.05 0.05 0.07 0.09 0.12 0.20 0.21 0.20 0.20 0.23 0.30 0.30 0.35 0.46 0.62 0.72 0.70 0.75 0.87 0.90 0.84 0.81 0.84 0.81 0.80
1.02 1.40 1.16 0.76 0.60 0.52 0.62 0.55 0.52 0.56 0.58 0.46 0.36 0.16 0.08 0.06 0.05 0.05 0.05 0.06 0.05 0.05 0.07 0.10 0.17 0.20 0.21 0.22 0.25 0.34 0.32 0.29 0.34 0.52 0.67 0.76 0.79 0.85 0.91 0.86 0.78 0.83 0.87 0.85
1.47 1.64 1.06 0.83 0.63 0.56 0.57 0.47 0.46 0.65 0.80 0.43 0.18 0.12 0.09 0.07 0.06 0.06 0.06 0.07 0.07 0.05 0.06 0.07 0.10 0.13 0.17 0.17 0.22 0.28 0.32 0.29 0.26 0.39 0.55 0.66 0.76 0.83 0.87 0.89 0.87 0.85 0.85 0.87
1.58 1.54 0.62 0.31 0.24 0.30 0.34 0.29 0.32 0.47 0.47 0.37 0.13 0.09 0.11 0.11 0.10 0.09 0.08 0.08 0.08 0.07 0.07 0.07 0.06 0.09 0.11 0.13 0.18 0.22 0.27 0.29 0.28 0.29 0.40 0.56 0.66 0.76 0.84 0.89 0.91 0.94 0.94 0.88
1.49 1.44 0.68 0.36 0.19 0.26 0.28 0.19 0.19 0.21 0.20 0.19 0.10 0.08 0.06 0.06 0.08 0.08 0.08 0.09 0.10 0.10 0.09 0.07 0.06 0.07 0.08 0.11 0.14 0.19 0.23 0.25 0.27 0.30 0.31 0.43 0.59 0.72 0.80 0.87 0.95 0.97 0.98 0.98
1.37 1.37 1.12 0.65 0.27 0.51 0.56 0.24 0.18 0.18 0.17 0.17 0.19 0.15 0.08 0.05 0.06 0.09 0.10 0.12 0.13 0.12 0.10 0.09 0.07 0.07 0.08 0.09 0.11 0.17 0.21 0.22 0.22 0.22 0.25 0.32 0.44 0.62 0.75 0.82 0.90 1.02 1.03 1.01
0.99 1.17 1.46 1.02 0.74 1.03 0.48 0.18 0.16 0.19 0.22 0.20 0.20 0.16 0.11 0.07 0.06 0.08 0.13 0.15 0.13 0.12 0.11 0.10 0.08 0.08 0.09 0.08 0.09 0.14 0.18 0.20 0.22 0.20 0.19 0.23 0.30 0.45 0.61 0.77 0.87 0.97 1.07 1.07
0.52 1.01 1.64 1.42 1.07 0.61 0.22 0.16 0.23 0.26 0.28 0.22 0.18 0.13 0.09 0.06 0.05 0.07 0.09 0.11 0.12 0.12 0.11 0.10 0.09 0.10 0.09 0.07 0.08 0.12 0.14 0.17 0.18 0.18 0.18 0.18 0.21 0.31 0.46 0.61 0.75 0.85 0.97 1.01
0.53 0.96 1.73 1.58 1.17 0.59 0.25 0.15 0.16 0.22 0.36 0.21 0.17 0.16 0.13 0.11 0.13 0.11 0.10 0.10 0.10 0.10 0.10 0.10 0.10 0.11 0.09 0.07 0.09 0.12 0.12 0.14 0.16 0.16 0.16 0.16 0.18 0.23 0.34 0.47 0.61 0.77 0.89 0.95
0.86 1.33 1.59 1.23 1.00 0.48 0.23 0.16 0.16 0.38 0.45 0.23 0.20 0.19 0.17 0.18 0.17 0.13 0.10 0.10 0.10 0.10 0.10 0.11 0.12 0.11 0.09 0.08 0.12 0.15 0.13 0.13 0.16 0.17 0.16 0.14 0.15 0.19 0.27 0.42 0.55 0.73 0.85 0.95
0.67 0.90 0.87 0.79 0.94 0.54 0.24 0.21 0.37 0.45 0.27 0.23 0.19 0.18 0.17 0.15 0.12 0.10 0.09 0.10 0.10 0.10 0.10 0.13 0.14 0.12 0.11 0.11 0.14 0.18 0.16 0.16 0.17 0.16 0.16 0.15 0.14 0.17 0.25 0.40 0.54 0.67 0.83 0.96
0.46 0.60 0.63 0.56 0.48 0.32 0.27 0.30 0.32 0.28 0.25 0.22 0.19 0.16 0.15 0.14 0.13 0.11 0.09 0.10 0.10 0.11 0.12 0.14 0.16 0.15 0.14 0.15 0.18 0.21 0.20 0.20 0.18 0.16 0.16 0.17 0.17 0.19 0.25 0.36 0.51 0.71 0.82 0.93
0.32 0.30 0.41 0.40 0.27 0.20 0.19 0.21 0.22 0.23 0.22 0.19 0.17 0.16 0.14 0.14 0.12 0.11 0.10 0.11 0.12 0.14 0.14 0.14 0.15 0.16 0.18 0.19 0.21 0.22 0.23 0.23 0.19 0.18 0.17 0.17 0.20 0.24 0.27 0.35 0.46 0.66 0.82 0.93
0.29 0.28 0.31 0.33 0.24 0.19 0.16 0.14 0.14 0.15 0.15 0.14 0.13 0.14 0.14 0.13 0.11 0.10 0.10 0.11 0.13 0.14 0.13 0.13 0.14 0.16 0.20 0.24 0.23 0.22 0.24 0.25 0.22 0.20 0.19 0.20 0.24 0.28 0.32 0.39 0.47 0.59 0.71 0.93
0.19 0.22 0.30 0.31 0.23 0.24 0.18 0.12 0.10 0.10 0.11 0.12 0.11 0.11 0.11 0.11 0.10 0.08 0.09 0.11 0.13 0.14 0.11 0.12 0.13 0.14 0.18 0.23 0.24 0.23 0.25 0.26 0.25 0.24 0.23 0.24 0.29 0.30 0.32 0.41 0.52 0.62 0.70 0.80

GEFSCGP_prec_meanprecacc_228.txt.gz
Total_Precipitation_Accumulation
0.58 0.70 0.59 0.40 0.28 0.22 0.18 0.21 0.19 0.12 0.11 0.20 0.18 0.10 0.04 0.02 0.04 0.04 0.04 0.03 0.04 0.05 0.04 0.06 0.12 0.18 0.22 0.26 0.31 0.41 0.57 0.62 0.70 0.78 0.86 0.92 0.86 0.87 0.88 0.83 0.80 0.76 0.78 0.80
0.71 0.58 0.32 0.23 0.19 0.19 0.23 0.26 0.20 0.14 0.13 0.21 0.20 0.10 0.04 0.03 0.03 0.03 0.03 0.04 0.04 0.05 0.05 0.07 0.11 0.14 0.20 0.24 0.26 0.33 0.49 0.61 0.66 0.70 0.72 0.76 0.79 0.81 0.84 0.81 0.83 0.83 0.80 0.85
0.59 0.35 0.18 0.26 0.30 0.26 0.23 0.21 0.17 0.17 0.17 0.22 0.22 0.14 0.04 0.02 0.02 0.03 0.04 0.05 0.05 0.04 0.04 0.06 0.07 0.09 0.15 0.21 0.23 0.28 0.41 0.55 0.63 0.69 0.82 0.87 0.93 1.01 1.00 0.92 0.85 0.82 0.84 0.84
0.44 0.24 0.21 0.31 0.36 0.30 0.24 0.12 0.13 0.18 0.31 0.32 0.24 0.25 0.07 0.03 0.04 0.04 0.05 0.05 0.05 0.04 0.04 0.05 0.06 0.07 0.12 0.17 0.21 0.27 0.40 0.54 0.62 0.70 0.81 0.86 0.86 0.90 0.91 0.84 0.80 0.76 0.78 0.83
0.51 0.27 0.27 0.31 0.28 0.28 0.21 0.10 0.14 0.21 0.33 0.40 0.26 0.31 0.11 0.05 0.06 0.07 0.08 0.08 0.07 0.06 0.05 0.05 0.05 0.07 0.11 0.17 0.22 0.26 0.37 0.54 0.65 0.73 0.75 0.79 0.79 0.75 0.80 0.89 0.89 0.85 0.82 0.82
0.41 0.26 0.31 0.26 0.20 0.26 0.26 0.25 0.29 0.34 0.57 0.73 0.26 0.24 0.13 0.10 0.11 0.10 0.09 0.09 0.09 0.08 0.06 0.05 0.06 0.07 0.10 0.19 0.26 0.33 0.37 0.48 0.65 0.77 0.78 0.77 0.76 0.75 0.80 0.89 0.94 0.95 0.91 0.85
0.60 0.37 0.29 0.27 0.36 0.44 0.52 0.74 1.15 1.17 1.12 0.62 0.10 0.16 0.16 0.09 0.08 0.09 0.10 0.09 0.08 0.09 0.09 0.08 0.08 0.10 0.11 0.17 0.26 0.34 0.39 0.43 0.54 0.73 0.81 0.77 0.76 0.74 0.74 0.80 0.86 0.90 0.94 0.92
0.69 0.51 0.32 0.29 0.38 0.55 0.60 0.76 0.99 0.86 0.49 0.16 0.05 0.10 0.12 0.06 0.05 0.05 0.07 0.08 0.06 0.06 0.08 0.09 0.10 0.13 0.14 0.16 0.24 0.34 0.43 0.46 0.51 0.63 0.75 0.79 0.82 0.80 0.75 0.75 0.81 0.84 0.85 0.85
0.68 0.44 0.22 0.20 0.21 0.29 0.46 0.57 0.51 0.64 0.42 0.23 0.12 0.08 0.08 0.04 0.04 0.03 0.03 0.06 0.09 0.09 0.09 0.11 0.13 0.15 0.15 0.18 0.24 0.30 0.39 0.51 0.54 0.56 0.70 0.80 0.85 0.86 0.78 0.74 0.77 0.82 0.83 0.86
0.74 0.60 0.27 0.23 0.30 0.34 0.37 0.41 0.62 1.00 0.84 0.37 0.13 0.08 0.11 0.08 0.05 0.04 0.03 0.04 0.07 0.09 0.09 0.12 0.15 0.16 0.15 0.17 0.22 0.28 0.32 0.45 0.59 0.59 0.64 0.79 0.85 0.89 0.88 0.82 0.78 0.77 0.77 0.84
0.73 0.83 0.50 0.41 0.53 0.49 0.43 0.56 0.76 0.91 0.75 0.49 0.24 0.15 0.15 0.09 0.06 0.07 0.06 0.05 0.06 0.08 0.09 0.11 0.16 0.18 0.17 0.17 0.22 0.30 0.33 0.42 0.56 0.66 0.65 0.71 0.82 0.87 0.93 0.92 0.84 0.78 0.77 0.78
0.70 0.98 0.73 0.43 0.37 0.33 0.40 0.49 0.62 0.87 0.71 0.43 0.33 0.18 0.11 0.08 0.06 0.07 0.07 0.05 0.05 0.07 0.09 0.12 0.20 0.21 0.20 0.20 0.23 0.31 0.31 0.35 0.46 0.62 0.72 0.70 0.75 0.87 0.90 0.84 0.81 0.84 0.81 0.80
1.11 1.48 1.23 0.85 0.66 0.55 0.64 0.56 0.54 0.58 0.60 0.47 0.37 0.16 0.09 0.06 0.05 0.05 0.06 0.06 0.05 0.05 0.07 0.10 0.17 0.20 0.21 0.22 0.26 0.34 0.33 0.29 0.34 0.52 0.67 0.76 0.79 0.85 0.91 0.86 0.78 0.83 0.87 0.85
1.56 1.73 1.12 0.89 0.67 0.60 0.60 0.49 0.48 0.67 0.83 0.45 0.18 0.12 0.09 0.07 0.06 0.06 0.06 0.07 0.07 0.05 0.06 0.07 0.10 0.13 0.17 0.17 0.23 0.28 0.32 0.29 0.27 0.39 0.55 0.66 0.76 0.83 0.87 0.89 0.87 0.85 0.85 0.87
1.65 1.59 0.65 0.32 0.25 0.32 0.35 0.31 0.34 0.49 0.49 0.38 0.13 0.09 0.11 0.11 0.10 0.09 0.09 0.09 0.08 0.07 0.07 0.07 0.06 0.09 0.11 0.13 0.18 0.22 0.27 0.29 0.28 0.30 0.40 0.56 0.66 0.77 0.85 0.89 0.92 0.94 0.95 0.88
1.54 1.48 0.70 0.37 0.19 0.26 0.29 0.20 0.20 0.23 0.22 0.20 0.11 0.08 0.06 0.06 0.08 0.08 0.08 0.10 0.11 0.10 0.09 0.07 0.06 0.07 0.08 0.11 0.14 0.19 0.23 0.25 0.27 0.30 0.32 0.43 0.59 0.72 0.80 0.87 0.95 0.97 0.98 0.98
1.41 1.40 1.16 0.68 0.28 0.52 0.58 0.26 0.20 0.19 0.18 0.18 0.19 0.16 0.08 0.05 0.06 0.09 0.10 0.12 0.13 0.12 0.10 0.09 0.08 0.07 0.08 0.09 0.11 0.17 0.21 0.22 0.22 0.22 0.25 0.32 0.45 0.63 0.75 0.82 0.90 1.02 1.03 1.01
1.03 1.20 1.49 1.05 0.78 1.08 0.51 0.20 0.18 0.20 0.23 0.21 0.21 0.16 0.11 0.07 0.06 0.08 0.13 0.15 0.13 0.12 0.11 0.10 0.08 0.09 0.09 0.08 0.09 0.14 0.18 0.20 0.22 0.20 0.19 0.23 0.31 0.45 0.61 0.77 0.87 0.97 1.07 1.07
0.54 1.05 1.68 1.46 1.11 0.64 0.24 0.17 0.25 0.28 0.31 0.24 0.19 0.14 0.09 0.06 0.05 0.07 0.09 0.11 0.12 0.12 0.12 0.10 0.09 0.10 0.09 0.08 0.09 0.12 0.14 0.17 0.18 0.18 0.18 0.18 0.21 0.31 0.47 0.62 0.75 0.85 0.97 1.01
0.55 1.00 1.78 1.62 1.21 0.61 0.27 0.15 0.18 0.25 0.38 0.23 0.19 0.18 0.14 0.11 0.14 0.12 0.10 0.10 0.11 0.10 0.10 0.10 0.10 0.11 0.09 0.08 0.10 0.13 0.12 0.14 0.16 0.16 0.16 0.16 0.18 0.23 0.35 0.47 0.61 0.77 0.89 0.95
0.88 1.37 1.64 1.27 1.04 0.50 0.24 0.16 0.17 0.40 0.47 0.25 0.22 0.21 0.19 0.20 0.19 0.14 0.10 0.10 0.11 0.10 0.10 0.11 0.12 0.11 0.10 0.09 0.12 0.17 0.14 0.14 0.16 0.17 0.16 0.14 0.15 0.19 0.27 0.42 0.55 0.73 0.85 0.95
0.69 0.93 0.91 0.83 0.97 0.56 0.25 0.22 0.39 0.47 0.28 0.24 0.21 0.20 0.19 0.18 0.15 0.12 0.11 0.11 0.11 0.11 0.11 0.14 0.14 0.12 0.11 0.11 0.15 0.20 0.17 0.16 0.17 0.16 0.17 0.15 0.15 0.17 0.25 0.40 0.54 0.67 0.83 0.96
0.48 0.63 0.66 0.58 0.51 0.34 0.28 0.32 0.35 0.29 0.27 0.24 0.22 0.19 0.18 0.18 0.16 0.13 0.11 0.12 0.12 0.13 0.13 0.15 0.16 0.15 0.14 0.15 0.18 0.22 0.21 0.20 0.18 0.16 0.16 0.17 0.17 0.19 0.25 0.36 0.52 0.71 0.82 0.94
0.34 0.32 0.43 0.42 0.29 0.22 0.21 0.23 0.24 0.24 0.24 0.22 0.20 0.19 0.17 0.17 0.16 0.14 0.12 0.12 0.13 0.15 0.15 0.15 0.16 0.17 0.19 0.20 0.22 0.23 0.24 0.24 0.19 0.19 0.17 0.18 0.21 0.25 0.27 0.36 0.47 0.66 0.82 0.93
0.32 0.30 0.33 0.35 0.26 0.21 0.17 0.16 0.16 0.17 0.17 0.16 0.15 0.16 0.17 0.15 0.13 0.12 0.12 0.13 0.14 0.16 0.15 0.15 0.15 0.16 0.21 0.24 0.23 0.23 0.25 0.26 0.22 0.20 0.20 0.20 0.24 0.29 0.33 0.39 0.48 0.59 0.72 0.94
0.21 0.25 0.32 0.33 0.25 0.26 0.20 0.14 0.12 0.11 0.13 0.13 0.12 0.12 0.13 0.13 0.11 0.09 0.11 0.14 0.15 0.15 0.13 0.13 0.14 0.15 0.18 0.23 0.25 0.24 0.25 0.26 0.26 0.24 0.23 0.25 0.30 0.31 0.33 0.42 0.52 0.63 0.70 0.80

GEFSCGP_prec_meanprecacc_234.txt.gz
Total_Precipitation_Accumulation
0.61 0.74 0.64 0.43 0.31 0.25 0.19 0.21 0.19 0.13 0.12 0.21 0.19 0.11 0.04 0.02 0.04 0.05 0.04 0.04 0.05 0.05 0.04 0.07 0.14 0.21 0.24 0.30 0.35 0.44 0.60 0.64 0.72 0.79 0.87 0.93 0.86 0.87 0.88 0.83 0.80 0.76 0.79 0.80
0.75 0.61 0.34 0.24 0.20 0.22 0.24 0.26 0.21 0.15 0.13 0.22 0.20 0.11 0.04 0.03 0.03 0.04 0.04 0.04 0.05 0.05 0.05 0.08 0.13 0.17 0.23 0.27 0.29 0.35 0.51 0.63 0.68 0.71 0.73 0.76 0.79 0.81 0.84 0.81 0.83 0.83 0.81 0.85
0.63 0.37 0.20 0.28 0.33 0.31 0.26 0.22 0.18 0.17 0.18 0.22 0.23 0.15 0.04 0.02 0.03 0.04 0.05 0.06 0.06 0.04 0.05 0.07 0.09 0.12 0.17 0.24 0.26 0.30 0.42 0.57 0.66 0.71 0.83 0.87 0.94 1.01 1.00 0.93 0.85 0.82 0.84 0.85
0.48 0.25 0.23 0.34 0.40 0.36 0.28 0.13 0.14 0.19 0.32 0.33 0.25 0.27 0.07 0.04 0.04 0.05 0.05 0.05 0.05 0.05 0.05 0.06 0.07 0.09 0.14 0.19 0.23 0.28 0.42 0.56 0.64 0.72 0.82 0.87 0.86 0.90 0.91 0.85 0.80 0.77 0.79 0.83
0.55 0.29 0.29 0.34 0.31 0.32 0.25 0.12 0.15 0.22 0.35 0.41 0.27 0.32 0.12 0.05 0.06 0.07 0.08 0.08 0.07 0.06 0.05 0.05 0.07 0.08 0.13 0.20 0.24 0.29 0.40 0.56 0.67 0.74 0.76 0.80 0.79 0.75 0.80 0.89 0.89 0.85 0.82 0.82
0.43 0.28 0.34 0.29 0.22 0.29 0.30 0.29 0.34 0.38 0.62 0.77 0.27 0.25 0.14 0.10 0.11 0.10 0.09 0.09 0.09 0.09 0.07 0.07 0.08 0.08 0.12 0.21 0.29 0.35 0.40 0.50 0.67 0.79 0.80 0.77 0.77 0.76 0.81 0.89 0.94 0.96 0.91 0.86
0.64 0.39 0.32 0.29 0.39 0.49 0.59 0.83 1.29 1.32 1.25 0.67 0.11 0.16 0.17 0.10 0.08 0.10 0.10 0.09 0.08 0.10 0.11 0.10 0.10 0.11 0.12 0.19 0.28 0.36 0.42 0.45 0.56 0.76 0.83 0.78 0.77 0.75 0.74 0.80 0.87 0.90 0.94 0.92
0.73 0.55 0.34 0.31 0.42 0.62 0.69 0.84 1.06 0.94 0.54 0.17 0.05 0.11 0.13 0.07 0.05 0.05 0.07 0.08 0.07 0.07 0.09 0.10 0.11 0.14 0.15 0.17 0.25 0.35 0.45 0.48 0.53 0.64 0.77 0.80 0.83 0.81 0.75 0.75 0.81 0.85 0.85 0.86
0.72 0.47 0.24 0.22 0.24 0.33 0.55 0.66 0.55 0.68 0.44 0.24 0.13 0.08 0.08 0.04 0.04 0.03 0.03 0.06 0.09 0.09 0.11 0.13 0.13 0.15 0.16 0.18 0.25 0.31 0.41 0.53 0.55 0.57 0.71 0.81 0.86 0.86 0.78 0.74 0.77 0.82 0.84 0.86
0.79 0.65 0.30 0.26 0.33 0.39 0.44 0.49 0.68 1.05 0.87 0.39 0.15 0.09 0.12 0.08 0.05 0.04 0.03 0.04 0.07 0.09 0.11 0.13 0.17 0.17 0.16 0.18 0.23 0.29 0.33 0.46 0.60 0.60 0.65 0.80 0.86 0.89 0.88 0.82 0.78 0.77 0.77 0.84
0.78 0.89 0.55 0.45 0.58 0.54 0.49 0.64 0.84 0.96 0.78 0.51 0.25 0.16 0.16 0.09 0.06 0.07 0.06 0.05 0.06 0.08 0.09 0.13 0.18 0.20 0.18 0.17 0.22 0.30 0.34 0.42 0.57 0.67 0.66 0.72 0.82 0.87 0.93 0.92 0.84 0.78 0.77 0.79
0.75 1.05 0.79 0.47 0.39 0.35 0.43 0.54 0.67 0.91 0.74 0.44 0.34 0.19 0.11 0.08 0.06 0.07 0.07 0.05 0.05 0.07 0.09 0.13 0.21 0.22 0.21 0.21 0.23 0.31 0.31 0.35 0.46 0.63 0.73 0.71 0.76 0.88 0.90 0.84 0.81 0.84 0.81 0.80
1.18 1.57 1.32 0.93 0.72 0.60 0.68 0.59 0.57 0.61 0.62 0.49 0.38 0.17 0.09 0.07 0.05 0.05 0.06 0.06 0.05 0.05 0.07 0.11 0.18 0.21 0.23 0.23 0.26 0.34 0.33 0.29 0.34 0.53 0.67 0.77 0.80 0.85 0.91 0.86 0.78 0.83 0.87 0.85
1.62 1.81 1.20 0.96 0.73 0.65 0.63 0.51 0.49 0.70 0.86 0.46 0.19 0.13 0.09 0.07 0.06 0.06 0.06 0.07 0.07 0.05 0.06 0.07 0.11 0.14 0.18 0.18 0.23 0.28 0.32 0.29 0.27 0.39 0.56 0.67 0.77 0.83 0.87 0.89 0.87 0.85 0.85 0.87
1.70 1.66 0.69 0.34 0.27 0.33 0.36 0.31 0.34 0.51 0.51 0.40 0.14 0.09 0.11 0.11 0.10 0.09 0.09 0.09 0.08 0.07 0.07 0.07 0.06 0.09 0.12 0.14 0.18 0.22 0.27 0.29 0.28 0.30 0.40 0.56 0.66 0.77 0.85 0.89 0.92 0.94 0.95 0.88
1.58 1.53 0.74 0.39 0.20 0.27 0.30 0.21 0.21 0.23 0.23 0.21 0.12 0.08 0.06 0.07 0.08 0.08 0.08 0.10 0.11 0.10 0.09 0.08 0.07 0.08 0.09 0.11 0.14 0.19 0.23 0.25 0.27 0.30 0.32 0.43 0.59 0.72 0.81 0.87 0.95 0.97 0.98 0.98
1.45 1.44 1.19 0.71 0.30 0.55 0.61 0.28 0.22 0.20 0.19 0.19 0.20 0.16 0.08 0.05 0.06 0.09 0.11 0.12 0.14 0.12 0.11 0.09 0.08 0.08 0.09 0.09 0.11 0.17 0.21 0.22 0.22 0.23 0.25 0.33 0.45 0.63 0.75 0.82 0.90 1.02 1.03 1.01
1.06 1.23 1.53 1.09 0.82 1.14 0.55 0.22 0.19 0.22 0.25 0.22 0.21 0.17 0.11 0.07 0.06 0.08 0.13 0.16 0.13 0.12 0.11 0.10 0.09 0.09 0.10 0.08 0.09 0.15 0.18 0.20 0.22 0.20 0.20 0.23 0.31 0.45 0.62 0.77 0.87 0.97 1.07 1.07
0.58 1.09 1.72 1.50 1.15 0.68 0.26 0.18 0.26 0.30 0.32 0.25 0.20 0.14 0.09 0.06 0.06 0.08 0.09 0.12 0.13 0.12 0.12 0.10 0.10 0.10 0.10 0.08 0.09 0.13 0.14 0.17 0.19 0.18 0.19 0.19 0.21 0.31 0.47 0.62 0.76 0.86 0.98 1.02
0.57 1.03 1.82 1.66 1.25 0.64 0.29 0.16 0.18 0.26 0.41 0.23 0.19 0.18 0.14 0.12 0.15 0.13 0.10 0.10 0.11 0.11 0.11 0.11 0.10 0.11 0.09 0.08 0.11 0.13 0.13 0.15 0.16 0.16 0.16 0.16 0.18 0.23 0.35 0.48 0.62 0.78 0.90 0.96
0.91 1.41 1.68 1.30 1.07 0.52 0.25 0.17 0.18 0.42 0.50 0.25 0.22 0.21 0.20 0.21 0.21 0.15 0.11 0.10 0.11 0.11 0.11 0.12 0.12 0.12 0.10 0.09 0.13 0.17 0.15 0.14 0.17 0.17 0.16 0.15 0.16 0.19 0.28 0.42 0.55 0.73 0.86 0.95
0.71 0.96 0.94 0.86 1.00 0.58 0.26 0.22 0.40 0.49 0.29 0.25 0.22 0.20 0.20 0.19 0.16 0.13 0.12 0.12 0.11 0.11 0.11 0.14 0.14 0.12 0.11 0.12 0.15 0.20 0.18 0.17 0.18 0.17 0.17 0.16 0.15 0.18 0.25 0.40 0.54 0.68 0.84 0.96
0.50 0.65 0.68 0.60 0.53 0.35 0.29 0.33 0.36 0.30 0.28 0.25 0.23 0.20 0.19 0.19 0.17 0.15 0.13 0.13 0.13 0.13 0.14 0.15 0.17 0.15 0.14 0.15 0.19 0.22 0.21 0.21 0.19 0.18 0.17 0.17 0.17 0.20 0.25 0.36 0.52 0.71 0.82 0.94
0.36 0.33 0.44 0.44 0.31 0.23 0.22 0.23 0.25 0.25 0.25 0.23 0.21 0.20 0.18 0.18 0.17 0.16 0.14 0.15 0.16 0.17 0.16 0.16 0.16 0.17 0.19 0.21 0.23 0.24 0.24 0.24 0.20 0.19 0.18 0.19 0.21 0.25 0.28 0.36 0.47 0.66 0.82 0.94
0.33 0.31 0.35 0.37 0.27 0.22 0.18 0.17 0.17 0.18 0.17 0.16 0.16 0.17 0.18 0.16 0.14 0.13 0.13 0.14 0.16 0.18 0.17 0.16 0.16 0.17 0.22 0.26 0.25 0.24 0.26 0.26 0.23 0.21 0.20 0.21 0.25 0.30 0.33 0.40 0.48 0.60 0.72 0.94
0.23 0.27 0.34 0.36 0.27 0.28 0.22 0.15 0.13 0.12 0.13 0.14 0.13 0.13 0.13 0.13 0.12 0.10 0.12 0.15 0.16 0.17 0.14 0.14 0.16 0.16 0.19 0.24 0.26 0.25 0.26 0.27 0.26 0.25 0.24 0.26 0.30 0.32 0.34 0.43 0.53 0.63 0.71 0.81

GEFSCGP_prec_meanprecacc_240.txt.gz
Total_Precipitation_Accumulation
0.66 0.80 0.71 0.48 0.35 0.27 0.22 0.24 0.21 0.14 0.12 0.21 0.19 0.11 0.04 0.03 0.06 0.06 0.05 0.04 0.05 0.06 0.06 0.09 0.18 0.25 0.29 0.36 0.42 0.50 0.63 0.66 0.74 0.81 0.89 0.94 0.88 0.88 0.89 0.84 0.81 0.77 0.80 0.82
0.81 0.66 0.37 0.28 0.24 0.25 0.28 0.29 0.23 0.16 0.14 0.22 0.21 0.11 0.04 0.03 0.04 0.04 0.04 0.05 0.06 0.06 0.07 0.11 0.17 0.22 0.27 0.31 0.33 0.39 0.55 0.66 0.70 0.73 0.75 0.78 0.80 0.82 0.85 0.81 0.84 0.84 0.82 0.86
0.67 0.40 0.22 0.34 0.40 0.37 0.32 0.26 0.21 0.19 0.19 0.24 0.24 0.16 0.05 0.03 0.03 0.05 0.06 0.06 0.06 0.05 0.06 0.09 0.12 0.16 0.22 0.27 0.29 0.33 0.44 0.60 0.68 0.73 0.85 0.88 0.95 1.02 1.01 0.93 0.85 0.83 0.85 0.85
0.50 0.27 0.26 0.39 0.47 0.43 0.36 0.18 0.17 0.21 0.35 0.37 0.27 0.28 0.08 0.04 0.04 0.05 0.06 0.06 0.06 0.05 0.05 0.07 0.08 0.12 0.18 0.23 0.26 0.31 0.45 0.58 0.66 0.73 0.84 0.88 0.87 0.91 0.91 0.85 0.81 0.77 0.79 0.84
0.57 0.31 0.32 0.39 0.36 0.38 0.32 0.18 0.20 0.27 0.39 0.46 0.29 0.33 0.12 0.06 0.07 0.08 0.08 0.08 0.07 0.07 0.06 0.06 0.07 0.10 0.16 0.23 0.27 0.31 0.42 0.58 0.70 0.77 0.78 0.82 0.80 0.75 0.80 0.90 0.89 0.86 0.82 0.83
0.46 0.29 0.36 0.33 0.25 0.32 0.35 0.36 0.41 0.45 0.70 0.87 0.30 0.26 0.15 0.10 0.11 0.10 0.10 0.09 0.10 0.10 0.08 0.08 0.09 0.10 0.14 0.23 0.30 0.37 0.42 0.52 0.69 0.81 0.82 0.79 0.78 0.76 0.81 0.89 0.95 0.96 0.92 0.86
0.66 0.41 0.34 0.31 0.43 0.54 0.66 0.95 1.46 1.50 1.41 0.76 0.13 0.17 0.18 0.10 0.08 0.10 0.10 0.09 0.09 0.11 0.12 0.11 0.11 0.12 0.14 0.21 0.30 0.37 0.43 0.46 0.57 0.77 0.84 0.80 0.78 0.76 0.75 0.81 0.87 0.90 0.94 0.92
0.75 0.56 0.36 0.33 0.46 0.69 0.77 0.95 1.20 1.07 0.64 0.21 0.07 0.12 0.14 0.07 0.05 0.06 0.08 0.08 0.07 0.08 0.10 0.11 0.12 0.14 0.16 0.19 0.27 0.37 0.46 0.50 0.54 0.65 0.78 0.81 0.84 0.82 0.76 0.76 0.82 0.85 0.85 0.86
0.76 0.48 0.25 0.23 0.26 0.37 0.63 0.75 0.63 0.76 0.48 0.27 0.16 0.10 0.10 0.05 0.04 0.03 0.03 0.06 0.10 0.10 0.12 0.14 0.15 0.16 0.17 0.20 0.26 0.32 0.41 0.54 0.57 0.58 0.72 0.82 0.87 0.87 0.79 0.74 0.78 0.82 0.84 0.87
0.83 0.68 0.32 0.27 0.35 0.42 0.49 0.57 0.78 1.15 0.94 0.44 0.18 0.11 0.14 0.09 0.05 0.04 0.03 0.04 0.07 0.10 0.11 0.15 0.18 0.18 0.17 0.19 0.25 0.31 0.34 0.47 0.63 0.62 0.66 0.81 0.87 0.90 0.89 0.82 0.78 0.77 0.78 0.84
0.81 0.93 0.58 0.47 0.62 0.58 0.52 0.70 0.95 1.06 0.84 0.56 0.29 0.20 0.18 0.11 0.07 0.07 0.06 0.05 0.06 0.08 0.10 0.14 0.20 0.21 0.19 0.18 0.24 0.33 0.36 0.44 0.59 0.69 0.68 0.73 0.83 0.88 0.93 0.92 0.84 0.78 0.77 0.79
0.78 1.09 0.83 0.50 0.42 0.38 0.46 0.57 0.73 1.00 0.81 0.47 0.37 0.22 0.14 0.09 0.07 0.07 0.07 0.06 0.05 0.07 0.09 0.14 0.22 0.24 0.23 0.22 0.25 0.32 0.34 0.38 0.48 0.65 0.75 0.73 0.77 0.88 0.91 0.85 0.81 0.84 0.81 0.80
1.21 1.60 1.37 0.98 0.76 0.64 0.72 0.62 0.60 0.66 0.67 0.51 0.40 0.19 0.10 0.07 0.05 0.05 0.06 0.06 0.05 0.05 0.07 0.11 0.19 0.22 0.24 0.24 0.27 0.36 0.35 0.32 0.36 0.54 0.69 0.79 0.82 0.86 0.92 0.86 0.79 0.83 0.87 0.85
1.67 1.84 1.23 1.00 0.76 0.68 0.67 0.53 0.52 0.74 0.91 0.49 0.21 0.14 0.10 0.08 0.06 0.06 0.06 0.07 0.07 0.05 0.06 0.08 0.11 0.16 0.20 0.20 0.24 0.31 0.33 0.31 0.29 0.41 0.58 0.69 0.79 0.84 0.88 0.90 0.87 0.85 0.85 0.88
1.73 1.68 0.71 0.36 0.28 0.34 0.37 0.33 0.37 0.54 0.54 0.42 0.16 0.10 0.12 0.11 0.10 0.09 0.09 0.09 0.08 0.07 0.07 0.07 0.07 0.11 0.15 0.17 0.20 0.25 0.29 0.30 0.29 0.30 0.41 0.57 0.68 0.78 0.86 0.90 0.92 0.94 0.95 0.89
1.60 1.55 0.76 0.42 0.21 0.28 0.30 0.22 0.23 0.26 0.25 0.23 0.13 0.09 0.06 0.07 0.08 0.08 0.08 0.10 0.11 0.10 0.09 0.08 0.07 0.09 0.12 0.15 0.18 0.21 0.25 0.28 0.29 0.31 0.32 0.44 0.60 0.73 0.82 0.88 0.96 0.97 0.99 0.98
1.46 1.46 1.22 0.75 0.33 0.57 0.63 0.30 0.24 0.23 0.21 0.20 0.21 0.17 0.09 0.05 0.06 0.09 0.11 0.12 0.14 0.12 0.11 0.10 0.08 0.09 0.11 0.12 0.15 0.20 0.23 0.24 0.24 0.24 0.25 0.33 0.45 0.64 0.76 0.83 0.91 1.02 1.03 1.01
1.08 1.26 1.57 1.15 0.89 1.19 0.59 0.23 0.21 0.25 0.27 0.23 0.22 0.17 0.12 0.08 0.07 0.09 0.13 0.16 0.13 0.12 0.11 0.10 0.09 0.10 0.11 0.11 0.12 0.18 0.21 0.21 0.23 0.22 0.21 0.23 0.31 0.46 0.63 0.79 0.88 0.97 1.07 1.08
0.60 1.12 1.76 1.57 1.23 0.73 0.30 0.21 0.29 0.33 0.35 0.26 0.20 0.15 0.10 0.06 0.06 0.09 0.10 0.12 0.13 0.12 0.12 0.10 0.10 0.11 0.11 0.10 0.12 0.15 0.16 0.19 0.20 0.21 0.20 0.19 0.22 0.32 0.48 0.63 0.76 0.86 0.98 1.02
0.61 1.07 1.86 1.71 1.31 0.69 0.33 0.18 0.20 0.28 0.43 0.24 0.19 0.19 0.15 0.13 0.16 0.14 0.11 0.11 0.12 0.11 0.11 0.11 0.11 0.11 0.10 0.10 0.12 0.15 0.14 0.16 0.17 0.18 0.18 0.18 0.19 0.24 0.36 0.49 0.63 0.79 0.90 0.97
0.95 1.46 1.73 1.34 1.10 0.55 0.28 0.18 0.19 0.45 0.52 0.26 0.22 0.22 0.21 0.22 0.21 0.16 0.11 0.11 0.12 0.11 0.11 0.12 0.12 0.12 0.11 0.11 0.15 0.19 0.16 0.15 0.18 0.19 0.17 0.17 0.17 0.20 0.28 0.42 0.56 0.74 0.87 0.96
0.74 1.00 0.98 0.88 1.03 0.61 0.28 0.23 0.42 0.51 0.30 0.26 0.23 0.21 0.21 0.20 0.17 0.14 0.12 0.12 0.12 0.12 0.12 0.14 0.15 0.13 0.12 0.13 0.17 0.23 0.20 0.18 0.19 0.18 0.18 0.18 0.17 0.19 0.26 0.41 0.54 0.68 0.84 0.98
0.53 0.68 0.71 0.63 0.57 0.39 0.31 0.35 0.37 0.31 0.28 0.25 0.24 0.21 0.19 0.20 0.18 0.15 0.14 0.14 0.13 0.14 0.14 0.16 0.17 0.16 0.15 0.16 0.21 0.25 0.23 0.22 0.20 0.18 0.18 0.19 0.19 0.21 0.26 0.37 0.52 0.72 0.83 0.95
0.38 0.36 0.48 0.48 0.34 0.26 0.24 0.24 0.25 0.25 0.25 0.23 0.22 0.21 0.19 0.18 0.18 0.16 0.14 0.15 0.16 0.18 0.17 0.17 0.17 0.18 0.20 0.22 0.25 0.25 0.26 0.25 0.21 0.20 0.19 0.20 0.23 0.27 0.29 0.37 0.48 0.67 0.83 0.94
0.35 0.33 0.37 0.40 0.30 0.23 0.19 0.17 0.17 0.18 0.18 0.17 0.17 0.18 0.18 0.17 0.14 0.14 0.14 0.15 0.17 0.18 0.18 0.17 0.17 0.18 0.23 0.27 0.26 0.25 0.27 0.27 0.23 0.22 0.21 0.22 0.26 0.31 0.35 0.41 0.49 0.61 0.73 0.95
0.25 0.29 0.36 0.38 0.29 0.29 0.23 0.16 0.13 0.12 0.14 0.14 0.14 0.14 0.14 0.14 0.13 0.11 0.13 0.15 0.17 0.17 0.15 0.15 0.16 0.17 0.20 0.25 0.27 0.26 0.27 0.28 0.27 0.25 0.24 0.26 0.31 0.33 0.35 0.44 0.54 0.65 0.72 0.82

GEFSCGP_prec_meanprecacc_246.txt.gz
Total_Precipitation_Accumulation
0.76 0.88 0.78 0.53 0.40 0.31 0.23 0.26 0.24 0.16 0.14 0.22 0.19 0.11 0.04 0.04 0.07 0.07 0.06 0.06 0.07 0.07 0.08 0.13 0.24 0.33 0.37 0.43 0.48 0.55 0.68 0.71 0.78 0.84 0.92 0.97 0.91 0.91 0.91 0.86 0.83 0.79 0.82 0.84
0.90 0.72 0.40 0.31 0.28 0.30 0.32 0.33 0.26 0.18 0.16 0.25 0.22 0.11 0.05 0.04 0.05 0.05 0.05 0.06 0.07 0.07 0.08 0.13 0.21 0.29 0.34 0.37 0.38 0.43 0.59 0.70 0.74 0.77 0.79 0.83 0.85 0.85 0.88 0.84 0.85 0.85 0.83 0.88
0.73 0.43 0.24 0.38 0.45 0.43 0.37 0.30 0.23 0.22 0.22 0.27 0.27 0.17 0.05 0.03 0.04 0.06 0.07 0.08 0.08 0.06 0.07 0.10 0.14 0.21 0.29 0.33 0.34 0.37 0.50 0.64 0.73 0.78 0.91 0.95 1.00 1.05 1.03 0.95 0.87 0.84 0.86 0.87
0.54 0.29 0.28 0.44 0.53 0.49 0.41 0.21 0.20 0.25 0.39 0.42 0.31 0.32 0.09 0.04 0.05 0.06 0.07 0.07 0.07 0.06 0.07 0.08 0.09 0.15 0.23 0.29 0.32 0.37 0.51 0.64 0.72 0.79 0.89 0.93 0.92 0.95 0.95 0.88 0.82 0.79 0.81 0.85
0.63 0.34 0.34 0.43 0.40 0.42 0.37 0.22 0.23 0.32 0.45 0.52 0.34 0.37 0.14 0.06 0.08 0.09 0.08 0.09 0.08 0.08 0.07 0.07 0.08 0.12 0.19 0.30 0.34 0.38 0.49 0.66 0.76 0.83 0.85 0.88 0.86 0.81 0.85 0.93 0.91 0.87 0.84 0.84
0.50 0.32 0.38 0.35 0.28 0.36 0.41 0.43 0.47 0.52 0.81 0.99 0.34 0.30 0.17 0.11 0.12 0.11 0.10 0.09 0.10 0.11 0.09 0.08 0.10 0.11 0.17 0.30 0.38 0.45 0.49 0.59 0.75 0.87 0.88 0.85 0.83 0.81 0.84 0.92 0.97 0.98 0.93 0.88
0.72 0.46 0.37 0.33 0.46 0.59 0.73 1.07 1.64 1.70 1.63 0.89 0.16 0.19 0.20 0.11 0.09 0.10 0.11 0.09 0.09 0.11 0.12 0.11 0.12 0.13 0.16 0.25 0.36 0.44 0.50 0.52 0.62 0.82 0.89 0.83 0.82 0.80 0.78 0.83 0.89 0.92 0.95 0.94
0.80 0.62 0.40 0.36 0.49 0.73 0.84 1.06 1.34 1.20 0.75 0.27 0.10 0.15 0.16 0.08 0.05 0.06 0.08 0.09 0.08 0.08 0.11 0.12 0.12 0.15 0.18 0.21 0.31 0.42 0.51 0.54 0.58 0.69 0.81 0.84 0.87 0.85 0.79 0.79 0.84 0.87 0.87 0.88
0.79 0.52 0.27 0.25 0.28 0.40 0.69 0.83 0.71 0.84 0.54 0.30 0.20 0.13 0.12 0.05 0.04 0.03 0.04 0.07 0.10 0.10 0.12 0.15 0.15 0.17 0.18 0.22 0.29 0.36 0.46 0.58 0.60 0.61 0.74 0.84 0.89 0.90 0.81 0.77 0.79 0.84 0.85 0.88
0.85 0.71 0.34 0.30 0.38 0.45 0.54 0.65 0.86 1.25 1.01 0.49 0.22 0.13 0.15 0.10 0.06 0.04 0.03 0.04 0.07 0.10 0.12 0.15 0.19 0.18 0.18 0.21 0.28 0.34 0.38 0.51 0.66 0.64 0.69 0.83 0.89 0.93 0.91 0.84 0.80 0.78 0.78 0.85
0.84 0.95 0.60 0.51 0.66 0.62 0.57 0.78 1.04 1.15 0.92 0.61 0.32 0.22 0.20 0.11 0.07 0.07 0.06 0.05 0.06 0.08 0.10 0.14 0.20 0.22 0.20 0.20 0.26 0.35 0.39 0.47 0.61 0.71 0.70 0.75 0.86 0.90 0.95 0.94 0.85 0.79 0.77 0.79
0.80 1.11 0.85 0.53 0.45 0.41 0.49 0.63 0.79 1.07 0.87 0.51 0.39 0.24 0.15 0.10 0.07 0.07 0.08 0.06 0.05 0.08 0.09 0.14 0.23 0.25 0.24 0.24 0.27 0.35 0.36 0.40 0.50 0.67 0.77 0.75 0.79 0.91 0.93 0.86 0.82 0.84 0.82 0.81
1.24 1.63 1.40 1.02 0.79 0.67 0.76 0.66 0.64 0.70 0.72 0.56 0.42 0.21 0.11 0.07 0.06 0.05 0.06 0.07 0.05 0.06 0.07 0.12 0.20 0.23 0.25 0.26 0.30 0.38 0.37 0.35 0.38 0.56 0.71 0.81 0.83 0.88 0.94 0.88 0.80 0.84 0.87 0.85
1.73 1.88 1.26 1.03 0.80 0.70 0.70 0.57 0.55 0.78 0.96 0.53 0.23 0.15 0.11 0.08 0.06 0.06 0.06 0.07 0.07 0.06 0.06 0.08 0.12 0.16 0.21 0.21 0.26 0.33 0.35 0.33 0.31 0.43 0.60 0.71 0.80 0.86 0.90 0.92 0.90 0.86 0.86 0.88
1.78 1.73 0.73 0.37 0.29 0.35 0.39 0.35 0.40 0.57 0.57 0.46 0.18 0.12 0.12 0.11 0.10 0.09 0.09 0.09 0.08 0.07 0.08 0.07 0.08 0.12 0.16 0.18 0.21 0.27 0.32 0.33 0.31 0.33 0.44 0.60 0.71 0.82 0.89 0.93 0.95 0.97 0.96 0.89
1.63 1.58 0.78 0.43 0.22 0.29 0.32 0.24 0.26 0.29 0.27 0.25 0.14 0.10 0.07 0.07 0.08 0.08 0.08 0.10 0.11 0.10 0.10 0.08 0.08 0.10 0.13 0.17 0.19 0.23 0.28 0.30 0.30 0.32 0.34 0.47 0.64 0.77 0.86 0.92 1.00 1.00 1.01 1.00
1.49 1.48 1.24 0.77 0.33 0.58 0.65 0.32 0.27 0.26 0.23 0.21 0.23 0.19 0.10 0.05 0.06 0.09 0.11 0.13 0.14 0.13 0.11 0.10 0.09 0.09 0.12 0.14 0.17 0.22 0.25 0.26 0.27 0.26 0.26 0.34 0.47 0.67 0.79 0.85 0.94 1.06 1.06 1.04
1.11 1.28 1.59 1.17 0.91 1.22 0.61 0.25 0.23 0.28 0.30 0.25 0.23 0.18 0.13 0.08 0.07 0.09 0.13 0.16 0.13 0.12 0.12 0.10 0.10 0.10 0.12 0.12 0.14 0.20 0.23 0.24 0.26 0.26 0.23 0.25 0.32 0.48 0.65 0.81 0.89 0.99 1.10 1.10
0.62 1.15 1.80 1.60 1.27 0.76 0.32 0.23 0.31 0.35 0.38 0.29 0.22 0.15 0.11 0.07 0.07 0.09 0.10 0.12 0.13 0.13 0.12 0.11 0.10 0.11 0.11 0.11 0.14 0.17 0.19 0.23 0.24 0.25 0.24 0.22 0.24 0.34 0.50 0.66 0.78 0.87 1.00 1.04
0.63 1.11 1.91 1.75 1.35 0.72 0.36 0.21 0.22 0.31 0.46 0.27 0.21 0.20 0.16 0.13 0.16 0.14 0.11 0.11 0.12 0.11 0.11 0.11 0.11 0.12 0.11 0.11 0.15 0.19 0.17 0.19 0.22 0.22 0.22 0.21 0.22 0.27 0.38 0.51 0.65 0.80 0.91 0.98
0.99 1.51 1.78 1.37 1.13 0.58 0.31 0.21 0.21 0.49 0.56 0.29 0.24 0.23 0.22 0.23 0.22 0.16 0.12 0.11 0.12 0.11 0.11 0.12 0.13 0.12 0.12 0.13 0.17 0.22 0.20 0.19 0.22 0.22 0.21 0.21 0.21 0.24 0.31 0.45 0.58 0.76 0.88 0.97
0.76 1.03 1.01 0.90 1.05 0.64 0.31 0.27 0.46 0.56 0.33 0.27 0.24 0.22 0.22 0.21 0.17 0.14 0.13 0.13 0.12 0.12 0.12 0.15 0.15 0.13 0.13 0.15 0.20 0.25 0.23 0.21 0.22 0.22 0.22 0.22 0.20 0.22 0.29 0.43 0.56 0.70 0.86 0.99
0.54 0.71 0.73 0.65 0.60 0.43 0.36 0.39 0.40 0.34 0.31 0.27 0.24 0.22 0.20 0.20 0.19 0.16 0.14 0.14 0.14 0.15 0.15 0.16 0.18 0.16 0.16 0.17 0.22 0.27 0.25 0.24 0.23 0.21 0.21 0.22 0.22 0.24 0.28 0.38 0.53 0.73 0.85 0.96
0.39 0.37 0.49 0.49 0.37 0.29 0.26 0.27 0.27 0.27 0.27 0.24 0.22 0.21 0.19 0.19 0.18 0.17 0.15 0.16 0.17 0.19 0.18 0.17 0.18 0.19 0.21 0.23 0.26 0.28 0.28 0.27 0.23 0.22 0.21 0.23 0.26 0.30 0.31 0.38 0.49 0.68 0.84 0.96
0.36 0.34 0.38 0.41 0.31 0.25 0.21 0.19 0.19 0.19 0.19 0.18 0.17 0.18 0.19 0.17 0.15 0.14 0.14 0.15 0.17 0.19 0.19 0.18 0.18 0.19 0.24 0.28 0.28 0.27 0.29 0.30 0.26 0.24 0.23 0.24 0.28 0.33 0.36 0.42 0.50 0.62 0.75 0.97
0.27 0.31 0.37 0.40 0.31 0.31 0.25 0.18 0.15 0.14 0.15 0.15 0.14 0.14 0.14 0.15 0.13 0.11 0.14 0.16 0.17 0.18 0.16 0.16 0.17 0.18 0.21 0.26 0.28 0.27 0.28 0.29 0.29 0.28 0.26 0.28 0.32 0.34 0.36 0.45 0.56 0.66 0.74 0.84

GEFSCGP_prec_meanprecacc_252.txt.gz
Total_Precipitation_Accumulation
0.87 0.98 0.88 0.62 0.46 0.34 0.26 0.27 0.26 0.18 0.16 0.24 0.20 0.11 0.05 0.05 0.08 0.08 0.08 0.09 0.12 0.12 0.13 0.18 0.29 0.41 0.48 0.52 0.58 0.64 0.76 0.78 0.84 0.89 0.95 1.00 0.93 0.93 0.94 0.90 0.87 0.82 0.85 0.87
1.01 0.80 0.45 0.36 0.33 0.33 0.34 0.35 0.28 0.20 0.18 0.27 0.24 0.13 0.05 0.04 0.06 0.07 0.07 0.09 0.11 0.12 0.14 0.18 0.26 0.37 0.43 0.44 0.46 0.51 0.66 0.76 0.80 0.83 0.85 0.87 0.89 0.89 0.91 0.87 0.89 0.89 0.87 0.91
0.81 0.49 0.28 0.42 0.49 0.46 0.40 0.32 0.26 0.24 0.25 0.29 0.29 0.20 0.07 0.04 0.05 0.08 0.10 0.11 0.11 0.11 0.13 0.15 0.19 0.31 0.36 0.40 0.40 0.45 0.56 0.70 0.79 0.84 0.98 1.04 1.08 1.11 1.07 0.98 0.90 0.87 0.89 0.90
0.60 0.33 0.31 0.48 0.57 0.51 0.44 0.23 0.22 0.27 0.43 0.46 0.35 0.36 0.12 0.06 0.07 0.08 0.09 0.09 0.10 0.10 0.13 0.15 0.17 0.25 0.31 0.36 0.38 0.43 0.57 0.70 0.77 0.84 0.93 0.99 1.01 1.04 1.02 0.94 0.87 0.81 0.83 0.88
0.69 0.39 0.38 0.48 0.44 0.45 0.39 0.23 0.25 0.34 0.49 0.58 0.38 0.41 0.16 0.08 0.10 0.10 0.10 0.10 0.10 0.10 0.11 0.13 0.16 0.22 0.30 0.39 0.40 0.43 0.55 0.71 0.81 0.88 0.89 0.93 0.92 0.88 0.92 1.00 0.97 0.91 0.88 0.88
0.54 0.36 0.43 0.40 0.31 0.38 0.43 0.45 0.51 0.56 0.88 1.08 0.38 0.33 0.19 0.12 0.14 0.13 0.12 0.11 0.12 0.13 0.12 0.12 0.15 0.19 0.27 0.41 0.45 0.50 0.55 0.65 0.81 0.93 0.93 0.91 0.91 0.91 0.93 1.00 1.04 1.03 0.97 0.91
0.77 0.50 0.41 0.37 0.50 0.63 0.77 1.13 1.74 1.83 1.77 0.98 0.19 0.21 0.22 0.12 0.10 0.12 0.12 0.11 0.11 0.13 0.15 0.14 0.16 0.19 0.24 0.35 0.45 0.50 0.56 0.59 0.68 0.88 0.95 0.90 0.90 0.89 0.87 0.91 0.96 0.98 1.00 0.97
0.84 0.66 0.44 0.40 0.55 0.80 0.89 1.11 1.40 1.28 0.81 0.31 0.12 0.17 0.18 0.09 0.07 0.08 0.10 0.11 0.09 0.10 0.13 0.15 0.15 0.18 0.24 0.29 0.41 0.51 0.57 0.61 0.65 0.75 0.88 0.91 0.95 0.92 0.85 0.83 0.88 0.91 0.90 0.91
0.82 0.55 0.30 0.30 0.31 0.44 0.74 0.88 0.75 0.88 0.56 0.33 0.22 0.15 0.13 0.06 0.05 0.04 0.06 0.09 0.11 0.12 0.14 0.17 0.17 0.19 0.21 0.26 0.36 0.47 0.56 0.67 0.68 0.68 0.82 0.91 0.97 0.97 0.87 0.80 0.82 0.86 0.88 0.90
0.89 0.74 0.37 0.34 0.42 0.49 0.58 0.69 0.91 1.30 1.05 0.51 0.24 0.14 0.16 0.11 0.07 0.05 0.04 0.05 0.08 0.11 0.13 0.16 0.20 0.20 0.19 0.23 0.32 0.41 0.48 0.61 0.75 0.71 0.75 0.90 0.95 0.98 0.95 0.88 0.82 0.80 0.80 0.87
0.87 0.99 0.64 0.55 0.72 0.68 0.61 0.83 1.09 1.19 0.96 0.64 0.35 0.24 0.21 0.12 0.08 0.08 0.06 0.06 0.07 0.09 0.11 0.14 0.21 0.23 0.21 0.21 0.28 0.40 0.45 0.54 0.72 0.80 0.76 0.80 0.90 0.94 0.98 0.97 0.88 0.81 0.79 0.81
0.84 1.15 0.90 0.57 0.49 0.45 0.53 0.67 0.83 1.11 0.91 0.54 0.41 0.26 0.16 0.11 0.08 0.08 0.08 0.06 0.06 0.08 0.11 0.14 0.23 0.25 0.25 0.25 0.28 0.37 0.40 0.45 0.58 0.77 0.83 0.79 0.82 0.93 0.95 0.88 0.85 0.86 0.83 0.82
1.29 1.67 1.44 1.07 0.83 0.71 0.80 0.70 0.67 0.72 0.75 0.59 0.45 0.23 0.13 0.09 0.07 0.06 0.06 0.07 0.06 0.06 0.08 0.12 0.20 0.24 0.26 0.27 0.31 0.39 0.40 0.38 0.43 0.63 0.78 0.85 0.86 0.90 0.96 0.90 0.82 0.86 0.89 0.87
1.78 1.93 1.29 1.07 0.84 0.74 0.73 0.59 0.57 0.80 0.99 0.55 0.25 0.17 0.12 0.09 0.07 0.07 0.06 0.08 0.07 0.06 0.07 0.09 0.12 0.17 0.22 0.22 0.27 0.34 0.37 0.35 0.35 0.48 0.66 0.76 0.83 0.88 0.92 0.94 0.92 0.89 0.87 0.89
1.81 1.76 0.75 0.39 0.31 0.38 0.42 0.38 0.42 0.59 0.59 0.47 0.20 0.13 0.14 0.12 0.12 0.10 0.09 0.09 0.09 0.07 0.08 0.08 0.08 0.12 0.17 0.18 0.22 0.28 0.34 0.35 0.34 0.37 0.49 0.66 0.76 0.85 0.91 0.95 0.97 1.00 0.99 0.91
1.65 1.60 0.80 0.44 0.23 0.30 0.34 0.26 0.28 0.32 0.29 0.26 0.16 0.12 0.09 0.08 0.09 0.09 0.09 0.10 0.11 0.11 0.10 0.09 0.08 0.10 0.14 0.17 0.20 0.23 0.29 0.33 0.33 0.35 0.37 0.51 0.68 0.81 0.88 0.94 1.02 1.03 1.05 1.03
1.50 1.49 1.26 0.78 0.34 0.59 0.67 0.34 0.29 0.30 0.26 0.24 0.25 0.21 0.11 0.07 0.07 0.10 0.11 0.13 0.14 0.13 0.12 0.10 0.10 0.10 0.12 0.14 0.18 0.23 0.26 0.28 0.30 0.29 0.29 0.37 0.51 0.70 0.82 0.88 0.96 1.08 1.10 1.08
1.12 1.29 1.61 1.19 0.93 1.24 0.63 0.27 0.25 0.31 0.34 0.28 0.26 0.20 0.14 0.10 0.08 0.10 0.14 0.17 0.14 0.13 0.12 0.11 0.10 0.11 0.12 0.13 0.15 0.21 0.24 0.26 0.28 0.28 0.26 0.27 0.35 0.50 0.68 0.83 0.92 1.01 1.12 1.13
0.63 1.17 1.82 1.63 1.30 0.78 0.34 0.25 0.34 0.38 0.41 0.32 0.24 0.17 0.12 0.08 0.07 0.10 0.11 0.13 0.14 0.13 0.13 0.11 0.11 0.12 0.12 0.12 0.15 0.19 0.21 0.25 0.26 0.26 0.26 0.24 0.26 0.36 0.52 0.67 0.80 0.89 1.01 1.05
0.65 1.14 1.94 1.78 1.38 0.74 0.39 0.23 0.24 0.33 0.49 0.29 0.23 0.21 0.17 0.14 0.17 0.15 0.12 0.12 0.13 0.12 0.12 0.11 0.11 0.12 0.11 0.12 0.16 0.21 0.20 0.22 0.25 0.25 0.25 0.24 0.25 0.29 0.40 0.53 0.66 0.81 0.93 1.00
1.00 1.53 1.80 1.39 1.15 0.60 0.33 0.23 0.23 0.51 0.58 0.31 0.26 0.25 0.23 0.24 0.23 0.17 0.12 0.12 0.13 0.12 0.12 0.13 0.13 0.13 0.12 0.14 0.19 0.25 0.23 0.22 0.25 0.26 0.25 0.24 0.24 0.27 0.34 0.46 0.59 0.78 0.90 0.99
0.77 1.04 1.02 0.92 1.08 0.66 0.34 0.30 0.49 0.59 0.36 0.30 0.26 0.24 0.24 0.23 0.18 0.15 0.14 0.13 0.13 0.13 0.13 0.15 0.16 0.15 0.14 0.16 0.22 0.28 0.26 0.24 0.26 0.25 0.26 0.25 0.23 0.25 0.32 0.45 0.57 0.72 0.87 1.00
0.56 0.72 0.74 0.67 0.62 0.45 0.39 0.44 0.46 0.39 0.35 0.30 0.27 0.24 0.22 0.22 0.20 0.17 0.15 0.15 0.14 0.16 0.15 0.17 0.19 0.18 0.18 0.19 0.25 0.29 0.28 0.27 0.26 0.25 0.25 0.26 0.26 0.27 0.31 0.40 0.55 0.74 0.85 0.97
0.40 0.38 0.50 0.51 0.39 0.31 0.29 0.30 0.32 0.32 0.31 0.28 0.26 0.25 0.22 0.21 0.20 0.18 0.16 0.16 0.17 0.19 0.18 0.18 0.19 0.21 0.23 0.25 0.28 0.29 0.30 0.30 0.26 0.25 0.25 0.26 0.29 0.33 0.33 0.39 0.50 0.69 0.85 0.97
0.37 0.34 0.39 0.42 0.32 0.26 0.22 0.22 0.23 0.24 0.22 0.21 0.21 0.23 0.22 0.19 0.17 0.16 0.15 0.16 0.18 0.20 0.19 0.18 0.19 0.21 0.27 0.31 0.30 0.28 0.30 0.31 0.28 0.27 0.27 0.27 0.31 0.35 0.38 0.44 0.52 0.63 0.76 0.98
0.28 0.32 0.38 0.41 0.32 0.33 0.28 0.21 0.18 0.18 0.18 0.18 0.17 0.18 0.18 0.16 0.15 0.13 0.14 0.17 0.18 0.18 0.17 0.17 0.18 0.20 0.24 0.28 0.30 0.29 0.30 0.31 0.31 0.30 0.29 0.31 0.35 0.36 0.38 0.47 0.57 0.68 0.76 0.86

GEFSCGP_prec_meanprecacc_258.txt.gz
Total_Precipitation_Accumulation
0.94 1.08 0.96 0.69 0.54 0.40 0.31 0.32 0.30 0.23 0.19 0.27 0.22 0.12 0.06 0.06 0.09 0.09 0.10 0.11 0.15 0.18 0.19 0.25 0.35 0.47 0.55 0.63 0.69 0.76 0.92 0.95 1.02 1.05 1.05 1.05 0.97 0.96 0.96 0.92 0.88 0.84 0.86 0.88
1.07 0.87 0.50 0.39 0.37 0.38 0.40 0.40 0.32 0.25 0.22 0.30 0.26 0.14 0.06 0.05 0.07 0.07 0.08 0.10 0.13 0.16 0.21 0.26 0.33 0.44 0.50 0.53 0.56 0.61 0.82 0.95 0.99 0.98 0.93 0.92 0.93 0.92 0.94 0.91 0.92 0.91 0.88 0.92
0.87 0.54 0.31 0.46 0.54 0.53 0.46 0.37 0.30 0.29 0.30 0.32 0.32 0.23 0.09 0.06 0.06 0.09 0.11 0.12 0.14 0.14 0.18 0.22 0.27 0.38 0.45 0.50 0.50 0.55 0.71 0.87 0.95 0.96 1.06 1.10 1.13 1.15 1.10 1.02 0.95 0.92 0.93 0.92
0.64 0.37 0.35 0.53 0.62 0.58 0.51 0.27 0.26 0.32 0.49 0.52 0.40 0.40 0.14 0.08 0.08 0.09 0.10 0.10 0.11 0.13 0.17 0.21 0.25 0.33 0.41 0.46 0.48 0.56 0.73 0.86 0.91 0.96 1.04 1.08 1.08 1.11 1.06 0.97 0.91 0.87 0.87 0.91
0.74 0.43 0.42 0.53 0.48 0.50 0.45 0.27 0.30 0.41 0.56 0.64 0.43 0.45 0.19 0.09 0.11 0.11 0.11 0.11 0.11 0.13 0.14 0.18 0.23 0.30 0.41 0.50 0.52 0.58 0.70 0.84 0.94 0.99 0.99 1.05 1.04 0.99 1.02 1.07 1.02 0.97 0.93 0.91
0.57 0.38 0.45 0.43 0.35 0.43 0.49 0.51 0.58 0.65 0.98 1.17 0.42 0.35 0.21 0.13 0.15 0.14 0.13 0.12 0.13 0.15 0.15 0.18 0.23 0.28 0.38 0.56 0.59 0.62 0.68 0.77 0.95 1.06 1.03 0.99 1.01 1.02 1.03 1.07 1.09 1.08 1.02 0.95
0.79 0.52 0.44 0.40 0.54 0.68 0.84 1.22 1.86 1.97 1.91 1.06 0.21 0.23 0.24 0.13 0.11 0.13 0.13 0.12 0.12 0.15 0.18 0.19 0.23 0.27 0.34 0.48 0.58 0.63 0.69 0.70 0.81 1.00 1.07 0.99 0.98 0.97 0.95 0.98 1.01 1.02 1.03 1.00
0.87 0.68 0.47 0.44 0.60 0.87 0.96 1.19 1.50 1.36 0.88 0.34 0.14 0.18 0.18 0.10 0.07 0.08 0.11 0.11 0.11 0.12 0.17 0.20 0.20 0.25 0.33 0.40 0.50 0.60 0.69 0.74 0.77 0.86 0.99 1.02 1.04 0.99 0.91 0.89 0.93 0.94 0.93 0.93
0.85 0.58 0.33 0.33 0.36 0.49 0.79 0.93 0.80 0.93 0.60 0.36 0.24 0.16 0.14 0.07 0.05 0.05 0.06 0.09 0.13 0.14 0.17 0.20 0.21 0.23 0.28 0.34 0.42 0.53 0.64 0.79 0.81 0.80 0.91 0.99 1.04 1.03 0.93 0.87 0.87 0.91 0.91 0.93
0.92 0.77 0.39 0.37 0.46 0.52 0.62 0.73 0.95 1.36 1.10 0.55 0.26 0.16 0.18 0.12 0.08 0.06 0.05 0.06 0.09 0.13 0.15 0.19 0.23 0.23 0.23 0.28 0.36 0.46 0.54 0.72 0.89 0.84 0.84 0.97 1.02 1.04 1.02 0.94 0.88 0.84 0.83 0.89
0.90 1.02 0.67 0.58 0.76 0.73 0.65 0.88 1.13 1.23 0.99 0.67 0.38 0.26 0.22 0.13 0.09 0.09 0.07 0.06 0.08 0.10 0.13 0.17 0.23 0.26 0.25 0.25 0.32 0.43 0.50 0.62 0.84 0.91 0.85 0.89 0.97 1.01 1.05 1.03 0.94 0.86 0.84 0.85
0.86 1.17 0.93 0.60 0.52 0.47 0.57 0.72 0.87 1.14 0.93 0.56 0.44 0.28 0.17 0.12 0.09 0.09 0.09 0.07 0.07 0.10 0.13 0.17 0.26 0.29 0.28 0.29 0.31 0.40 0.44 0.50 0.65 0.85 0.91 0.87 0.89 1.00 1.01 0.94 0.91 0.92 0.88 0.86
1.32 1.69 1.48 1.10 0.86 0.73 0.82 0.73 0.70 0.75 0.77 0.61 0.48 0.26 0.14 0.10 0.08 0.07 0.08 0.08 0.07 0.08 0.11 0.15 0.23 0.27 0.29 0.29 0.33 0.41 0.42 0.41 0.48 0.67 0.82 0.90 0.92 0.96 1.02 0.96 0.88 0.91 0.94 0.91
1.82 1.96 1.32 1.11 0.88 0.77 0.76 0.61 0.60 0.82 1.01 0.58 0.28 0.20 0.14 0.10 0.09 0.09 0.09 0.09 0.09 0.09 0.11 0.11 0.15 0.19 0.24 0.23 0.29 0.35 0.38 0.37 0.37 0.50 0.68 0.79 0.87 0.92 0.96 0.98 0.96 0.92 0.90 0.92
1.83 1.79 0.76 0.40 0.33 0.39 0.44 0.40 0.45 0.62 0.60 0.50 0.22 0.15 0.15 0.14 0.14 0.13 0.12 0.12 0.11 0.11 0.11 0.10 0.10 0.14 0.19 0.20 0.23 0.29 0.35 0.36 0.35 0.39 0.51 0.68 0.79 0.88 0.94 0.98 1.00 1.03 1.02 0.93
1.66 1.62 0.80 0.45 0.23 0.31 0.35 0.28 0.31 0.34 0.31 0.28 0.17 0.14 0.11 0.10 0.11 0.11 0.12 0.13 0.14 0.13 0.12 0.10 0.10 0.12 0.15 0.18 0.21 0.24 0.30 0.34 0.35 0.37 0.39 0.53 0.71 0.84 0.91 0.97 1.05 1.07 1.08 1.05
1.51 1.50 1.28 0.80 0.36 0.61 0.69 0.37 0.33 0.33 0.29 0.26 0.27 0.22 0.12 0.08 0.09 0.12 0.14 0.16 0.16 0.15 0.13 0.12 0.11 0.11 0.14 0.15 0.19 0.24 0.27 0.29 0.31 0.30 0.31 0.39 0.52 0.73 0.85 0.91 0.99 1.11 1.12 1.10
1.13 1.30 1.63 1.22 0.95 1.28 0.66 0.29 0.28 0.34 0.37 0.31 0.28 0.22 0.16 0.11 0.09 0.12 0.17 0.20 0.16 0.15 0.14 0.12 0.12 0.12 0.13 0.13 0.15 0.22 0.26 0.27 0.30 0.30 0.27 0.29 0.36 0.52 0.70 0.85 0.93 1.03 1.13 1.15
0.64 1.18 1.85 1.67 1.34 0.81 0.36 0.26 0.36 0.40 0.45 0.35 0.27 0.19 0.14 0.09 0.09 0.12 0.13 0.16 0.16 0.15 0.14 0.12 0.12 0.13 0.13 0.13 0.16 0.20 0.22 0.26 0.27 0.28 0.27 0.25 0.28 0.38 0.54 0.69 0.82 0.91 1.03 1.07
0.66 1.16 1.97 1.81 1.41 0.77 0.40 0.24 0.25 0.35 0.52 0.32 0.26 0.24 0.19 0.15 0.19 0.17 0.14 0.14 0.15 0.13 0.13 0.13 0.12 0.13 0.12 0.13 0.17 0.22 0.21 0.23 0.26 0.27 0.26 0.25 0.27 0.32 0.43 0.56 0.69 0.84 0.95 1.02
1.01 1.55 1.83 1.42 1.18 0.62 0.35 0.24 0.24 0.53 0.61 0.33 0.29 0.29 0.26 0.26 0.25 0.19 0.14 0.13 0.14 0.13 0.13 0.14 0.14 0.14 0.13 0.15 0.19 0.26 0.24 0.23 0.26 0.27 0.26 0.26 0.26 0.29 0.36 0.49 0.62 0.80 0.92 1.02
0.78 1.05 1.03 0.94 1.11 0.69 0.35 0.32 0.51 0.61 0.38 0.32 0.28 0.27 0.27 0.25 0.20 0.16 0.15 0.15 0.15 0.14 0.14 0.17 0.17 0.15 0.14 0.17 0.23 0.29 0.27 0.26 0.27 0.26 0.27 0.27 0.25 0.27 0.34 0.47 0.60 0.75 0.90 1.03
0.57 0.73 0.75 0.68 0.65 0.47 0.41 0.47 0.49 0.42 0.38 0.32 0.30 0.27 0.25 0.24 0.21 0.18 0.16 0.15 0.15 0.16 0.16 0.18 0.20 0.19 0.18 0.20 0.25 0.31 0.30 0.29 0.28 0.27 0.28 0.29 0.28 0.29 0.33 0.42 0.57 0.77 0.88 0.99
0.41 0.38 0.51 0.52 0.40 0.32 0.29 0.31 0.34 0.35 0.34 0.30 0.29 0.28 0.25 0.23 0.21 0.19 0.16 0.17 0.17 0.19 0.19 0.18 0.19 0.21 0.24 0.26 0.29 0.31 0.32 0.32 0.28 0.28 0.28 0.29 0.32 0.35 0.35 0.42 0.52 0.71 0.87 0.98
0.37 0.35 0.39 0.43 0.33 0.27 0.23 0.23 0.26 0.27 0.25 0.23 0.24 0.26 0.25 0.22 0.19 0.17 0.16 0.16 0.18 0.20 0.20 0.19 0.19 0.21 0.27 0.32 0.31 0.30 0.32 0.33 0.31 0.30 0.30 0.31 0.33 0.37 0.40 0.46 0.54 0.65 0.77 0.99
0.29 0.33 0.40 0.42 0.33 0.35 0.29 0.23 0.21 0.21 0.22 0.21 0.20 0.21 0.20 0.19 0.17 0.14 0.15 0.17 0.18 0.19 0.17 0.18 0.19 0.21 0.24 0.30 0.32 0.31 0.32 0.33 0.33 0.33 0.32 0.34 0.38 0.39 0.40 0.49 0.59 0.71 0.78 0.88

GEFSCGP_prec_meanprecacc_264.txt.gz
Total_Precipitation_Accumulation
0.97 1.11 1.01 0.72 0.58 0.46 0.35 0.37 0.36 0.27 0.22 0.32 0.27 0.16 0.09 0.08 0.11 0.11 0.13 0.15 0.21 0.24 0.26 0.32 0.42 0.55 0.65 0.75 0.84 0.89 1.07 1.11 1.19 1.26 1.27 1.25 1.15 1.09 1.04 0.96 0.90 0.85 0.88 0.90
1.11 0.90 0.53 0.42 0.41 0.43 0.45 0.46 0.37 0.27 0.24 0.34 0.31 0.18 0.09 0.07 0.08 0.08 0.10 0.13 0.17 0.22 0.28 0.34 0.39 0.49 0.57 0.62 0.70 0.77 0.97 1.14 1.20 1.21 1.15 1.13 1.12 1.06 1.05 0.98 0.96 0.94 0.90 0.93
0.91 0.57 0.33 0.50 0.58 0.57 0.50 0.42 0.35 0.33 0.33 0.37 0.38 0.28 0.12 0.07 0.07 0.10 0.13 0.15 0.17 0.18 0.24 0.29 0.31 0.42 0.51 0.57 0.60 0.69 0.88 1.06 1.20 1.26 1.31 1.30 1.32 1.31 1.24 1.13 1.02 0.96 0.95 0.94
0.68 0.39 0.39 0.58 0.66 0.61 0.54 0.30 0.29 0.36 0.55 0.59 0.47 0.47 0.18 0.10 0.10 0.11 0.13 0.13 0.14 0.16 0.22 0.27 0.29 0.36 0.45 0.52 0.57 0.68 0.87 1.03 1.12 1.19 1.27 1.30 1.28 1.28 1.22 1.11 1.02 0.94 0.92 0.93
0.80 0.48 0.48 0.57 0.51 0.53 0.48 0.30 0.33 0.45 0.63 0.71 0.50 0.51 0.23 0.12 0.13 0.13 0.14 0.13 0.13 0.14 0.17 0.22 0.27 0.34 0.45 0.55 0.58 0.67 0.83 0.99 1.12 1.18 1.18 1.22 1.21 1.17 1.20 1.24 1.17 1.07 1.00 0.96
0.60 0.41 0.48 0.46 0.37 0.45 0.52 0.57 0.64 0.72 1.07 1.25 0.47 0.40 0.25 0.16 0.17 0.16 0.15 0.14 0.14 0.16 0.17 0.21 0.28 0.32 0.44 0.62 0.65 0.69 0.78 0.92 1.11 1.23 1.21 1.16 1.16 1.17 1.18 1.21 1.22 1.19 1.11 1.02
0.81 0.54 0.45 0.42 0.57 0.72 0.90 1.31 1.97 2.09 2.04 1.13 0.24 0.26 0.26 0.14 0.13 0.14 0.14 0.14 0.13 0.17 0.21 0.22 0.26 0.33 0.39 0.54 0.63 0.70 0.78 0.81 0.96 1.16 1.23 1.16 1.16 1.11 1.06 1.09 1.12 1.12 1.12 1.09
0.89 0.71 0.49 0.46 0.64 0.93 1.03 1.26 1.58 1.45 0.98 0.41 0.17 0.20 0.19 0.10 0.08 0.10 0.12 0.12 0.12 0.14 0.19 0.23 0.23 0.29 0.38 0.46 0.56 0.67 0.78 0.83 0.89 1.00 1.14 1.18 1.21 1.15 1.03 0.99 1.02 1.04 1.02 1.01
0.87 0.59 0.34 0.34 0.38 0.53 0.84 0.98 0.84 0.98 0.66 0.42 0.30 0.19 0.15 0.08 0.06 0.06 0.08 0.11 0.14 0.16 0.20 0.24 0.24 0.27 0.32 0.39 0.47 0.60 0.73 0.87 0.90 0.91 1.03 1.13 1.16 1.14 1.05 0.97 0.95 0.99 1.00 1.02
0.94 0.80 0.40 0.38 0.49 0.56 0.65 0.76 0.99 1.40 1.15 0.61 0.31 0.19 0.20 0.13 0.09 0.07 0.06 0.07 0.10 0.15 0.19 0.23 0.26 0.26 0.27 0.33 0.41 0.51 0.61 0.81 0.98 0.93 0.95 1.08 1.12 1.13 1.10 1.03 0.97 0.92 0.90 0.96
0.93 1.06 0.69 0.60 0.78 0.75 0.68 0.91 1.16 1.27 1.04 0.72 0.42 0.29 0.24 0.15 0.10 0.10 0.08 0.07 0.09 0.12 0.15 0.20 0.27 0.30 0.29 0.31 0.38 0.49 0.55 0.67 0.92 1.00 0.95 0.99 1.07 1.10 1.12 1.10 1.02 0.95 0.90 0.90
0.88 1.20 0.95 0.61 0.53 0.49 0.59 0.74 0.90 1.18 0.96 0.59 0.47 0.31 0.19 0.13 0.11 0.10 0.10 0.08 0.08 0.11 0.15 0.20 0.29 0.34 0.35 0.35 0.37 0.46 0.48 0.55 0.72 0.93 1.00 0.97 0.99 1.09 1.10 1.02 0.99 1.01 0.98 0.95
1.36 1.73 1.51 1.13 0.88 0.75 0.85 0.76 0.72 0.78 0.80 0.63 0.51 0.29 0.16 0.10 0.09 0.09 0.10 0.10 0.09 0.10 0.14 0.19 0.27 0.32 0.36 0.37 0.39 0.46 0.45 0.45 0.53 0.74 0.90 0.98 1.00 1.03 1.09 1.03 0.94 0.97 1.02 1.01
1.87 2.01 1.35 1.13 0.90 0.79 0.78 0.64 0.63 0.86 1.04 0.59 0.30 0.23 0.15 0.11 0.10 0.11 0.12 0.12 0.12 0.12 0.14 0.15 0.19 0.25 0.30 0.29 0.34 0.40 0.42 0.41 0.41 0.56 0.75 0.86 0.94 0.99 1.03 1.05 1.04 1.00 0.98 1.00
1.85 1.80 0.77 0.41 0.33 0.41 0.46 0.42 0.48 0.65 0.62 0.51 0.24 0.17 0.18 0.16 0.16 0.16 0.16 0.15 0.15 0.14 0.15 0.14 0.14 0.18 0.23 0.24 0.28 0.33 0.40 0.41 0.40 0.44 0.56 0.74 0.85 0.95 1.00 1.03 1.05 1.10 1.11 1.01
1.67 1.62 0.81 0.45 0.24 0.32 0.37 0.31 0.33 0.36 0.33 0.30 0.18 0.15 0.13 0.12 0.13 0.14 0.15 0.16 0.17 0.17 0.16 0.14 0.13 0.15 0.18 0.22 0.25 0.29 0.36 0.39 0.40 0.42 0.44 0.58 0.76 0.89 0.96 1.00 1.08 1.12 1.14 1.11
1.52 1.52 1.29 0.81 0.36 0.62 0.70 0.39 0.36 0.36 0.32 0.29 0.30 0.25 0.15 0.10 0.12 0.15 0.17 0.19 0.20 0.18 0.16 0.15 0.14 0.14 0.16 0.18 0.22 0.27 0.31 0.34 0.36 0.35 0.35 0.43 0.57 0.77 0.89 0.94 1.03 1.16 1.17 1.14
1.15 1.32 1.65 1.23 0.96 1.30 0.67 0.30 0.30 0.38 0.41 0.35 0.32 0.25 0.19 0.15 0.13 0.15 0.20 0.23 0.19 0.18 0.17 0.15 0.14 0.14 0.15 0.16 0.18 0.24 0.28 0.30 0.33 0.33 0.30 0.32 0.40 0.57 0.75 0.90 0.98 1.07 1.17 1.18
0.66 1.21 1.87 1.69 1.36 0.83 0.37 0.27 0.39 0.44 0.48 0.39 0.30 0.22 0.17 0.14 0.13 0.16 0.18 0.19 0.19 0.18 0.17 0.15 0.14 0.15 0.15 0.15 0.18 0.22 0.24 0.29 0.30 0.31 0.30 0.28 0.31 0.42 0.58 0.73 0.86 0.94 1.06 1.10
0.68 1.18 2.00 1.84 1.44 0.79 0.42 0.26 0.28 0.38 0.55 0.34 0.28 0.27 0.22 0.21 0.25 0.24 0.19 0.18 0.18 0.16 0.16 0.15 0.14 0.15 0.14 0.15 0.19 0.24 0.23 0.26 0.29 0.30 0.29 0.28 0.30 0.35 0.46 0.59 0.73 0.87 0.99 1.06
1.03 1.58 1.86 1.44 1.21 0.64 0.37 0.26 0.25 0.56 0.64 0.34 0.30 0.31 0.30 0.30 0.30 0.25 0.19 0.17 0.17 0.16 0.16 0.16 0.16 0.15 0.15 0.16 0.21 0.27 0.25 0.25 0.28 0.29 0.29 0.29 0.29 0.32 0.39 0.52 0.65 0.83 0.96 1.06
0.79 1.07 1.05 0.95 1.13 0.71 0.37 0.33 0.52 0.63 0.39 0.33 0.30 0.29 0.30 0.28 0.24 0.21 0.20 0.18 0.18 0.17 0.16 0.18 0.18 0.16 0.15 0.18 0.24 0.30 0.28 0.27 0.29 0.28 0.29 0.29 0.28 0.30 0.36 0.49 0.62 0.77 0.93 1.07
0.57 0.74 0.76 0.70 0.66 0.49 0.42 0.48 0.50 0.43 0.39 0.33 0.31 0.29 0.28 0.27 0.26 0.23 0.20 0.18 0.18 0.18 0.18 0.19 0.20 0.19 0.19 0.20 0.26 0.32 0.31 0.30 0.29 0.29 0.29 0.30 0.30 0.32 0.35 0.45 0.60 0.80 0.91 1.03
0.41 0.39 0.52 0.53 0.41 0.32 0.30 0.32 0.35 0.35 0.35 0.31 0.30 0.30 0.27 0.26 0.25 0.23 0.19 0.18 0.18 0.20 0.19 0.19 0.20 0.22 0.24 0.27 0.31 0.33 0.34 0.33 0.30 0.30 0.30 0.31 0.34 0.37 0.38 0.44 0.55 0.74 0.90 1.01
0.37 0.35 0.40 0.44 0.34 0.27 0.23 0.24 0.26 0.27 0.26 0.24 0.25 0.27 0.27 0.24 0.22 0.20 0.18 0.17 0.19 0.21 0.20 0.19 0.20 0.22 0.28 0.34 0.34 0.32 0.33 0.35 0.33 0.32 0.33 0.33 0.36 0.40 0.43 0.49 0.57 0.68 0.80 1.02
0.30 0.34 0.40 0.43 0.34 0.36 0.30 0.24 0.22 0.22 0.23 0.22 0.21 0.22 0.22 0.20 0.19 0.16 0.16 0.18 0.19 0.20 0.18 0.18 0.20 0.22 0.27 0.32 0.34 0.32 0.33 0.35 0.36 0.35 0.35 0.37 0.41 0.42 0.44 0.52 0.63 0.74 0.80 0.90

GEFSCGP_prec_meanprecacc_270.txt.gz
Total_Precipitation_Accumulation
0.98 1.13 1.02 0.74 0.60 0.48 0.37 0.38 0.37 0.29 0.24 0.36 0.31 0.19 0.12 0.11 0.13 0.15 0.16 0.18 0.25 0.28 0.30 0.38 0.49 0.63 0.74 0.84 0.93 0.97 1.16 1.21 1.34 1.44 1.42 1.38 1.29 1.25 1.22 1.14 1.05 0.97 0.97 0.96
1.14 0.92 0.54 0.43 0.43 0.45 0.48 0.48 0.40 0.30 0.26 0.38 0.35 0.22 0.12 0.10 0.10 0.12 0.15 0.17 0.21 0.26 0.34 0.39 0.45 0.56 0.65 0.71 0.81 0.86 1.05 1.22 1.31 1.38 1.35 1.29 1.27 1.22 1.20 1.13 1.13 1.11 1.05 1.04
0.93 0.58 0.34 0.51 0.61 0.60 0.53 0.44 0.37 0.36 0.36 0.41 0.42 0.31 0.15 0.10 0.09 0.14 0.16 0.18 0.20 0.21 0.27 0.33 0.37 0.49 0.58 0.65 0.70 0.80 0.99 1.16 1.29 1.38 1.49 1.49 1.52 1.49 1.41 1.28 1.16 1.11 1.11 1.07
0.70 0.41 0.40 0.60 0.68 0.63 0.56 0.32 0.31 0.39 0.60 0.65 0.53 0.52 0.21 0.13 0.12 0.15 0.17 0.16 0.17 0.19 0.25 0.30 0.34 0.42 0.52 0.60 0.67 0.76 0.98 1.18 1.26 1.32 1.40 1.47 1.49 1.50 1.41 1.30 1.22 1.13 1.09 1.08
0.84 0.50 0.50 0.59 0.52 0.54 0.49 0.32 0.36 0.49 0.69 0.78 0.55 0.57 0.27 0.15 0.17 0.18 0.18 0.17 0.15 0.16 0.19 0.25 0.31 0.39 0.52 0.63 0.67 0.74 0.89 1.08 1.24 1.32 1.31 1.37 1.41 1.40 1.43 1.46 1.39 1.31 1.23 1.15
0.64 0.44 0.52 0.49 0.38 0.46 0.55 0.61 0.68 0.77 1.12 1.32 0.51 0.45 0.30 0.21 0.23 0.20 0.19 0.18 0.16 0.18 0.20 0.25 0.32 0.38 0.50 0.72 0.75 0.77 0.83 0.97 1.17 1.30 1.29 1.28 1.30 1.33 1.36 1.43 1.44 1.40 1.31 1.21
0.85 0.57 0.48 0.44 0.59 0.74 0.94 1.37 2.04 2.15 2.10 1.19 0.27 0.30 0.33 0.21 0.18 0.18 0.19 0.18 0.16 0.19 0.23 0.25 0.31 0.40 0.46 0.62 0.72 0.78 0.83 0.85 1.01 1.23 1.30 1.23 1.25 1.22 1.18 1.22 1.27 1.28 1.27 1.23
0.91 0.73 0.51 0.49 0.66 0.95 1.05 1.30 1.63 1.50 1.01 0.45 0.20 0.24 0.24 0.16 0.13 0.14 0.16 0.17 0.15 0.16 0.23 0.26 0.27 0.35 0.45 0.53 0.62 0.73 0.83 0.88 0.95 1.06 1.19 1.23 1.28 1.25 1.15 1.11 1.14 1.16 1.14 1.13
0.88 0.60 0.35 0.36 0.41 0.55 0.86 1.00 0.86 1.02 0.70 0.46 0.34 0.21 0.18 0.11 0.12 0.11 0.12 0.15 0.17 0.19 0.24 0.28 0.31 0.35 0.38 0.45 0.52 0.66 0.78 0.92 0.95 0.95 1.09 1.19 1.24 1.24 1.16 1.09 1.07 1.10 1.10 1.12
0.96 0.82 0.41 0.38 0.50 0.57 0.67 0.78 1.02 1.45 1.20 0.64 0.33 0.21 0.23 0.18 0.15 0.11 0.10 0.11 0.14 0.18 0.23 0.28 0.35 0.36 0.34 0.38 0.46 0.57 0.66 0.86 1.02 0.98 0.99 1.13 1.19 1.23 1.21 1.14 1.07 1.01 1.00 1.06
0.95 1.09 0.71 0.60 0.79 0.76 0.69 0.93 1.19 1.31 1.08 0.75 0.44 0.31 0.28 0.19 0.15 0.16 0.14 0.12 0.13 0.16 0.19 0.25 0.35 0.41 0.38 0.37 0.42 0.54 0.61 0.73 0.97 1.06 1.01 1.04 1.14 1.19 1.23 1.21 1.10 1.02 0.98 0.99
0.90 1.23 0.98 0.62 0.53 0.49 0.60 0.76 0.93 1.22 0.99 0.62 0.50 0.33 0.21 0.16 0.14 0.14 0.14 0.14 0.14 0.17 0.20 0.26 0.37 0.43 0.44 0.44 0.44 0.53 0.56 0.62 0.79 1.00 1.08 1.04 1.06 1.17 1.20 1.13 1.07 1.08 1.04 1.01
1.40 1.77 1.53 1.14 0.89 0.76 0.87 0.77 0.75 0.81 0.84 0.66 0.53 0.31 0.17 0.11 0.11 0.12 0.13 0.15 0.17 0.17 0.21 0.27 0.35 0.40 0.45 0.45 0.46 0.54 0.55 0.53 0.59 0.81 0.98 1.08 1.08 1.11 1.17 1.12 1.02 1.04 1.08 1.07
1.91 2.05 1.39 1.15 0.90 0.80 0.79 0.65 0.65 0.89 1.07 0.61 0.31 0.24 0.16 0.13 0.12 0.14 0.15 0.16 0.19 0.19 0.23 0.23 0.25 0.31 0.37 0.36 0.40 0.48 0.51 0.49 0.49 0.63 0.83 0.96 1.03 1.07 1.11 1.13 1.10 1.05 1.04 1.05
1.87 1.83 0.79 0.42 0.34 0.42 0.47 0.43 0.50 0.68 0.64 0.53 0.26 0.20 0.20 0.18 0.19 0.20 0.21 0.20 0.20 0.22 0.23 0.21 0.20 0.24 0.29 0.30 0.34 0.40 0.48 0.50 0.49 0.52 0.64 0.83 0.94 1.03 1.08 1.10 1.11 1.15 1.16 1.07
1.68 1.64 0.82 0.46 0.24 0.33 0.38 0.32 0.35 0.38 0.35 0.32 0.21 0.18 0.15 0.14 0.16 0.18 0.20 0.22 0.22 0.25 0.26 0.21 0.20 0.21 0.24 0.28 0.31 0.35 0.42 0.48 0.50 0.52 0.52 0.66 0.85 0.98 1.05 1.09 1.16 1.18 1.19 1.17
1.55 1.54 1.31 0.82 0.37 0.63 0.72 0.40 0.37 0.37 0.34 0.31 0.33 0.29 0.17 0.13 0.15 0.19 0.21 0.23 0.24 0.25 0.25 0.21 0.20 0.20 0.22 0.24 0.27 0.33 0.38 0.43 0.45 0.42 0.42 0.51 0.67 0.86 0.97 1.03 1.11 1.23 1.23 1.20
1.18 1.35 1.68 1.25 0.97 1.31 0.68 0.31 0.31 0.39 0.44 0.39 0.36 0.30 0.23 0.19 0.18 0.19 0.24 0.27 0.26 0.25 0.24 0.22 0.20 0.20 0.21 0.22 0.23 0.31 0.35 0.36 0.39 0.39 0.37 0.39 0.49 0.66 0.83 0.98 1.06 1.14 1.24 1.25
0.68 1.23 1.90 1.71 1.37 0.84 0.38 0.28 0.40 0.46 0.50 0.43 0.35 0.27 0.23 0.20 0.18 0.20 0.22 0.25 0.27 0.27 0.25 0.22 0.20 0.20 0.20 0.21 0.24 0.27 0.29 0.33 0.34 0.35 0.36 0.34 0.38 0.49 0.65 0.81 0.94 1.02 1.14 1.16
0.70 1.21 2.04 1.86 1.46 0.80 0.43 0.26 0.29 0.39 0.57 0.37 0.31 0.31 0.28 0.27 0.29 0.29 0.27 0.24 0.25 0.23 0.22 0.21 0.20 0.19 0.19 0.21 0.25 0.28 0.28 0.30 0.33 0.34 0.33 0.33 0.36 0.41 0.52 0.65 0.79 0.94 1.06 1.12
1.05 1.61 1.89 1.46 1.23 0.65 0.38 0.27 0.26 0.57 0.65 0.36 0.33 0.35 0.34 0.36 0.36 0.32 0.27 0.24 0.24 0.21 0.20 0.21 0.20 0.19 0.19 0.22 0.26 0.31 0.30 0.30 0.32 0.33 0.33 0.33 0.34 0.36 0.44 0.57 0.70 0.88 1.01 1.12
0.80 1.08 1.06 0.97 1.16 0.73 0.38 0.34 0.54 0.65 0.41 0.35 0.32 0.32 0.34 0.32 0.30 0.28 0.26 0.24 0.23 0.22 0.20 0.22 0.21 0.20 0.19 0.22 0.27 0.32 0.31 0.30 0.32 0.31 0.32 0.32 0.31 0.34 0.40 0.53 0.66 0.82 0.97 1.11
0.58 0.75 0.78 0.71 0.67 0.49 0.43 0.50 0.52 0.45 0.40 0.35 0.34 0.32 0.32 0.32 0.31 0.29 0.25 0.23 0.22 0.22 0.21 0.21 0.23 0.22 0.21 0.22 0.28 0.34 0.32 0.32 0.31 0.32 0.33 0.33 0.33 0.35 0.38 0.47 0.63 0.83 0.94 1.06
0.42 0.40 0.53 0.54 0.42 0.33 0.32 0.33 0.36 0.37 0.36 0.33 0.32 0.33 0.31 0.31 0.31 0.27 0.22 0.22 0.21 0.21 0.21 0.20 0.22 0.24 0.25 0.28 0.32 0.34 0.35 0.34 0.31 0.33 0.34 0.33 0.36 0.41 0.41 0.47 0.58 0.77 0.93 1.04
0.38 0.35 0.41 0.45 0.34 0.28 0.24 0.25 0.27 0.28 0.27 0.25 0.27 0.30 0.31 0.29 0.26 0.23 0.20 0.19 0.20 0.22 0.21 0.20 0.21 0.23 0.29 0.35 0.34 0.32 0.34 0.36 0.34 0.34 0.36 0.36 0.38 0.43 0.46 0.51 0.59 0.70 0.82 1.04
0.30 0.34 0.40 0.43 0.35 0.37 0.31 0.24 0.23 0.23 0.23 0.23 0.23 0.25 0.25 0.24 0.22 0.18 0.18 0.19 0.20 0.20 0.18 0.19 0.20 0.22 0.28 0.33 0.34 0.32 0.33 0.36 0.37 0.37 0.37 0.40 0.44 0.45 0.47 0.55 0.65 0.76 0.82 0.92

GEFSCGP_prec_meanprecacc_276.txt.gz
Total_Precipitation_Accumulation
0.99 1.13 1.03 0.75 0.62 0.49 0.39 0.40 0.40 0.31 0.26 0.38 0.32 0.20 0.14 0.14 0.16 0.16 0.18 0.20 0.27 0.31 0.34 0.44 0.55 0.69 0.81 0.90 1.01 1.10 1.27 1.30 1.43 1.53 1.48 1.44 1.35 1.32 1.31 1.23 1.17 1.11 1.12 1.09
1.14 0.93 0.54 0.43 0.44 0.47 0.49 0.50 0.42 0.32 0.28 0.40 0.37 0.23 0.15 0.14 0.14 0.14 0.17 0.20 0.24 0.29 0.38 0.45 0.52 0.64 0.71 0.78 0.88 0.97 1.19 1.32 1.39 1.46 1.41 1.36 1.34 1.29 1.28 1.22 1.22 1.23 1.21 1.18
0.94 0.58 0.35 0.53 0.63 0.62 0.54 0.46 0.40 0.38 0.38 0.43 0.44 0.33 0.17 0.14 0.12 0.16 0.19 0.21 0.25 0.25 0.32 0.39 0.43 0.57 0.65 0.71 0.77 0.89 1.13 1.30 1.42 1.49 1.58 1.58 1.60 1.57 1.49 1.36 1.26 1.24 1.25 1.20
0.72 0.42 0.42 0.62 0.70 0.65 0.58 0.33 0.33 0.41 0.63 0.68 0.55 0.56 0.23 0.15 0.14 0.18 0.20 0.18 0.21 0.24 0.30 0.37 0.40 0.49 0.59 0.66 0.73 0.85 1.14 1.36 1.44 1.50 1.55 1.58 1.57 1.56 1.48 1.39 1.34 1.26 1.20 1.18
0.85 0.52 0.52 0.61 0.54 0.56 0.51 0.33 0.37 0.50 0.71 0.81 0.58 0.62 0.30 0.17 0.20 0.22 0.23 0.19 0.17 0.20 0.24 0.32 0.38 0.45 0.58 0.71 0.74 0.82 1.01 1.25 1.42 1.51 1.51 1.51 1.52 1.48 1.50 1.54 1.52 1.47 1.38 1.28
0.65 0.45 0.54 0.50 0.39 0.47 0.56 0.63 0.70 0.79 1.16 1.35 0.54 0.49 0.34 0.24 0.28 0.27 0.24 0.22 0.19 0.21 0.24 0.31 0.40 0.46 0.59 0.81 0.83 0.86 0.93 1.11 1.32 1.45 1.44 1.40 1.42 1.44 1.45 1.53 1.56 1.53 1.44 1.33
0.86 0.58 0.49 0.45 0.59 0.75 0.95 1.40 2.08 2.18 2.13 1.23 0.30 0.34 0.37 0.25 0.23 0.25 0.25 0.22 0.19 0.22 0.26 0.30 0.38 0.49 0.55 0.73 0.83 0.88 0.95 0.99 1.13 1.34 1.41 1.32 1.34 1.33 1.29 1.34 1.38 1.38 1.37 1.32
0.92 0.75 0.53 0.50 0.67 0.96 1.06 1.31 1.65 1.53 1.04 0.48 0.23 0.26 0.27 0.19 0.17 0.19 0.22 0.22 0.19 0.20 0.26 0.31 0.33 0.44 0.54 0.62 0.72 0.83 0.93 0.99 1.05 1.14 1.29 1.32 1.36 1.33 1.27 1.23 1.24 1.24 1.20 1.19
0.89 0.62 0.36 0.38 0.42 0.55 0.87 1.01 0.88 1.06 0.73 0.49 0.37 0.24 0.20 0.14 0.16 0.14 0.19 0.21 0.21 0.22 0.28 0.33 0.36 0.42 0.48 0.54 0.60 0.74 0.88 1.01 1.03 1.02 1.15 1.24 1.31 1.31 1.24 1.17 1.14 1.17 1.16 1.17
0.97 0.82 0.41 0.39 0.51 0.58 0.68 0.79 1.04 1.49 1.24 0.67 0.35 0.23 0.26 0.22 0.21 0.17 0.18 0.20 0.19 0.22 0.27 0.33 0.39 0.42 0.43 0.49 0.55 0.66 0.75 0.94 1.09 1.04 1.05 1.18 1.24 1.28 1.28 1.21 1.15 1.07 1.05 1.11
0.96 1.10 0.72 0.61 0.79 0.77 0.69 0.95 1.21 1.34 1.10 0.78 0.46 0.34 0.32 0.26 0.24 0.24 0.22 0.22 0.23 0.22 0.25 0.31 0.41 0.48 0.47 0.47 0.51 0.63 0.69 0.82 1.05 1.12 1.07 1.09 1.18 1.23 1.29 1.26 1.17 1.07 1.01 1.02
0.91 1.25 1.00 0.63 0.53 0.49 0.60 0.76 0.94 1.25 1.02 0.64 0.52 0.36 0.24 0.21 0.20 0.20 0.21 0.22 0.25 0.28 0.30 0.35 0.45 0.51 0.52 0.53 0.54 0.63 0.65 0.70 0.86 1.06 1.13 1.09 1.11 1.22 1.24 1.18 1.13 1.12 1.07 1.04
1.44 1.81 1.57 1.16 0.90 0.77 0.87 0.77 0.76 0.84 0.87 0.69 0.55 0.33 0.19 0.13 0.13 0.15 0.18 0.21 0.23 0.25 0.29 0.34 0.42 0.47 0.53 0.54 0.56 0.65 0.65 0.62 0.67 0.86 1.02 1.11 1.12 1.16 1.22 1.17 1.07 1.08 1.12 1.10
1.95 2.08 1.41 1.17 0.92 0.82 0.81 0.65 0.66 0.91 1.10 0.64 0.34 0.26 0.18 0.14 0.14 0.16 0.18 0.21 0.25 0.26 0.30 0.29 0.31 0.37 0.45 0.45 0.49 0.58 0.60 0.57 0.57 0.71 0.88 1.00 1.06 1.12 1.16 1.19 1.16 1.11 1.09 1.11
1.90 1.86 0.80 0.43 0.35 0.44 0.49 0.44 0.51 0.69 0.66 0.55 0.27 0.20 0.21 0.20 0.22 0.23 0.25 0.24 0.24 0.27 0.30 0.30 0.28 0.31 0.37 0.38 0.43 0.50 0.56 0.56 0.56 0.59 0.72 0.90 0.98 1.08 1.14 1.16 1.18 1.22 1.22 1.13
1.72 1.67 0.84 0.47 0.25 0.33 0.39 0.33 0.36 0.40 0.36 0.33 0.21 0.19 0.16 0.16 0.19 0.22 0.24 0.25 0.26 0.30 0.32 0.30 0.28 0.28 0.32 0.36 0.41 0.44 0.49 0.53 0.55 0.57 0.58 0.73 0.91 1.03 1.11 1.14 1.21 1.23 1.25 1.23
1.58 1.57 1.34 0.83 0.37 0.63 0.73 0.41 0.38 0.38 0.36 0.33 0.35 0.30 0.19 0.15 0.19 0.24 0.27 0.28 0.28 0.31 0.34 0.30 0.28 0.28 0.30 0.33 0.36 0.40 0.44 0.48 0.49 0.47 0.47 0.56 0.72 0.91 1.02 1.08 1.16 1.27 1.28 1.25
1.21 1.39 1.72 1.28 0.99 1.32 0.69 0.32 0.32 0.40 0.45 0.41 0.38 0.32 0.26 0.23 0.22 0.24 0.30 0.34 0.31 0.33 0.33 0.29 0.28 0.29 0.30 0.30 0.31 0.38 0.40 0.40 0.42 0.43 0.40 0.43 0.53 0.69 0.87 1.02 1.11 1.19 1.29 1.29
0.70 1.26 1.94 1.75 1.40 0.85 0.38 0.29 0.41 0.47 0.51 0.45 0.37 0.29 0.26 0.24 0.22 0.24 0.27 0.34 0.36 0.34 0.32 0.29 0.30 0.32 0.31 0.31 0.32 0.34 0.35 0.38 0.38 0.39 0.39 0.37 0.41 0.52 0.68 0.84 0.96 1.05 1.17 1.20
0.71 1.23 2.08 1.91 1.48 0.81 0.43 0.27 0.30 0.41 0.59 0.39 0.35 0.34 0.32 0.30 0.33 0.33 0.32 0.33 0.34 0.30 0.28 0.28 0.30 0.32 0.32 0.33 0.35 0.34 0.34 0.36 0.38 0.37 0.37 0.37 0.39 0.44 0.54 0.67 0.81 0.97 1.08 1.14
1.06 1.63 1.93 1.50 1.25 0.66 0.38 0.28 0.27 0.58 0.67 0.38 0.36 0.39 0.38 0.40 0.42 0.38 0.32 0.29 0.31 0.29 0.27 0.28 0.28 0.28 0.32 0.35 0.37 0.39 0.37 0.36 0.38 0.37 0.36 0.37 0.37 0.40 0.46 0.59 0.72 0.91 1.04 1.14
0.80 1.09 1.08 0.99 1.19 0.75 0.39 0.35 0.56 0.67 0.42 0.36 0.34 0.35 0.37 0.35 0.34 0.33 0.31 0.29 0.28 0.29 0.27 0.29 0.28 0.27 0.30 0.33 0.38 0.44 0.39 0.37 0.37 0.35 0.35 0.35 0.34 0.36 0.43 0.56 0.69 0.84 1.00 1.13
0.59 0.77 0.80 0.73 0.70 0.52 0.45 0.52 0.54 0.47 0.42 0.36 0.36 0.34 0.34 0.35 0.35 0.33 0.30 0.28 0.26 0.26 0.25 0.26 0.29 0.29 0.29 0.32 0.38 0.44 0.42 0.39 0.36 0.36 0.36 0.35 0.35 0.37 0.41 0.49 0.64 0.85 0.96 1.07
0.43 0.41 0.55 0.56 0.43 0.34 0.33 0.35 0.38 0.38 0.38 0.34 0.34 0.36 0.34 0.34 0.34 0.30 0.26 0.26 0.25 0.25 0.23 0.23 0.26 0.29 0.32 0.36 0.40 0.41 0.43 0.42 0.36 0.37 0.38 0.36 0.38 0.43 0.43 0.48 0.59 0.79 0.95 1.05
0.39 0.36 0.42 0.46 0.35 0.29 0.25 0.26 0.29 0.30 0.28 0.26 0.28 0.32 0.34 0.32 0.29 0.25 0.23 0.21 0.22 0.24 0.23 0.22 0.24 0.28 0.35 0.41 0.40 0.37 0.40 0.43 0.39 0.39 0.41 0.40 0.41 0.46 0.49 0.53 0.60 0.72 0.84 1.06
0.30 0.35 0.41 0.44 0.35 0.38 0.32 0.25 0.24 0.24 0.24 0.24 0.25 0.27 0.27 0.27 0.25 0.21 0.20 0.21 0.22 0.22 0.20 0.21 0.23 0.26 0.32 0.38 0.39 0.36 0.38 0.41 0.42 0.42 0.42 0.45 0.48 0.48 0.50 0.57 0.67 0.79 0.85 0.95